Site Date DSCMET_AIRTEMP_MEAN_150_0_01 DSCMET_AIRTEMP_MEAN_1000_0_02 DSCMET_AIRTEMP_MEAN_2000_0_03 DSCMET_AIRTEMP_MEAN_3000_0_04 DSCMET_AIRTEMP_MEAN_4000_0_05 DSCMET_RELHUM_MEAN_150_0_01 DSCMET_DEWPT_MEAN_150_0_01 DSCMET_VPD_MEAN_150_0_01 DSCMET_LWV_MEAN_150_0_01 DSCMET_LWV_MEAN_1000_0_02 DSCMET_LWV_MEAN_2000_0_03 DSCMET_AIRTEMP_MEAN_5000_0_06 DSCMET_RELHUM_MEAN_5000_0_06 DSCMET_DEWPT_MEAN_5000_0_06 DSCMET_VPD_MEAN_5000_0_06 DSCMET_LW_MEAN_3000_0_04 DSCMET_LW_MEAN_4000_0_05 DSCMET_LW_MEAN_5000_0_06 DSCMET_WSPD_SNC_MEAN_150_0_01 DSCMET_WDIR_SNC_MEAN_150_0_01 DSCMET_WSPD_SNC_MEAN_5000_0_02 DSCMET_WDIR_SNC_MEAN_5000_0_02 PRIMET_LW_OUT_MEAN_600_0_02 PRIMET_LW_IN_MEAN_600_0_02 PRIMET_SW_OUT_MEAN_600_0_02 PRIMET_SW_IN_MEAN_600_0_02
DSCMET_COMPS 2018-07-19 16:25:00 23.680 24.200 24.170 24.550 24.450 51.480 13.110 14.200 260.500 261.200 260.100 24.650 45.140 11.976 17.017 103.000 262.600 261.500 0.5400 335.200 1.461 252.400 450.30 372.00 13.49 266.60
DSCMET_COMPS 2018-07-19 16:20:00 23.720 24.180 24.160 24.590 24.390 51.280 13.090 14.293 260.500 261.200 260.300 24.650 45.600 12.130 16.875 103.000 262.400 261.500 0.4790 339.600 1.520 229.100 454.40 370.40 16.87 55.83
DSCMET_COMPS 2018-07-19 16:15:00 23.750 24.160 24.140 24.620 24.440 50.760 12.960 14.472 260.500 261.200 260.200 24.500 45.920 12.100 16.626 103.000 262.500 261.600 0.6720 331.800 1.509 246.500 457.50 368.70 19.66 174.00
DSCMET_COMPS 2018-07-19 16:10:00 23.860 24.200 24.150 24.660 24.340 50.660 13.030 14.598 260.500 261.200 260.300 24.290 46.140 11.982 16.351 103.100 262.300 261.500 0.6550 340.700 2.189 234.400 461.10 374.90 22.32 349.70
DSCMET_COMPS 2018-07-19 16:05:00 23.770 24.160 24.110 24.690 24.580 50.410 12.870 14.592 260.500 261.200 260.100 24.500 45.590 11.990 16.727 103.100 262.400 261.500 0.7880 331.100 2.049 241.800 465.70 380.30 28.54 507.80
DSCMET_COMPS 2018-07-19 16:00:00 23.770 24.170 24.170 24.720 24.540 50.420 12.870 14.589 260.500 261.200 260.200 24.370 46.070 12.031 16.451 102.900 262.300 261.500 0.7160 334.800 1.645 236.900 471.70 380.30 36.05 588.00
DSCMET_COMPS 2018-07-19 15:55:00 23.820 24.170 24.150 24.790 24.430 50.130 12.830 14.719 260.500 261.200 260.100 24.210 46.340 11.975 16.213 102.800 262.300 261.600 0.7620 339.700 1.686 231.000 478.30 381.40 44.83 604.10
DSCMET_COMPS 2018-07-19 15:50:00 23.930 24.210 24.200 24.840 24.470 50.360 13.000 14.748 260.500 261.200 260.300 24.050 46.700 11.946 15.950 102.800 262.300 261.600 0.9810 329.500 2.906 235.700 485.10 382.00 53.96 618.60
DSCMET_COMPS 2018-07-19 15:45:00 23.930 24.240 24.200 24.920 24.660 50.190 12.950 14.799 260.500 261.200 260.500 24.440 46.080 12.098 16.517 102.800 262.300 261.800 0.9420 322.900 1.839 257.300 492.90 382.20 64.05 634.00
DSCMET_COMPS 2018-07-19 15:40:00 23.990 24.230 24.250 24.980 24.680 50.500 13.100 14.760 260.500 261.200 260.400 24.260 46.400 12.040 16.243 102.900 262.300 261.700 0.9200 327.900 2.027 246.400 500.50 382.60 73.71 647.60
DSCMET_COMPS 2018-07-19 15:35:00 24.040 24.310 24.320 25.030 24.820 51.140 13.340 14.613 260.500 261.200 260.500 24.360 46.830 12.271 16.210 103.100 262.500 261.700 0.8460 323.600 2.035 244.200 505.50 383.20 82.20 661.90
DSCMET_COMPS 2018-07-19 15:30:00 24.040 24.230 24.300 25.050 24.650 51.140 13.340 14.613 260.500 261.200 260.500 24.350 47.160 12.368 16.099 102.900 262.400 261.800   0.000 2.376 248.700 512.50 384.00 90.70 676.00
DSCMET_COMPS 2018-07-19 15:25:00 24.160 24.300 24.380 25.080 24.800 51.290 13.490 14.673 260.500 261.200 260.500 24.470 46.920 12.400 16.289 103.100 262.300 261.800 0.9330 325.400 2.071 244.200 516.00 383.60 97.60 688.30
DSCMET_COMPS 2018-07-19 15:20:00 24.170 24.370 24.460 25.080 24.830 50.560 13.290 14.902 260.500 261.200 260.500 24.590 46.890 12.499 16.415 103.000 262.500 262.000 0.7780 324.800 1.871 237.500 518.60 384.60 103.10 703.50
DSCMET_COMPS 2018-07-19 15:15:00 24.160 24.320 24.400 25.110 24.600 50.560 13.280 14.893 260.500 261.200 260.500 24.150 47.780 12.385 15.721 102.800 262.400 261.900 0.8800 327.900 1.884 245.600 524.00 385.20 107.00 716.50
DSCMET_COMPS 2018-07-19 15:10:00 24.150 24.370 24.400 25.160 24.770 51.460 13.540 14.613 260.500 261.200 260.500 24.440 47.220 12.470 16.168 102.900 262.300 261.900 0.7350 326.100 2.277 235.500 526.40 385.10 111.80 731.10
DSCMET_COMPS 2018-07-19 15:05:00 24.270 24.470 24.520 25.230 24.650 50.550 13.370 14.994 260.500 261.200 260.500 24.270 47.660 12.456 15.871 103.000 262.300 261.900 0.7830 322.000 2.300 237.100 528.10 385.50 114.80 744.50
DSCMET_COMPS 2018-07-19 15:00:00 24.240 24.460 24.480 25.260 24.720 50.830 13.430 14.883 260.500 261.200 260.500 24.370 47.310 12.435 16.073 103.100 262.300 261.900 0.7890 315.700 4.938 253.700 531.40 386.00 117.10 756.50
DSCMET_COMPS 2018-07-19 14:55:00 24.320 24.480 24.520 25.260 24.700 50.420 13.380 15.079 260.500 261.200 260.500 24.240 47.600 12.409 15.860 103.100 262.300 261.900 0.8280 320.300     533.60 386.80 118.30 767.40
DSCMET_COMPS 2018-07-19 14:50:00 24.250 24.410 24.440 25.300 24.810 50.340 13.290 15.040 260.500 261.200 260.500 24.230 47.560 12.387 15.863 103.000 262.200 261.900 0.9150 325.500 2.164 245.200 536.20 387.60 120.80 778.90
DSCMET_COMPS 2018-07-19 14:45:00 24.290 24.310 24.380 25.350 25.050 50.450 13.360 15.043 260.500 261.200 260.500 24.290 47.450 12.407 15.954 103.000 262.300 261.900 0.7980 327.700 1.696 240.400 540.40 387.30 123.20 790.50
DSCMET_COMPS 2018-07-19 14:40:00 24.460 24.480 24.530 25.430 24.850 50.180 13.440 15.279 260.500 261.200 260.500 24.370 47.520 12.502 16.009 103.100 262.200 261.900 0.8020 325.000 1.892 247.300 541.20 387.50 124.90 802.00
DSCMET_COMPS 2018-07-19 14:35:00 24.450 24.630 24.700 25.460 25.020 50.470 13.510 15.181 260.500 261.400 260.500 24.340 47.820 12.571 15.889 103.100 262.200 261.900 0.8260 326.000 3.063 237.400 544.30 388.10 127.10 815.00
DSCMET_COMPS 2018-07-19 14:30:00 24.540 24.640 24.800 25.480 25.060 50.290 13.540 15.319 260.500 261.500 260.500 24.370 47.910 12.627 15.890 103.100 262.300 261.900 0.9380 322.600 2.013 242.500 547.00 388.50 129.10 826.00
DSCMET_COMPS 2018-07-19 14:25:00 24.640 24.700 24.780 25.470 25.310 50.530 13.710 15.336 260.500 261.900 260.500 24.550 47.670 12.714 16.136 103.100 262.200 262.000 0.8230 340.600 2.077 220.100 548.00 387.90 132.40 839.00
DSCMET_COMPS 2018-07-19 14:20:00 24.580 24.650 24.740 25.460 25.110 50.760 13.720 15.210 260.500 261.800 260.500 24.450 48.290 12.820 15.850 102.900 262.200 262.000   0.000 2.144 239.100 548.00 388.50 134.30 850.00
DSCMET_COMPS 2018-07-19 14:15:00 24.700 24.760 24.840 25.500 24.810 50.250 13.680 15.478 260.500 261.700 260.500 24.270 48.860 12.835 15.507 102.800 262.100 262.000 0.7560 340.000 2.715 225.500 546.80 389.30 134.50 859.00
DSCMET_COMPS 2018-07-19 14:10:00 24.810 24.870 24.930 25.560 24.690 50.180 13.760 15.602 260.500 261.700 260.500 24.200 48.660 12.708 15.502 102.800 262.100 262.000 0.9020 329.700 3.124 227.800 550.20 389.40 136.30 869.00
DSCMET_COMPS 2018-07-19 14:05:00 24.780 25.020 25.020 25.600 25.030 50.720 13.890 15.405 260.500 261.900 260.500 24.520 48.120 12.830 15.968 102.800 262.100 262.100 0.5910 327.100 2.360 222.000 552.70 389.80 136.70 877.00
DSCMET_COMPS 2018-07-19 14:00:00 24.870 24.940 24.980 25.610 24.990 50.440 13.890 15.576 260.500 261.900 260.500 24.600 47.990 12.862 16.085 103.000 262.000 262.100 0.5790 342.300 2.337 221.600 556.60 389.90 139.30 889.00
DSCMET_COMPS 2018-07-19 13:55:00 24.830 24.910 25.070 25.560 25.210 50.990 14.020 15.367 260.500 261.900 260.500 24.600 48.500 13.024 15.927 103.000 261.900 262.200 0.7370 323.100 2.220 224.400 557.00 390.40 140.20 897.00
DSCMET_COMPS 2018-07-19 13:50:00 24.730 24.830 24.910 25.550 24.970 50.740 13.850 15.353 260.500 261.900 260.500 24.440 48.690 12.937 15.718 102.800 261.700 262.200 0.7920 339.900 2.459 228.100 561.10 391.10 142.30 906.00
DSCMET_COMPS 2018-07-19 13:45:00 24.730 24.810 24.850 25.560 25.110 50.640 13.820 15.384 260.500 261.900 260.500 24.560 48.980 13.138 15.741 102.800 261.800 262.200 0.5200 350.800 0.935 232.700 561.90 390.30 144.70 916.00
DSCMET_COMPS 2018-07-19 13:40:00 24.920 25.050 25.070 25.530 24.950 50.700 14.010 15.541 260.600 261.900 260.500 24.260 49.280 12.957 15.370 102.800 261.500 262.200 0.8480 341.000 2.340 227.400 557.20 388.10 145.40 922.00
DSCMET_COMPS 2018-07-19 13:35:00 24.860 25.070 24.950 25.570 24.800 50.790 13.990 15.457 260.600 261.900 260.500 24.600 48.780 13.112 15.841 102.800 261.700 262.300 0.5900 318.500 1.669 219.200 560.00 388.40 147.50 931.00
DSCMET_COMPS 2018-07-19 13:30:00 24.730 24.880 24.950 25.600 24.670 51.130 13.970 15.232 260.600 261.900 260.500 24.100 49.740 12.952 15.086 102.900 261.600 262.200 0.5060 340.500 1.959 218.600 557.20 387.20 148.10 938.00
DSCMET_COMPS 2018-07-19 13:25:00 24.730 24.810 24.860 25.620 24.890 51.060 13.950 15.254 260.500 261.900 260.500 24.180 49.960 13.093 15.092 103.100 261.700 262.200 0.5710 325.900 1.460 234.300 556.30 388.10 148.30 945.00
DSCMET_COMPS 2018-07-19 13:20:00 24.790 24.720 24.850 25.660 24.910 50.610 13.870 15.449 260.500 261.900 260.500 24.240 49.700 13.068 15.225 103.100 261.900 262.200 0.8730 336.700 2.289 222.000 561.60 388.80 149.20 949.00
DSCMET_COMPS 2018-07-19 13:15:00 25.010 24.890 25.010 25.710 24.930 50.480 14.030 15.694 260.600 261.900 260.500 24.320 49.740 13.154 15.286 103.000 262.200 262.200 0.7000 316.400 1.568 252.400 561.70 389.20 149.60 956.00
DSCMET_COMPS 2018-07-19 13:10:00 25.050 24.900 24.930 25.690 24.890 50.700 14.130 15.662 260.800 261.900 260.500 24.250 49.830 13.117 15.195 102.400 262.300 262.200   0.000 2.202 237.000 562.00 388.10 150.90 961.00
DSCMET_COMPS 2018-07-19 13:05:00 24.910 24.970 24.950 25.560 25.420 51.200 14.160 15.374 261.000 261.900 260.500 24.880 48.710 13.346 16.130 102.400 262.700 262.300 0.4930 303.800 1.327 233.100 558.80 387.50 150.80 966.00
DSCMET_COMPS 2018-07-19 13:00:00 24.850 25.100 24.980 25.490 25.420 51.610 14.220 15.191 261.200 261.900 260.500 24.530 49.970 13.417 15.408 102.300 262.900 262.300 0.4560 328.700 1.369 218.400 559.80 388.10 151.30 971.00
DSCMET_COMPS 2018-07-19 12:55:00 24.630 24.790 24.790 25.530 24.750 51.370 13.950 15.067 261.100 261.900 260.500 24.300 50.270 13.298 15.106 101.800 262.900 262.200 0.4960 85.400 1.484 190.700 566.80 389.50 152.20 974.00
DSCMET_COMPS 2018-07-19 12:50:00 24.940 25.070 25.150 25.490 25.300 50.660 14.030 15.572 261.100 261.900 260.500 24.640 49.360 13.329 15.699 102.200 262.800 262.300 0.6020 283.700 1.526 204.500 566.10 389.10 152.50 977.00
DSCMET_COMPS 2018-07-19 12:45:00 24.930 25.020 25.100 25.300 25.240 51.090 14.140 15.427 261.200 261.900 260.500 25.000 48.900 13.515 16.185 102.200 262.900 262.300 0.4470 259.200 0.800 209.600 564.90 389.60 151.70 979.00
DSCMET_COMPS 2018-07-19 12:40:00 24.800 24.990 24.960 25.140 25.020 51.250 14.080 15.258 261.200 261.900 260.800 24.740 49.520 13.470 15.743 101.900 262.900 262.300 0.4150 295.700 0.957 218.100 567.30 389.80 153.20 981.00
DSCMET_COMPS 2018-07-19 12:35:00 24.620 24.740 24.770 24.980 24.880 52.060 14.150 14.844 261.200 261.900 260.600 24.470 50.240 13.444 15.270 101.700 262.900 262.300 0.4540 310.700 1.841 225.700 568.00 389.60 152.80 984.00
DSCMET_COMPS 2018-07-19 12:30:00 24.360 24.630 24.570 24.860 24.710 53.200 14.250 14.268 261.200 261.900 260.900 24.540 50.180 13.490 15.353 101.600 262.800 262.400 0.6570 71.060 1.438 146.400 567.00 389.50 154.10 985.00
DSCMET_COMPS 2018-07-19 12:25:00 24.250 24.290 24.270 24.850 24.320 53.010 14.080 14.231 261.200 261.900 260.500 23.920 51.490 13.316 14.404 101.600 262.700 262.300 0.5780 45.830 1.033 128.300 564.00 387.80 154.20 988.00
DSCMET_COMPS 2018-07-19 12:20:00 24.250 24.500 24.430 24.790 24.670 53.450 14.210 14.098 261.200 261.900 260.800 24.310 50.640 13.419 15.003 102.000 262.900 262.300 0.5260 92.100 1.644 154.900 565.60 388.70 154.60 989.00
DSCMET_COMPS 2018-07-19 12:15:00 24.080 24.240 24.300 24.660 24.730 53.900 14.190 13.820 261.200 261.900 260.700 24.550 50.220 13.512 15.349 101.600 262.900 262.300 0.6000 60.380 0.830 142.300 565.30 388.70 154.60 991.00
DSCMET_COMPS 2018-07-19 12:10:00 24.130 24.420 24.520 24.410 24.930 53.710 14.170 13.919 261.200 261.900 261.200 24.600 50.980 13.788 15.160 101.400 263.200 262.500 0.3680 123.300 0.683 168.700 563.40 389.40 154.00 991.00
DSCMET_COMPS 2018-07-19 12:05:00 23.920 24.060 24.040 24.180 23.870 53.570 13.940 13.786 261.200 261.900 261.200 23.640 53.060 13.518 13.705 100.900 263.000 262.300   0.000 0.972 142.700 563.50 390.30 153.70 991.00
DSCMET_COMPS 2018-07-19 12:00:00 23.820 23.960 23.880 24.010 24.220 54.510 14.120 13.426 261.200 261.900 261.200 24.070 51.840 13.558 14.429 100.700 263.100 262.400   0.000 1.452 162.500 565.90 390.60 154.30 990.00
DSCMET_COMPS 2018-07-19 11:55:00 23.510 23.510 23.390 23.980 23.410 55.110 14.000 13.004 261.200 261.900 261.200 23.240 54.130 13.455 13.074 100.300 263.100 262.300 0.5290 55.930 0.922 153.400 565.80 390.10 154.80 988.00
DSCMET_COMPS 2018-07-19 11:50:00 23.590 23.600 23.380 24.120 23.070 54.340 13.860 13.291 261.200 261.900 261.100 22.870 54.890 13.326 12.573 100.100 263.000 262.100 0.9100 84.700 3.102 156.700 564.60 389.60 154.70 988.00
DSCMET_COMPS 2018-07-19 11:45:00 23.860 24.000 23.670 24.150 23.390 54.130 14.040 13.571 261.200 261.900 261.200 23.050 54.490 13.380 12.823 100.500 263.100 262.100 0.7380 89.500 2.991 157.100 563.20 389.80 153.90 987.00
DSCMET_COMPS 2018-07-19 11:40:00 23.850 23.960 23.710 24.050 23.560 54.900 14.250 13.335 261.200 262.100 261.200 23.290 53.990 13.461 13.153 100.600 263.100 262.000 0.5390 106.000 1.886 159.400 560.60 388.70 153.20 982.00
DSCMET_COMPS 2018-07-19 11:35:00 23.730 23.690 23.480 23.850 23.210 54.770 14.110 13.277 261.200 262.000 261.200 22.890 54.950 13.361 12.571 100.500 263.000 262.000 0.7780 62.860 2.262 145.400 557.70 388.30 151.90 979.00
DSCMET_COMPS 2018-07-19 11:30:00 23.660 23.480 23.500 23.570 23.350 55.440 14.230 13.026 261.200 262.000 261.200 23.070 54.660 13.447 12.790 100.600 263.200 262.200 0.6810 23.230 1.690 177.400 561.10 389.40 152.70 976.00
DSCMET_COMPS 2018-07-19 11:25:00 23.400 23.360 23.110 23.450 22.840 54.800 13.810 13.008 261.200 261.900 261.200 22.680 55.430 13.299 12.280 99.600 263.000 262.100 0.4320 88.400 2.753 172.600 559.80 390.00 152.30 973.00
DSCMET_COMPS 2018-07-19 11:20:00 23.490 23.430 23.390 23.370 23.270 55.100 13.970 12.992 261.500 262.000 261.200 22.950 54.700 13.347 12.687 99.800 263.300 262.100 0.5090 38.100 2.461 177.900 555.70 388.40 150.50 967.00
DSCMET_COMPS 2018-07-19 11:15:00 23.470 23.440 23.310 23.310 22.940 54.880 13.900 13.039 261.800 262.000 261.200 22.700 55.380 13.304 12.309 99.500 263.100 261.900 0.5440 2.095 2.651 181.500 557.50 388.70 150.90 963.00
DSCMET_COMPS 2018-07-19 11:10:00 23.470 23.550 23.360 23.190 23.190 55.540 14.080 12.849 261.900 262.300 261.200 22.900 54.970 13.376 12.573 99.600 263.200 262.100 0.3950 83.900 2.264 160.400 555.00 389.70 150.10 959.00
DSCMET_COMPS 2018-07-19 11:05:00 23.250 23.400 23.240 23.040 23.270 56.310 14.090 12.460 261.900 262.600 261.200 23.070 54.600 13.430 12.807 99.500 263.200 261.800 0.6240 305.600 2.210 191.500 555.40 389.50 150.90 957.00
DSCMET_COMPS 2018-07-19 11:00:00 22.940 23.110 22.910 22.930 22.880 57.140 14.030 11.996 261.900 262.600 261.200 22.720 55.940 13.477 12.169 99.100 263.400 262.200 0.3690 353.900 1.311 195.500 551.00 387.60 150.20 950.00
DSCMET_COMPS 2018-07-19 10:55:00 22.740 22.990 22.740 22.920 22.450 57.240 13.860 11.824 261.900 262.400 261.200 22.350 56.600 13.312 11.720 98.900 263.200 262.100   0.000 2.792 154.200 549.80 387.50 149.80 946.00
DSCMET_COMPS 2018-07-19 10:50:00 22.710 23.020 22.840 22.910 22.400 57.440 13.890 11.747 261.900 262.600 261.200 22.340 56.600 13.303 11.713 99.100 263.300 262.000   0.000 2.546 171.800 548.40 387.30 149.80 941.00
DSCMET_COMPS 2018-07-19 10:45:00 22.620 22.950 22.940 22.720 22.730 59.380 14.320 11.151 261.900 262.600 261.300 22.570 56.040 13.365 12.031 99.200 263.500 262.000 0.5980 151.700 1.775 178.300 544.50 386.60 148.40 934.00
DSCMET_COMPS 2018-07-19 10:40:00 22.470 22.610 22.510 22.660 22.180 58.590 13.970 11.265 261.900 262.600 261.200 22.300 56.940 13.357 11.593 98.800 263.300 262.000 0.6930 44.530 1.980 174.500 544.10 386.60 147.10 927.00
DSCMET_COMPS 2018-07-19 10:35:00 22.360 22.660 22.560 22.660 22.290 59.070 14.000 11.060 261.900 262.600 261.200 22.370 56.520 13.309 11.756 98.800 263.300 261.700 0.6840 52.190 2.076 182.900 542.60 386.40 146.50 921.00
DSCMET_COMPS 2018-07-19 10:30:00 22.250 22.460 22.400 22.690 22.120 59.190 13.920 10.954 261.900 262.600 261.200 22.160 57.070 13.262 11.460 98.500 263.300 261.900 0.4980 330.800 2.003 219.400 541.70 387.00 145.40 913.00
DSCMET_COMPS 2018-07-19 10:25:00 22.270 22.510 22.510 22.680 22.480 59.660 14.060 10.841 261.900 262.600 261.500 22.530 56.120 13.349 11.980 98.800 263.400 261.800 0.5240 279.500 1.772 195.800 538.20 385.40 145.90 905.00
DSCMET_COMPS 2018-07-19 10:20:00 22.140 22.410 22.430 22.630 22.370 60.740 14.210 10.468 261.900 262.600 261.800 22.430 56.650 13.400 11.764 98.800 263.500 261.900 0.7260 324.000 1.793 206.200 536.50 385.40 144.50 896.00
DSCMET_COMPS 2018-07-19 10:15:00 21.980 22.390 22.320 22.600 22.150 61.690 14.300 10.115 261.900 262.600 261.900 22.400 56.850 13.426 11.688 98.800 263.300 261.900 0.7180 306.000 1.697 228.600 536.30 385.40 144.00 889.00
DSCMET_COMPS 2018-07-19 10:10:00 21.780 22.140 22.210 22.550 22.210 62.360 14.290 9.818 262.300 262.600 261.900 22.710 56.360 13.582 12.046 98.700 263.300 262.300 0.5840 326.000 1.065 221.800 530.40 383.80 142.60 879.00
DSCMET_COMPS 2018-07-19 10:05:00 21.550 22.080 22.220 22.480 22.280 64.740 14.640 9.069 262.600 262.600 261.900 22.520 56.620 13.476 11.837 98.700 263.400 262.200 0.3290 291.400 1.761 211.600 531.50 383.90 141.50 871.00
DSCMET_COMPS 2018-07-19 10:00:00 21.540 22.040 21.960 22.480 22.050 63.160 14.250 9.469 262.600 262.600 261.900 22.470 57.780 13.741 11.485 98.500 263.500 262.800 0.4670 321.400 0.887 277.900 526.10 383.10 138.70 858.00
DSCMET_COMPS 2018-07-19 09:55:00 21.410 21.960 22.020 22.450 21.800 63.210 14.150 9.382 262.600 262.800 261.900 21.860 58.580 13.382 10.857 98.500 263.300 263.000 0.5280 298.700 2.845 223.400 525.60 382.90 137.80 848.00
DSCMET_COMPS 2018-07-19 09:50:00 21.120 21.740 21.750 22.430 22.150 65.800 14.490 8.567 262.600 263.100 261.900 22.240 58.200 13.637 11.213 98.800 263.300 263.300 0.5170 299.000 1.131 262.000 521.70 381.90 136.40 837.00
DSCMET_COMPS 2018-07-19 09:45:00 20.850 21.390 21.530 22.340 22.060 67.040 14.520 8.121 262.600 263.200 261.900 21.990 58.930 13.595 10.851 99.200 263.300 263.400   0.000 0.932 262.800 517.60 380.40 134.80 828.00
DSCMET_COMPS 2018-07-19 09:40:00 20.770 21.340 21.420 22.150 21.740 67.250 14.490 8.030 262.600 263.200 261.900 21.800 59.210 13.490 10.653 99.600 263.300 263.400 0.4750 303.000 0.959 256.100 516.80 380.80 133.40 817.00
DSCMET_COMPS 2018-07-19 09:35:00 20.530 21.210 21.310 21.860 21.660 66.990 14.210 7.975 262.600 263.200 261.900 21.610 59.270 13.327 10.514 100.300 263.300 263.400 0.4020 304.200 1.030 235.700 511.60 378.40 132.10 805.00
DSCMET_COMPS 2018-07-19 09:30:00 20.260 20.930 21.060 21.490 21.550 69.030 14.410 7.358 262.600 263.200 261.900 21.370 59.810 13.241 10.224 99.500 263.300 263.400 0.4150 284.400 1.231 249.400 507.90 376.50 131.10 793.40
DSCMET_COMPS 2018-07-19 09:25:00 19.860 20.680 20.840 21.200 21.220 70.300 14.310 6.884 262.600 263.200 261.900 21.180 59.770 13.053 10.115 98.900 263.300 263.300 0.4770 292.100 1.262 251.800 504.60 375.50 129.60 783.10
DSCMET_COMPS 2018-07-19 09:20:00 19.570 20.410 20.610 20.960 21.220 72.030 14.410 6.367 262.600 263.200 261.900 21.140 60.510 13.204 9.905 100.400 263.300 263.500 0.2600 309.600 0.505 247.300 501.30 374.40 128.40 771.90
DSCMET_COMPS 2018-07-19 09:15:00 19.120 20.290 20.610 20.590 20.890 74.080 14.410 5.738 262.700 263.200 261.900 20.840 60.790 12.992 9.655 98.700 263.200 263.300 0.3350 317.900 1.227 222.800 498.50 374.60 125.40 760.20
DSCMET_COMPS 2018-07-19 09:10:00 18.960 19.930 20.230 20.230 20.930 74.930 14.430 5.495 262.900 263.200 261.900 21.040 60.510 13.110 9.844 97.100 263.000 263.300 0.3130 257.700 0.635 245.000 496.00 373.50 122.90 746.40
DSCMET_COMPS 2018-07-19 09:05:00 18.690 19.880 20.130 19.920 20.830 75.630 14.310 5.252 262.800 263.200 261.900 20.740 60.840 12.911 9.584 96.600 263.000 263.500 0.2990 257.200 0.945 257.500 492.40 372.50 120.40 732.50
DSCMET_COMPS 2018-07-19 09:00:00 18.800 19.790 19.950 19.610 20.460 74.210 14.130 5.596 263.200 263.200 261.900 20.400 61.310 12.708 9.272 96.400 263.000 263.300 0.3340 303.700 0.950 249.400 488.10 371.30 118.00 720.90
DSCMET_COMPS 2018-07-19 08:55:00 18.780 19.660 19.820 19.290 20.410 72.540 13.750 5.951 263.200 263.200 262.400 20.200 61.660 12.607 9.076 96.000 262.900 263.300 0.4840 322.700 1.355 237.000 483.50 370.50 115.50 707.10
DSCMET_COMPS 2018-07-19 08:50:00 17.720 18.930 19.350 19.020 20.150 79.680 14.180 4.120 263.200 263.700 262.600 20.400 61.300 12.706 9.275 95.800 263.200 263.300 0.3770 303.000 1.255 254.600 480.60 369.50 113.00 694.40
DSCMET_COMPS 2018-07-19 08:45:00 17.400 18.510 19.030 18.720 19.940 81.600 14.230 3.656 263.200 263.900 262.600 20.280 62.120 12.796 9.011 95.500 263.300 263.300 0.3010 248.400 0.686 272.500 474.70 367.80 110.30 679.40
DSCMET_COMPS 2018-07-19 08:40:00 17.040 18.210 18.720 18.390 19.830 82.500 14.040 3.399 263.200 263.900 262.600 20.000 62.260 12.566 8.824 95.400 263.400 263.300 0.2570 270.600 1.018 256.100 468.50 365.60 105.70 664.10
DSCMET_COMPS 2018-07-19 08:35:00 16.690 17.700 18.300 18.070 19.510 83.300 13.870 3.173 263.200 263.900 262.600 20.170 61.730 12.596 9.042 95.200 263.800 263.300   0.000 0.998 256.200 460.50 363.70 100.10 650.70
DSCMET_COMPS 2018-07-19 08:30:00 16.450 17.360 17.950 17.750 19.260 83.500 13.670 3.087 263.200 263.900 262.600 20.160 61.840 12.614 9.011 95.000 264.000 263.300 0.2770 247.400 0.832 261.200 456.00 363.10 97.10 637.30
DSCMET_COMPS 2018-07-19 08:25:00 16.160 17.160 17.660 17.450 18.910 84.000 13.460 2.939 263.200 263.900 262.600 19.920 62.490 12.547 8.727 94.800 263.900 263.300 0.2480 275.500 0.817 258.400 448.90 361.30 90.60 623.30
DSCMET_COMPS 2018-07-19 08:20:00 15.940 16.750 17.230 17.190 18.500 84.200 13.300 2.862 263.200 263.900 262.600 19.630 63.710 12.567 8.292 94.500 263.800 263.300 0.1090 237.300 0.677 271.700 441.40 360.30 83.10 607.90
DSCMET_COMPS 2018-07-19 08:15:00 15.700 16.350 16.940 16.920 18.410 84.800 13.170 2.711 263.200 263.900 262.600 19.520 64.880 12.741 7.970 94.400 263.700 263.000 0.1390 260.200 0.621 276.900 432.80 358.00 75.52 592.40
DSCMET_COMPS 2018-07-19 08:10:00 15.440 16.130 16.680 16.650 18.060 85.300 13.000 2.579 263.200 263.900 262.600 19.540 64.640 12.703 8.035 94.200 263.400 263.000 0.1540 59.320 0.465 261.800 428.30 358.50 66.98 578.00
DSCMET_COMPS 2018-07-19 08:05:00 15.130 15.900 16.410 16.370 17.820 85.900 12.800 2.425 263.200 263.900 262.700 19.530 65.270 12.842 7.887 94.100 263.600 263.300 0.1220 83.700 0.220 283.200 419.20 355.20 56.49 552.30
DSCMET_COMPS 2018-07-19 08:00:00 14.850 15.640 16.150 16.100 17.530 87.000 12.730 2.195 263.200 263.900 262.700 19.200 65.220 12.517 7.738 93.900 263.700 263.400 0.0680 55.560 0.282 161.500 412.40 352.00 48.71 540.90
DSCMET_COMPS 2018-07-19 07:55:00 14.710 15.430 15.950 15.840 17.270 87.800 12.720 2.042 263.200 263.900 263.100 19.140 66.590 12.777 7.405 93.700 263.400 263.600 0.1840 80.700 0.111 17.180 406.70 351.00 42.17 530.20
DSCMET_COMPS 2018-07-19 07:50:00 14.520 15.150 15.630 15.600 17.150 88.400 12.640 1.918 263.200 263.900 263.200 18.520 68.020 12.510 6.819 93.500 263.100 263.700 0.1200 67.060 0.241 288.300 401.70 349.50 35.29 514.60
DSCMET_COMPS 2018-07-19 07:45:00 14.180 14.900 15.340 15.370 16.810 89.000 12.410 1.779 263.200 263.900 263.200 18.310 67.760 12.252 6.784 93.300 263.100 263.700 0.0810 75.070 0.239 136.600 397.50 348.10 30.17 498.50
DSCMET_COMPS 2018-07-19 07:40:00 14.000 14.670 15.130 15.150 16.550 89.600 12.340 1.662 263.200 263.900 263.200 18.210 68.090 12.230 6.673 93.200 263.500 263.700 0.1180 78.790 0.278 146.700 393.10 346.00 24.25 482.40
DSCMET_COMPS 2018-07-19 07:35:00 13.860 14.420 14.840 14.920 16.350 89.800 12.230 1.616 263.200 263.900 263.200 18.250 68.340 12.324 6.637 93.200 263.400 264.000 0.1660 80.200 0.164 271.100 389.30 344.50 19.12 466.50
DSCMET_COMPS 2018-07-19 07:30:00 13.680 14.160 14.570 14.710 16.080 90.000 12.080 1.566 263.200 263.900 263.200 18.050 68.960 12.270 6.426 93.100 263.800 264.100   0.000 0.196 230.100 386.00 342.80 14.87 451.20
DSCMET_COMPS 2018-07-19 07:25:00 13.490 13.970 14.390 14.490 15.850 90.200 11.930 1.515 263.200 263.900 263.200 17.800 69.410 12.130 6.234 92.900 263.900 264.100   0.000 0.222 234.300 383.30 341.10 12.38 415.20
DSCMET_COMPS 2018-07-19 07:20:00 13.250 13.740 14.180 14.280 15.570 90.500 11.730 1.446 263.200 263.900 263.200 17.490 69.790 11.917 6.038 92.600 263.900 264.000 0.1050 66.870 0.500 172.800 381.90 337.90 11.31 183.90
DSCMET_COMPS 2018-07-19 07:15:00 13.080 13.570 13.990 14.080 15.420 90.600 11.580 1.415 263.200 263.900 263.200 17.410 70.230 11.935 5.920 92.500 264.200 264.100 0.1550 83.400 0.418 161.200 380.90 333.40 9.18 98.90
DSCMET_COMPS 2018-07-19 07:10:00 12.970 13.380 13.750 13.900 15.090 90.700 11.500 1.390 263.200 263.900 263.200 17.030 73.300 12.220 5.183 92.500 264.600 264.400 0.1730 83.200 0.154 99.600 379.80 331.40 7.63 77.50
DSCMET_COMPS 2018-07-19 07:05:00 12.830 13.160 13.540 13.740 14.670 90.900 11.390 1.348 263.200 263.900 263.200 17.040 73.570 12.285 5.134 92.200 265.000 264.400 0.1210 71.530 0.089 73.340 379.10 329.00 6.43 38.64
DSCMET_COMPS 2018-07-19 07:00:00 12.750 13.020 13.340 13.590 14.440 90.800 11.300 1.355 263.200 263.900 263.200 16.020 76.990 11.990 4.189 92.200 264.700 264.400 0.1870 85.400 0.162 336.900 378.00 328.30 5.32 35.90
DSCMET_COMPS 2018-07-19 06:55:00 12.690 12.870 13.150 13.450 14.150 91.100 11.290 1.306 263.200 263.900 263.200 16.100 76.250 11.921 4.346 92.100 264.800 264.400 0.1130 57.730 0.140 346.100 376.90 327.60 4.41 34.48
DSCMET_COMPS 2018-07-19 06:50:00 12.610 12.700 13.000 13.320 14.080 91.300 11.240 1.270 263.200 263.900 263.200 16.110 76.000 11.881 4.394 91.900 264.800 264.500 0.1570 82.500 0.114 139.700 376.00 326.90 3.64 33.10
DSCMET_COMPS 2018-07-19 06:45:00 12.550 12.620 12.880 13.200 13.710 91.200 11.170 1.280 263.200 263.900 263.200 15.470 78.530 11.757 3.773 91.900 264.800 264.500 0.2410 87.400 0.176 61.770 375.00 326.00 3.04 31.56
DSCMET_COMPS 2018-07-19 06:40:00 12.420 12.550 12.750 13.090 13.490 91.400 11.080 1.240 263.200 263.900 263.200 15.130 79.530 11.618 3.520 91.900 264.800 264.700 0.1790 86.300 0.210 23.920 373.90 325.00 2.06 29.46
DSCMET_COMPS 2018-07-19 06:35:00 12.310 12.470 12.590 12.980 13.300 91.700 11.000 1.188 263.200 263.900 263.200 14.720 81.300 11.552 3.132 91.900 264.800 264.800 0.1540 78.250 0.322 42.270 372.80 324.70 0.96 26.61
DSCMET_COMPS 2018-07-19 06:30:00 12.300 12.380 12.470 12.860 13.250 91.400 10.960 1.230 263.200 263.900 263.200 14.350 82.700 11.448 2.829 91.900 264.700 264.800 0.2140 86.600 0.384 39.740 372.00 323.60 0.12 23.11
DSCMET_COMPS 2018-07-19 06:25:00 12.280 12.340 12.320 12.750 12.980 91.400 10.930 1.229 263.200 263.900 263.200 14.510 82.000 11.476 2.974 91.800 264.700 264.800 0.1960 82.000 0.231 37.520 371.20 323.10 -0.66 19.55
DSCMET_COMPS 2018-07-19 06:20:00 12.280 12.300 12.250 12.650 12.750 91.500 10.950 1.214 263.200 263.900 263.200 14.150 83.800 11.452 2.615 91.600 264.800 264.800   0.000 0.326 35.800 370.70 322.30 -1.27 17.15
DSCMET_COMPS 2018-07-19 06:15:00 12.160 12.210 12.180 12.510 12.910 91.600 10.850 1.191 263.200 263.900 263.200 13.790 85.100 11.332 2.349 91.600 264.800 265.100 0.1200 64.460 0.422 28.830 370.10 322.10 -1.52 15.31
DSCMET_COMPS 2018-07-19 06:10:00 12.120 12.160 12.120 12.390 13.240 91.600 10.820 1.187 263.200 263.900 263.200 13.460 86.600 11.272 2.068 91.600 264.900 265.200 0.1880 85.700 0.562 55.090 369.80 321.80 -1.65 14.19
DSCMET_COMPS 2018-07-19 06:05:00 12.060 12.100 12.080 12.310 13.110 91.900 10.800 1.140 263.200 263.900 263.200 13.220 87.300 11.157 1.930 91.600 264.900 265.200 0.1830 80.800 0.952 45.010 369.40 321.50 -1.67 12.88
DSCMET_COMPS 2018-07-19 06:00:00 12.070 12.070 12.040 12.230 12.880 91.900 10.800 1.141 263.200 263.900 263.200 13.240 87.100 11.142 1.962 91.600 264.900 265.200 0.1420 67.500 0.688 45.360 369.20 321.10 -1.67 11.82
DSCMET_COMPS 2018-07-19 05:55:00 12.100 12.050 12.030 12.140 12.910 92.000 10.840 1.129 263.200 263.900 263.200 13.060 87.900 11.103 1.819 91.600 264.900 265.200 0.1710 79.400 0.708 61.450 369.00 320.90 -1.65 11.08
DSCMET_COMPS 2018-07-19 05:50:00 12.060 12.050 12.020 12.040 12.790 92.400 10.880 1.070 263.000 263.900 263.200 12.910 88.600 11.074 1.697 91.600 265.200 265.200 0.1930 80.600 0.462 41.030 369.00 320.90 -1.71 10.18
DSCMET_COMPS 2018-07-19 05:45:00 12.000 12.030 12.000 11.990 12.440 92.300 10.810 1.080 262.900 263.900 263.200 12.710 89.700 11.063 1.514 91.600 265.200 265.500 0.1650 60.300 0.811 43.490 368.80 320.90 -1.81 9.18
DSCMET_COMPS 2018-07-19 05:40:00 12.060 12.010 11.960 11.990 11.950 91.800 10.790 1.155 262.800 263.900 263.200 12.620 90.400 11.091 1.402 91.600 265.200 265.700 0.2700 347.700 0.325 48.210 368.90 320.70 -1.71 8.27
DSCMET_COMPS 2018-07-19 05:35:00 12.010 12.100 12.020 12.010 11.920 92.100 10.780 1.109 262.800 263.900 263.200 12.310 91.900 11.032 1.159 91.600 265.200 265.900 0.2070 59.530 0.188 79.800 369.00 320.50 -1.81 7.25
DSCMET_COMPS 2018-07-19 05:30:00 11.980 12.090 12.030 12.020 11.930 92.300 10.790 1.078 262.800 263.900 263.000 12.340 92.100 11.095 1.133 91.400 265.200 265.900 0.1770 53.030 0.419 46.090 368.10 320.50 -1.91 6.12
DSCMET_COMPS 2018-07-19 05:25:00 12.020 12.060 12.010 12.060 11.840 92.200 10.800 1.095 262.600 263.900 262.900 12.220 92.500 11.041 1.067 91.400 265.200 265.900 0.1860 299.600 0.302 36.550 367.90 320.60 -1.92 5.14
DSCMET_COMPS 2018-07-19 05:20:00 12.130 12.140 12.040 12.090 11.880 91.800 10.850 1.160 262.600 263.900 262.800 12.230 92.500 11.051 1.068 91.300 265.200 265.900 0.1630 53.620 0.385 60.950 367.70 320.50 -1.96 3.98
DSCMET_COMPS 2018-07-19 05:15:00 12.110 12.170 12.100 12.110 12.030 91.800 10.830 1.158 262.600 263.900 262.700 12.270 92.100 11.025 1.128 91.300 265.200 265.900 0.2310 17.770 0.359 44.400 367.70 320.80 -2.16 2.74
DSCMET_COMPS 2018-07-19 05:10:00 12.100 12.200 12.120 12.130 12.100 91.900 10.840 1.143 262.600 263.900 262.700 12.370 92.000 11.108 1.150 91.300 265.200 265.900   0.000 0.405 49.040 367.30 320.60 -2.28 1.29
DSCMET_COMPS 2018-07-19 05:05:00 12.140 12.240 12.090 12.160 11.950 91.600 10.830 1.189 262.600 263.900 262.600 12.250 92.600 11.087 1.055 91.300 265.200 265.900 0.1650 62.950 0.983 18.190 367.10 320.80 -2.26 0.16
DSCMET_COMPS 2018-07-19 05:00:00 12.240 12.270 12.180 12.190 12.070 91.400 10.890 1.225 262.600 263.900 262.600 12.280 92.200 11.052 1.114 91.300 265.200 265.700 0.2090 4.449 0.169 50.160 367.50 320.60 -2.23 -0.95
DSCMET_COMPS 2018-07-19 04:55:00 12.220 12.260 12.190 12.220 12.160 91.700 10.920 1.181 262.600 263.900 262.600 12.440 91.500 11.095 1.227 91.300 265.200 265.500 0.1790 55.670 0.352 70.950 368.20 320.80 -2.36 -2.12
DSCMET_COMPS 2018-07-19 04:50:00 12.170 12.230 12.170 12.260 12.150 92.100 10.940 1.120 262.600 263.900 262.600 12.500 91.400 11.138 1.246 91.300 265.200 265.800 0.1340 70.010 0.325 76.550 367.90 321.00 -2.56 -3.36
DSCMET_COMPS 2018-07-19 04:45:00 12.290 12.230 12.160 12.310 12.100 91.600 10.960 1.201 262.600 263.900 262.600 12.510 91.600 11.181 1.218 91.200 265.200 265.900 0.2480 15.380 0.422 55.090 368.40 321.20 -2.56 -4.33
DSCMET_COMPS 2018-07-19 04:40:00 12.280 12.340 12.310 12.360 12.100 91.500 10.940 1.214 262.600 263.900 262.600 12.370 92.100 11.124 1.135 91.200 265.100 265.600 0.2610 15.850 0.139 77.710 368.10 321.40 -2.69 -5.28
DSCMET_COMPS 2018-07-19 04:35:00 12.320 12.420 12.350 12.420 12.150 91.400 10.970 1.232 262.600 263.900 262.600 12.530 91.400 11.168 1.249 91.200 264.900 265.500 0.1280 68.760 0.340 67.000 368.20 321.60 -2.73 -5.90
DSCMET_COMPS 2018-07-19 04:30:00 12.450 12.440 12.380 12.470 12.260 91.000 11.020 1.300 262.600 263.900 262.600 12.660 90.900 11.214 1.333 91.200 265.100 265.500 0.1670 30.940 0.524 61.190 368.00 321.70 -2.78 -6.35
DSCMET_COMPS 2018-07-19 04:25:00 12.500 12.520 12.460 12.520 12.310 91.000 11.080 1.304 262.600 263.900 262.600 12.590 91.200 11.194 1.283 90.900 265.000 265.500 0.2050 16.580 0.267 68.570 368.40 322.00 -2.82 -6.47
DSCMET_COMPS 2018-07-19 04:20:00 12.550 12.530 12.460 12.560 12.340 90.800 11.090 1.338 262.600 263.900 262.600 12.660 90.900 11.214 1.333 90.900 264.900 265.500 0.1750 24.890 0.472 56.350 368.30 322.30 -2.86 -6.59
DSCMET_COMPS 2018-07-19 04:15:00 12.550 12.620 12.520 12.620 12.480 90.800 11.110 1.338 262.600 263.900 262.600 12.700 90.800 11.237 1.351 90.900 264.900 265.200 0.2340 9.760 0.227 61.560 369.00 322.80 -2.84 -6.68
DSCMET_COMPS 2018-07-19 04:10:00 12.570 12.700 12.550 12.670 12.460 90.600 11.090 1.369 262.600 263.900 262.600 12.780 90.600 11.282 1.388 90.900 264.900 265.200 0.1730 58.930 0.542 64.220 369.50 322.60 -2.82 -6.83
DSCMET_COMPS 2018-07-19 04:05:00 12.650 12.750 12.670 12.730 12.430 90.500 11.140 1.391 262.600 263.700 262.600 12.820 90.300 11.272 1.436 90.900 264.900 265.200 0.2100 40.260 0.299 72.430 369.70 323.00 -2.84 -6.73
DSCMET_COMPS 2018-07-19 04:00:00 12.690 12.840 12.690 12.770 12.610 90.400 11.180 1.409 262.600 263.700 262.600 13.000 89.500 11.315 1.573 90.900 264.900 265.200   0.000 0.603 57.890 369.40 323.10 -2.88 -6.80
DSCMET_COMPS 2018-07-19 03:55:00 12.760 12.860 12.730 12.830 12.620 90.200 11.220 1.445 262.600 263.500 262.600 13.090 89.300 11.370 1.612 90.900 264.900 265.200 0.1420 64.290 0.810 58.250 369.70 323.60 -2.88 -6.78
DSCMET_COMPS 2018-07-19 03:50:00 12.910 12.900 12.790 12.880 12.700 89.900 11.310 1.504 262.600 263.300 262.600 13.010 89.700 11.359 1.544 90.900 264.900 265.200 0.1820 48.620 0.262 69.940        
DSCMET_COMPS 2018-07-19 03:45:00 12.910 12.880 12.850 12.930 12.770 90.000 11.310 1.489 262.600 263.300 262.600 13.080 89.300 11.361 1.611 90.900 264.900 265.200 0.1850 35.940 0.239 69.090 369.60 323.90 -2.92 -6.97
DSCMET_COMPS 2018-07-19 03:40:00 12.890 12.970 12.920 12.990 12.810 89.800 11.270 1.517 262.600 263.200 262.600 13.160 89.000 11.389 1.665 90.900 264.800 265.000 0.1500 50.690 0.413 61.580 370.50 324.30 -2.79 -6.61
DSCMET_COMPS 2018-07-19 03:35:00 12.970 13.050 12.980 13.040 12.840 89.500 11.300 1.569 262.600 263.200 262.600 13.200 88.900 11.411 1.684 90.800 264.800 264.800 0.1560 71.670 0.459 66.600 370.70 324.40 -2.82 -6.68
DSCMET_COMPS 2018-07-19 03:30:00 13.050 13.080 13.030 13.100 12.960 89.200 11.330 1.623 262.600 263.200 262.600 13.260 88.700 11.436 1.721 90.800 264.700 264.800 0.2090 8.160 0.322 64.600 371.00 324.80 -2.82 -6.63
DSCMET_COMPS 2018-07-19 03:25:00 13.100 13.130 13.080 13.150 13.010 89.100 11.350 1.643 262.600 263.200 262.600 13.380 88.100 11.452 1.827 90.800 264.500 264.800 0.1770 44.790 0.452 70.360 371.80 324.80 -2.81 -6.78
DSCMET_COMPS 2018-07-19 03:20:00 13.140 13.180 13.090 13.200 13.020 89.100 11.390 1.647 262.600 263.200 262.600 13.350 88.400 11.474 1.777 90.800 264.500 264.800 0.2170 15.130 0.413 66.290 372.10 325.00 -2.82 -6.67
DSCMET_COMPS 2018-07-19 03:15:00 13.150 13.190 13.080 13.260 12.950 89.200 11.420 1.633 262.600 263.200 262.600 13.460 87.900 11.497 1.867 90.900 264.500 264.800 0.1620 50.190 0.289 76.300 371.50 325.40 -2.86 -6.72
DSCMET_COMPS 2018-07-19 03:10:00 13.280 13.270 13.160 13.330 13.000 88.600 11.460 1.739 262.600 263.200 262.600 13.470 88.000 11.524 1.853 90.800 264.500 264.800 0.2980 7.963 0.330 84.300 372.00 325.70 -2.95 -6.68
DSCMET_COMPS 2018-07-19 03:05:00 13.320 13.370 13.300 13.390 13.210 88.600 11.490 1.743 262.600 263.200 262.600 13.550 87.600 11.533 1.925 90.900 264.500 264.800 0.1240 66.520 0.440 73.440 372.50 325.90 -2.84 -6.82
DSCMET_COMPS 2018-07-19 03:00:00 13.420 13.450 13.330 13.450 13.210 88.300 11.540 1.801 262.600 263.200 262.600 13.600 87.500 11.565 1.947 90.900 264.500 264.800 0.1770 58.510 0.651 58.200 372.80 325.80 -2.88 -6.73
DSCMET_COMPS 2018-07-19 02:55:00 13.440 13.450 13.400 13.500 13.260 88.200 11.530 1.819 262.600 263.200 262.600 13.650 87.200 11.563 2.000 90.900 264.500 264.800   0.000 0.319 62.920 372.80 326.20 -2.88 -6.91
DSCMET_COMPS 2018-07-19 02:50:00 13.570 13.550 13.420 13.560 13.260 87.600 11.570 1.927 262.600 263.200 262.600 13.780 86.700 11.604 2.096 90.900 264.500 265.100   0.000 0.484 65.130 372.90 326.20 -2.96 -6.81
DSCMET_COMPS 2018-07-19 02:45:00 13.600 13.580 13.510 13.610 13.370 87.800 11.620 1.900 262.600 263.200 262.600 13.760 86.800 11.601 2.077 90.900 264.500 265.400 0.1860 42.070 0.298 70.130 372.90 326.40 -3.00 -6.84
DSCMET_COMPS 2018-07-19 02:40:00 13.600 13.680 13.490 13.660 13.440 87.900 11.650 1.885 262.600 263.200 262.500 13.920 86.300 11.671 2.179 90.900 264.500 265.800 0.2150 76.880 0.835 56.470 372.90 326.60 -2.95 -6.91
DSCMET_COMPS 2018-07-19 02:35:00 13.730 13.670 13.520 13.730 13.430 87.500 11.700 1.963 262.600 263.200 262.000 13.660 87.800 11.676 1.908 90.900 264.500 266.100 0.1650 45.840 0.128 325.300 373.30 326.90 -2.87 -6.76
DSCMET_COMPS 2018-07-19 02:30:00 13.700 13.750 13.700 13.790 13.600 87.300 11.630 1.991 262.600 263.200 261.900 13.790 87.200 11.700 2.018 90.900 264.400 265.700 0.1690 33.930 0.191 76.070 374.00 327.20 -2.86 -6.65
DSCMET_COMPS 2018-07-19 02:25:00 13.780 13.820 13.760 13.850 13.650 87.200 11.700 2.017 262.600 263.200 261.900 13.940 86.300 11.691 2.181 90.900 264.200 265.200 0.1560 40.260 0.259 46.040 374.80 327.50 -2.84 -6.65
DSCMET_COMPS 2018-07-19 02:20:00 13.820 13.870 13.780 13.910 13.650 87.100 11.730 2.038 262.600 263.200 261.900 14.150 85.400 11.738 2.357 90.900 264.200 264.500 0.1390 59.760 0.690 57.440 374.90 327.50 -2.92 -6.82
DSCMET_COMPS 2018-07-19 02:15:00 13.880 14.000 13.840 13.980 13.730 86.800 11.740 2.094 262.600 263.200 261.900 14.250 84.900 11.747 2.453 90.900 264.200 264.500 0.1370 74.960 0.819 55.250 374.70 327.80 -2.88 -6.97
DSCMET_COMPS 2018-07-19 02:10:00 14.060 14.040 13.890 14.050 13.820 86.200 11.800 2.214 262.500 263.200 261.900 14.310 84.700 11.771 2.495 90.900 264.100 264.500 0.1940 51.580 0.790 65.320 374.80 327.90 -2.85 -7.01
DSCMET_COMPS 2018-07-19 02:05:00 14.090 14.140 14.020 14.120 13.870 86.300 11.850 2.203 262.400 263.200 261.900 14.210 85.200 11.762 2.398 90.900 264.100 264.400 0.1790 50.950 0.257 78.890 374.80 328.00 -2.80 -6.71
DSCMET_COMPS 2018-07-19 02:00:00 14.090 14.190 14.100 14.180 13.980 86.200 11.830 2.219 262.100 263.200 261.900 14.380 84.400 11.785 2.556 90.900 264.100 264.100 0.1770 74.380 0.485 67.470 375.40 328.50 -2.86 -6.56
DSCMET_COMPS 2018-07-19 01:55:00 14.130 14.250 14.070 14.250 13.980 86.000 11.840 2.257 261.900 263.200 261.900 14.520 83.800 11.814 2.678 90.900 264.100 264.500 0.1220 75.210 0.900 65.440 375.80 328.90 -2.96 -6.66
DSCMET_COMPS 2018-07-19 01:50:00 14.160 14.330 14.210 14.310 14.080 85.900 11.850 2.277 261.900 263.200 261.900 14.520 84.000 11.851 2.645 90.900 264.100 265.000 0.1940 74.390 0.629 72.530 376.20 329.10 -2.95 -6.80
DSCMET_COMPS 2018-07-19 01:45:00 14.230 14.350 14.290 14.360 14.190 85.700 11.880 2.320 261.900 263.200 261.900 14.490 84.300 11.875 2.591 90.900 264.100 265.700   0.000 0.331 78.630 376.00 329.10 -2.95 -6.96
DSCMET_COMPS 2018-07-19 01:40:00 14.350 14.390 14.350 14.420 14.220 85.600 11.980 2.355 261.900 263.200 261.900 14.400 84.900 11.894 2.477 90.900 264.100 265.900 0.1940 53.650 0.220 61.700 376.50 329.30 -2.96 -6.87
DSCMET_COMPS 2018-07-19 01:35:00 14.410 14.430 14.420 14.480 14.270 85.400 12.010 2.397 261.900 263.200 261.900 14.590 84.000 11.919 2.657 91.000 264.100 264.700 0.1240 61.920 0.556 56.600 376.90 329.50 -3.00 -6.88
DSCMET_COMPS 2018-07-19 01:30:00 14.470 14.490 14.460 14.550 14.290 85.300 12.050 2.422 261.900 263.200 261.900 14.690 83.500 11.926 2.758 91.000 264.100 264.200 0.1770 37.960 0.455 48.240 377.10 329.80 -3.05 -6.97
DSCMET_COMPS 2018-07-19 01:25:00 14.480 14.530 14.480 14.620 14.300 85.000 12.000 2.473 261.900 263.200 261.900 14.660 83.700 11.933 2.719 91.000 264.100 264.700 0.1230 61.390 0.392 53.350 377.40 330.30 -3.08 -7.08
DSCMET_COMPS 2018-07-19 01:20:00 14.500 14.650 14.570 14.690 14.390 85.000 12.010 2.477 261.900 263.200 261.900 14.820 82.800 11.926 2.899 91.200 263.800 264.400 0.1500 44.930 0.105 90.500 377.60 330.50 -3.04 -7.17
DSCMET_COMPS 2018-07-19 01:15:00 14.570 14.720 14.610 14.750 14.500 84.600 12.030 2.554 261.900 263.200 261.900 14.860 82.900 11.983 2.890 91.200 263.800 265.000 0.1490 82.000 0.490 65.160 378.20 330.80 -3.06 -7.02
DSCMET_COMPS 2018-07-19 01:10:00 14.680 14.770 14.720 14.810 14.600 84.300 12.080 2.622 261.900 263.200 261.900 14.770 83.500 12.005 2.772 91.200 263.800 264.700 0.1280 61.830 0.178 53.800 378.30 331.10 -3.00 -7.10
DSCMET_COMPS 2018-07-19 01:05:00 14.760 14.820 14.810 14.860 14.720 84.200 12.140 2.653 261.900 263.200 261.900 14.970 82.500 12.017 2.978 91.200 263.800 265.000 0.0890 62.390 0.352 59.690 379.10 331.40 -2.96 -6.99
DSCMET_COMPS 2018-07-19 01:00:00 14.790 14.840 14.800 14.940 14.650 84.000 12.120 2.692 261.900 263.000 261.900 14.940 82.900 12.062 2.905 91.200 263.800 265.600 0.1550 52.080 0.344 54.590 379.30 331.60 -2.95 -7.01
DSCMET_COMPS 2018-07-19 00:55:00 14.880 14.920 14.850 15.020 14.700 83.800 12.170 2.741 261.900 263.100 261.900 14.970 82.800 12.073 2.927 91.200 263.800 264.800 0.1760 36.620 0.134 81.700 379.90 332.00 -2.99 -6.97
DSCMET_COMPS 2018-07-19 00:50:00 14.950 14.970 14.890 15.110 14.830 83.600 12.220 2.788 261.900 262.800 261.900 15.070 82.300 12.078 3.032 91.200 263.800 263.900 0.1320 57.330 0.260 73.150 379.70 332.10 -2.96 -7.17
DSCMET_COMPS 2018-07-19 00:45:00 15.060 15.090 14.940 15.190 14.930 83.100 12.230 2.893 261.900 262.700 261.900 15.200 81.700 12.094 3.161 91.200 263.800 263.800 0.2340 29.600 0.414 70.310 380.10 332.40 -2.97 -6.86
DSCMET_COMPS 2018-07-19 00:40:00 15.180 15.220 15.070 15.270 14.950 82.900 12.310 2.950 261.900 262.600 261.900 15.330 81.100 12.109 3.292 91.200 263.800 263.800 0.1340 77.540 0.245 79.530 380.50 332.80 -2.96 -6.91
DSCMET_COMPS 2018-07-19 00:35:00 15.280 15.310 15.120 15.350 15.030 82.400 12.310 3.056 261.900 262.600 261.900 15.480 80.500 12.142 3.429 91.200 263.800 264.100   0.000 0.796 62.590 380.80 333.10 -2.91 -6.91
DSCMET_COMPS 2018-07-19 00:30:00 15.420 15.400 15.290 15.420 15.350 82.000 12.390 3.153 261.900 262.600 261.900 15.740 79.340 12.175 3.694 91.300 263.700 264.700 0.1810 88.500 0.459 75.750 381.10 333.50 -2.92 -6.88
DSCMET_COMPS 2018-07-19 00:25:00 15.460 15.400 15.230 15.490 15.320 81.800 12.380 3.197 261.900 262.600 261.900 15.670 79.940 12.221 3.571 91.200 263.500 264.400 0.1210 36.860 0.557 54.260 381.30 333.40 -2.93 -6.85
DSCMET_COMPS 2018-07-19 00:20:00 15.510 15.510 15.430 15.560 15.350 81.700 12.400 3.224 261.900 262.600 261.900 15.610 79.780 12.133 3.586 91.400 263.400 264.500 0.1490 62.660 0.158 69.910 381.70 333.60 -2.86 -7.03
DSCMET_COMPS 2018-07-19 00:15:00 15.650 15.610 15.510 15.630 15.480 81.300 12.470 3.325 261.900 262.600 261.900 15.900 78.440 12.157 3.895 91.500 263.400 263.400 0.1120 78.670 0.690 32.250 382.30 333.90 -2.82 -6.82
DSCMET_COMPS 2018-07-19 00:10:00 15.660 15.690 15.580 15.700 15.610 81.300 12.480 3.327 261.900 262.600 261.900 16.210 77.130 12.202 4.214 91.600 263.400 263.400 0.1720 89.300 1.046 63.230 382.40 334.00 -2.93 -6.96
DSCMET_COMPS 2018-07-19 00:05:00 15.650 15.720 15.610 15.780 15.600 81.200 12.460 3.342 261.900 262.600 261.600 16.240 76.860 12.178 4.272 91.600 263.400 263.500 0.0950 73.050 1.001 61.560 382.80 334.20 -3.01 -7.04
DSCMET_COMPS 2018-07-19 00:00:00 15.720 15.710 15.590 15.860 15.670 81.000 12.480 3.393 261.900 262.600 261.200 16.140 77.660 12.238 4.098 91.600 263.400 263.900 0.0960 56.280 0.594 62.490 382.90 334.40 -3.09 -7.17
DSCMET_COMPS 2018-07-18 23:55:00 15.760 15.820 15.750 15.950 15.720 80.800 12.490 3.438 261.900 262.600 261.200 16.110 77.780 12.232 4.068 91.600 263.400 263.800 0.1230 62.630 0.172 76.830 383.30 334.70 -3.18 -7.37
DSCMET_COMPS 2018-07-18 23:50:00 15.860 15.890 15.810 16.040 15.850 80.600 12.550 3.496 261.900 262.600 261.200 16.350 76.740 12.260 4.324 91.600 263.400 263.400 0.1490 72.320 0.553 59.690 383.60 335.20 -3.08 -7.39
DSCMET_COMPS 2018-07-18 23:45:00 15.950 15.960 15.830 16.130 15.760 80.200 12.560 3.588 261.900 262.600 261.200 16.390 76.700 12.291 4.343 91.600 263.400 263.800 0.1240 66.570 0.735 59.340 384.50 335.60 -2.86 -7.15
DSCMET_COMPS 2018-07-18 23:40:00 16.100 16.000 15.950 16.230 15.900 79.970 12.660 3.665 261.900 262.600 261.200 16.150 78.010 12.316 4.036 91.600 263.400 263.800 0.1770 51.160 0.251 81.500 384.90 336.00 -2.89 -6.96
DSCMET_COMPS 2018-07-18 23:35:00 16.120 16.090 16.070 16.330 16.030 79.600 12.600 3.737 261.900 262.600 261.200 16.330 76.980 12.289 4.274 91.700 263.400 263.200 0.1140 84.000 0.200 88.600 385.30 336.60 -2.97 -6.98
DSCMET_COMPS 2018-07-18 23:30:00 16.180 16.190 16.180 16.420 16.130 79.200 12.590 3.825 261.900 262.600 261.200 16.630 75.940 12.372 4.554 91.900 263.400 263.100   0.000 0.776 68.510 385.50 336.80 -3.15 -7.18
DSCMET_COMPS 2018-07-18 23:25:00 16.300 16.310 16.210 16.500 16.260 78.700 12.600 3.947 261.900 262.600 261.200 16.840 75.180 12.422 4.760 91.900 263.300 263.100   0.000 1.104 61.720 386.00 337.20 -3.18 -7.18
DSCMET_COMPS 2018-07-18 23:20:00 16.360 16.420 16.270 16.610 16.310 78.560 12.640 3.989 261.800 262.600 261.200 16.850 75.100 12.415 4.779 91.900 263.100 263.100 0.2200 38.880 0.891 65.020 386.50 337.10 -3.16 -7.19
DSCMET_COMPS 2018-07-18 23:15:00 16.500 16.460 16.430 16.720 16.300 78.100 12.680 4.111 261.600 262.600 261.200 16.860 75.100 12.425 4.782 91.900 263.100 263.100 0.1370 78.970 0.956 67.470 386.70 337.80 -3.13 -7.42
DSCMET_COMPS 2018-07-18 23:10:00 16.570 16.600 16.540 16.810 16.460 77.830 12.700 4.180 261.200 262.600 261.200 16.890 75.130 12.460 4.785 92.000 263.100 263.100 0.1700 60.960 0.923 60.270 387.40 337.90 -3.09 -7.26
DSCMET_COMPS 2018-07-18 23:05:00 16.680 16.690 16.620 16.910 16.590 77.530 12.750 4.266 261.200 262.600 261.200 17.080 74.120 12.437 5.040 92.200 263.100 263.000 0.1160 82.500 0.601 62.670 387.70 338.10 -3.09 -7.26
DSCMET_COMPS 2018-07-18 23:00:00 16.710 16.770 16.760 17.000 16.740 77.140 12.700 4.348 261.200 262.600 261.200 17.330 72.970 12.440 5.348 92.200 263.000 263.000 0.1540 60.010 0.720 50.350 388.20 338.50 -3.04 -7.38
DSCMET_COMPS 2018-07-18 22:55:00 16.820 16.880 16.850 17.090 16.840 76.700 12.720 4.463 261.200 262.600 261.200 17.360 72.710 12.415 5.409 92.200 263.000 263.000 0.1630 38.880 0.373 56.200 388.30 338.90 -3.01 -7.29
DSCMET_COMPS 2018-07-18 22:50:00 16.880 16.970 16.940 17.170 17.120 76.500 12.740 4.519 261.200 262.400 261.200 17.570 71.790 12.422 5.666 92.200 263.000 262.700 0.0940 85.800 0.900 54.970 388.90 339.20 -2.99 -7.11
DSCMET_COMPS 2018-07-18 22:45:00 16.990 17.070 17.030 17.250 17.080 76.150 12.780 4.618 261.200 262.200 261.200 17.610 71.570 12.414 5.725 92.200 263.000 262.700 0.1370 71.130 0.760 55.160 389.30 339.70 -3.05 -7.10
DSCMET_COMPS 2018-07-18 22:40:00 17.080 17.160 17.170 17.340 17.100 75.880 12.800 4.697 261.200 262.000 261.200 17.630 71.580 12.436 5.730 92.200 263.000 262.700 0.1210 60.370 0.522 54.800 389.50 340.60 -3.26 -7.30
DSCMET_COMPS 2018-07-18 22:35:00 17.180 17.250 17.240 17.430 17.240 75.770 12.890 4.748 261.200 261.900 261.200 17.760 71.040 12.445 5.887 92.300 263.000 262.700 0.1720 49.490 0.950 51.530 390.10 341.00 -3.10 -7.39
DSCMET_COMPS 2018-07-18 22:30:00 17.340 17.330 17.310 17.530 17.320 75.430 12.970 4.864 261.200 261.900 261.200 17.900 70.340 12.428 6.083 92.400 262.900 262.700 0.1480 49.390 0.525 57.230 390.50 341.00 -3.20 -7.37
DSCMET_COMPS 2018-07-18 22:25:00 17.370 17.430 17.340 17.640 17.290 74.960 12.900 4.967 261.200 261.900 261.200 17.830 70.690 12.437 5.985 92.500 262.700 262.400 0.1620 355.700 0.278 55.100 391.00 341.80 -3.22 -7.37
DSCMET_COMPS 2018-07-18 22:20:00 17.520 17.520 17.390 17.770 17.400 74.580 12.970 5.090 261.200 261.900 261.100 18.130 69.340 12.431 6.379 92.500 262.700 262.400   0.000 0.459 62.420 391.80 342.00 -3.14 -7.34
DSCMET_COMPS 2018-07-18 22:15:00 17.570 17.600 17.540 17.880 17.800 74.320 12.960 5.158 261.200 261.900 260.800 18.370 68.480 12.470 6.658 92.500 262.700 262.400 0.0650 88.800 0.947 64.860 392.20 342.80 -3.16 -7.39
DSCMET_COMPS 2018-07-18 22:10:00 17.660 17.640 17.650 18.000 17.760 74.390 13.070 5.173 261.200 261.900 260.500 18.330 68.760 12.494 6.582 92.500 262.700 262.400 0.1350 84.500 0.737 71.930 393.40 343.20 -3.10 -7.27
DSCMET_COMPS 2018-07-18 22:05:00 17.730 17.810 17.790 18.110 17.840 73.780 13.010 5.320 261.200 261.900 260.500 18.290 69.050 12.520 6.505 92.500 262.700 262.300 0.1890 85.300 0.499 74.960 393.60 343.50 -3.02 -7.49
DSCMET_COMPS 2018-07-18 22:00:00 17.810 17.940 17.890 18.220 17.920 73.150 12.950 5.475 261.200 261.900 260.500 18.430 68.480 12.527 6.683 92.500 262.700 262.300 0.1690 85.800 0.337 59.970 394.50 344.00 -3.07 -7.30
DSCMET_COMPS 2018-07-18 21:55:00 17.940 18.010 17.990 18.330 17.920 73.030 13.050 5.545 261.200 261.900 260.500 18.400 68.490 12.501 6.668 92.500 262.700 262.300 0.1150 69.970 0.376 57.350 394.80 345.00 -3.17 -7.47
DSCMET_COMPS 2018-07-18 21:50:00 18.040 18.110 18.080 18.450 17.970 72.770 13.090 5.634 261.200 261.900 260.500 18.400 68.660 12.538 6.632 92.800 262.700 262.300 0.1340 66.300 0.255 63.610 395.50 345.20 -3.15 -7.48
DSCMET_COMPS 2018-07-18 21:45:00 18.140 18.220 18.200 18.570 18.200 72.180 13.060 5.792 261.200 261.900 260.500 18.690 67.380 12.528 7.030 92.900 262.700 262.300 0.1870 61.510 0.631 50.730 395.90 345.70 -3.12 -7.34
DSCMET_COMPS 2018-07-18 21:40:00 18.260 18.340 18.280 18.680 18.360 73.320 13.420 5.597 261.200 261.900 260.500 18.810 67.320 12.629 7.096 92.900 262.700 262.300 0.1540 70.940 0.286 52.000 396.00 346.50 -3.14 -7.28
DSCMET_COMPS 2018-07-18 21:35:00 18.350 18.470 18.430 18.790 18.610 72.230 13.280 5.858 261.200 261.900 260.500 19.120 65.800 12.576 7.571 93.000 262.700 262.300 0.1400 93.300 0.943 60.300 396.40 346.60 -3.21 -7.38
DSCMET_COMPS 2018-07-18 21:30:00 18.420 18.570 18.530 18.900 18.590 70.800 13.040 6.187 261.200 261.900 260.500 19.110 66.020 12.617 7.517 92.900 262.700 262.300 0.0870 77.930 0.760 55.630 396.90 347.10 -3.32 -7.46
DSCMET_COMPS 2018-07-18 21:25:00 18.540 18.670 18.630 19.030 18.580 70.740 13.140 6.247 261.200 261.900 260.500 19.090 66.530 12.715 7.395 93.100 262.400 262.100 0.1230 49.670 0.324 47.800 397.30 347.50 -3.28 -7.66
DSCMET_COMPS 2018-07-18 21:20:00 18.660 18.770 18.760 19.160 18.680 70.440 13.190 6.358 261.200 261.900 260.500 19.300 65.210 12.609 7.788 93.200 262.300 262.000 0.1600 80.400 0.596 46.130 397.90 347.90 -3.24 -7.63
DSCMET_COMPS 2018-07-18 21:15:00 18.720 18.870 18.840 19.300 18.730 70.180 13.200 6.438 261.200 261.900 260.500 19.500 64.310 12.587 8.090 93.200 262.300 262.000 0.1320 68.580 0.479 67.060 398.80 348.30 -3.30 -7.60
DSCMET_COMPS 2018-07-18 21:10:00 18.830 19.040 18.990 19.440 18.970 70.980 13.470 6.309 261.200 261.900 260.500 19.540 64.410 12.649 8.087 93.400 262.300 262.000   0.000 0.724 58.080 399.20 348.50 -3.32 -7.89
DSCMET_COMPS 2018-07-18 21:05:00 19.000 19.150 19.130 19.570 19.220 69.250 13.260 6.756 261.200 261.900 260.500 19.930 62.980 12.675 8.618 93.500 262.300 262.000 0.1290 85.700 0.735 53.570 399.70 349.00 -3.44 -7.85
DSCMET_COMPS 2018-07-18 21:00:00 19.020 19.250 19.240 19.710 19.260 69.910 13.430 6.620 261.200 261.900 260.500 20.020 62.520 12.648 8.774 93.500 262.300 262.000 0.1200 38.590 0.742 61.210 400.30 349.40 -3.34 -7.84
DSCMET_COMPS 2018-07-18 20:55:00 19.170 19.380 19.390 19.860 19.560 70.910 13.780 6.460 261.200 261.900 260.500 20.180 62.200 12.721 8.937 93.500 262.300 262.000 0.2610 87.500 0.353 76.630 401.80 349.80 -3.27 -7.54
DSCMET_COMPS 2018-07-18 20:50:00 19.410 19.520 19.490 20.010 19.560 68.820 13.560 7.028 261.200 261.900 260.500 20.180 61.840 12.633 9.022 93.500 262.300 262.000 0.1650 55.100 0.650 37.600 401.70 350.10 -3.42 -7.78
DSCMET_COMPS 2018-07-18 20:45:00 19.550 19.640 19.550 20.160 19.740 68.060 13.520 7.262 261.200 261.900 260.500 20.320 62.640 12.961 8.909 93.800 262.300 262.000 0.1540 21.750 0.511 42.020 402.20 350.80 -3.49 -7.78
DSCMET_COMPS 2018-07-18 20:40:00 19.530 19.770 19.760 20.320 19.920 69.780 13.880 6.863 261.200 261.900 260.500 20.460 62.860 13.146 8.934 93.800 262.300 261.900 0.1520 47.030 0.259 59.440 402.70 351.00 -3.61 -8.05
DSCMET_COMPS 2018-07-18 20:35:00 19.740 19.960 20.000 20.480 20.040 70.580 14.250 6.769 261.200 261.800 260.500 20.490 60.980 12.711 9.403 93.900 262.000 261.700 0.1770 86.200 0.252 35.790 403.30 351.70 -3.64 -8.26
DSCMET_COMPS 2018-07-18 20:30:00 19.890 20.110 20.150 20.640 20.120 68.020 13.830 7.426 260.800 261.700 260.400 20.740 61.750 13.138 9.361 94.100 262.000 261.600 0.1770 5.826 0.244 32.420 404.00 352.00 -3.63 -8.28
DSCMET_COMPS 2018-07-18 20:25:00 20.130 20.280 20.220 20.830 20.240 66.100 13.620 7.990 260.500 261.200 260.200 20.800 61.650 13.170 9.420 94.200 261.900 261.800 0.2050 34.490 0.173 56.500 405.20 352.80 -3.61 -8.20
DSCMET_COMPS 2018-07-18 20:20:00 20.140 20.470 20.430 21.010 20.500 67.570 13.960 7.648 260.500 261.200 259.800 20.950 61.180 13.194 9.624 94.200 261.900 261.600 0.1870 32.770 0.111 203.300 406.00 353.20 -3.57 -8.27
DSCMET_COMPS 2018-07-18 20:15:00 20.210 20.570 20.560 21.200 20.600 67.290 13.970 7.748 260.500 261.200 259.800 20.880 61.200 13.133 9.578 94.300 261.900 261.400 0.0800 76.420 0.217 39.600 406.80 354.30 -3.85 -8.16
DSCMET_COMPS 2018-07-18 20:10:00 20.370 20.780 20.750 21.390 20.910 66.470 13.930 8.021 260.500 261.200 259.800 21.330 58.860 12.959 10.440 94.500 261.900 261.500 0.2200 71.470 0.787 55.950 407.80 355.20 -3.82 -8.05
DSCMET_COMPS 2018-07-18 20:05:00 20.490 20.930 20.990 21.580 21.120 66.510 14.060 8.071 260.500 261.200 259.800 21.440 59.100 13.124 10.449 94.800 261.900 261.200 0.2060 69.840 0.412 59.670 408.60 355.40 -3.71 -8.00
DSCMET_COMPS 2018-07-18 20:00:00 20.680 21.080 21.090 21.760 21.340 66.560 14.250 8.154 260.500 261.200 259.800 21.610 57.430 12.845 10.989 94.800 261.700 261.200   0.000 0.671 48.560 409.80 356.30 -3.95 -7.65
DSCMET_COMPS 2018-07-18 19:55:00 20.850 21.190 21.210 21.960 21.460 65.400 14.140 8.525 260.500 261.200 259.800 21.770 57.270 12.952 11.139 94.800 261.700 261.200 0.1540 2.515 0.802 43.320 410.80 357.20 -3.86 -7.21
DSCMET_COMPS 2018-07-18 19:50:00 20.840 21.400 21.480 22.170 21.650 66.300 14.340 8.298 260.500 261.200 259.800 22.310 54.740 12.764 12.193 95.100 261.600 261.200 0.2690 80.500 0.699 72.350 412.00 357.80 -3.68 -6.26
DSCMET_COMPS 2018-07-18 19:45:00 21.080 21.650 21.650 22.370 21.940 65.420 14.360 8.641 260.500 261.200 259.800 22.500 53.520 12.596 12.667 95.100 261.500 261.100 0.2360 71.900 0.769 57.640 413.20 358.70 -3.79 -5.45
DSCMET_COMPS 2018-07-18 19:40:00 21.240 21.790 21.860 22.570 22.100 65.010 14.420 8.830 260.500 261.200 259.800 22.450 53.150 12.444 12.729 95.200 261.500 260.900 0.1760 65.750 0.479 35.270 414.50 359.80 -3.60 -4.39
DSCMET_COMPS 2018-07-18 19:35:00 21.390 22.010 22.080 22.760 22.240 63.630 14.230 9.263 260.500 261.200 259.800 22.690 52.870 12.586 12.993 95.400 261.500 260.900 0.1470 79.100 0.496 55.490 415.50 360.40 -3.44 -3.38
DSCMET_COMPS 2018-07-18 19:30:00 21.430 22.170 22.310 22.950 22.550 64.760 14.540 8.997 260.500 261.200 259.800 22.960 51.850 12.538 13.493 95.500 261.500 260.900 0.2790 73.920 0.454 74.930 416.90 361.40 -3.21 -2.02
DSCMET_COMPS 2018-07-18 19:25:00 21.570 22.340 22.400 23.160 22.560 65.280 14.800 8.941 260.500 261.200 259.800 23.240 50.960 12.532 13.977 95.500 261.500 260.800 0.1680 93.000 1.749 76.740 418.20 362.50 -3.43 -0.99
DSCMET_COMPS 2018-07-18 19:20:00 21.840 22.550 22.540 23.410 22.640 63.680 14.670 9.508 260.500 261.200 259.800 23.310 51.060 12.626 14.008 95.700 261.500 260.800 0.1740 52.920 1.231 38.130 419.20 363.20 -3.46 -0.06
DSCMET_COMPS 2018-07-18 19:15:00 21.860 22.690 22.740 23.650 22.960 64.180 14.810 9.389 260.500 261.200 259.800 23.520 49.810 12.442 14.548 95.900 261.500 260.700 0.1590 34.010 0.363 68.790 420.60 364.10 -3.30 0.99
DSCMET_COMPS 2018-07-18 19:10:00 22.080 22.870 22.950 23.860 23.660 64.350 15.060 9.471 260.500 261.200 259.800 24.180 47.050 12.178 15.969 96.100 261.500 260.700 0.2100 105.000 0.587 60.220 421.60 364.50 -3.30 1.76
DSCMET_COMPS 2018-07-18 19:05:00 22.290 23.080 23.120 24.090 23.540 62.720 14.860 10.031 260.500 261.200 259.800 24.140 47.250 12.206 15.871 96.000 261.400 260.600 0.2320 36.810 0.839 51.950 422.80 365.80 -3.30 2.86
DSCMET_COMPS 2018-07-18 19:00:00 22.280 23.210 23.330 24.350 23.560 62.980 14.920 9.955 260.500 261.200 259.800 24.170 47.210 12.220 15.912 96.100 261.100 260.500 0.0940 94.000 0.401 60.200 424.10 366.50 -3.29 3.69
DSCMET_COMPS 2018-07-18 18:55:00 22.430 23.340 23.650 24.590 24.010 63.820 15.260 9.818 260.500 261.200 259.800 24.630 45.140 11.958 16.997 96.400 261.100 260.500 0.2020 85.500 0.286 81.400 425.40 367.70 -3.38 4.67
DSCMET_COMPS 2018-07-18 18:50:00 22.800 23.680 23.930 24.800 24.420 62.420 15.260 10.430 260.500 261.200 259.800 25.010 43.860 11.865 17.792 96.500 261.200 260.500   0.000 0.310 7.861 426.70 368.50 -3.34 5.83
DSCMET_COMPS 2018-07-18 18:45:00 22.980 23.800 24.070 25.030 24.560 61.970 15.320 10.670 260.500 261.200 259.800 25.400 43.250 12.005 18.408 96.800 261.100 260.500 0.2280 93.600 0.400 104.500 427.70 369.30 -3.09 6.80
DSCMET_COMPS 2018-07-18 18:40:00 23.240 24.110 24.370 25.230 25.220 60.170 15.100 11.352 260.500 261.200 259.700 26.290 38.960 11.221 20.870 97.100 261.100 260.500 0.1720 63.780 0.406 109.200 429.10 369.80 -3.04 7.54
DSCMET_COMPS 2018-07-18 18:35:00 23.410 24.240 24.510 25.400 25.480 59.670 15.130 11.613 260.500 261.200 259.500 26.050 40.050 11.424 20.209 97.200 261.100 260.500 0.1790 76.810 0.377 60.720 430.20 370.60 -2.96 8.47
DSCMET_COMPS 2018-07-18 18:30:00 23.430 24.330 24.590 25.590 25.420 59.600 15.130 11.647 260.500 261.100 259.400 25.990 41.550 11.927 19.633 97.300 261.200 260.400 0.2290 94.600 0.628 118.100 431.20 371.50 -3.11 9.07
DSCMET_COMPS 2018-07-18 18:25:00 23.390 24.330 24.710 25.810 25.710 62.130 15.750 10.892 260.200 260.600 259.200 26.480 39.200 11.483 21.022 97.500 261.100 260.400 0.1810 88.700 0.461 83.100 432.50 372.60 -3.02 9.76
DSCMET_COMPS 2018-07-18 18:20:00 24.090 24.820 25.050 25.960 26.160 57.370 15.130 12.788 259.800 260.500 259.200 26.770 38.180 11.343 21.742 97.800 261.300 260.400 0.2680 98.100 0.743 85.900 433.70 373.80 -2.96 10.43
DSCMET_COMPS 2018-07-18 18:15:00 24.310 25.090 25.000 26.260 25.680 54.340 14.520 13.878 259.800 260.500 259.200 26.810 39.220 11.784 21.427 97.900 261.400 260.300 0.1840 332.300 0.463 85.600 435.40 374.90 -2.86 11.12
DSCMET_COMPS 2018-07-18 18:10:00 24.650 25.300 25.270 26.490 26.420 51.370 13.960 15.085 259.800 260.500 259.200 27.170 37.890 11.582 22.363 98.100 261.400 260.200 0.0710 90.400 0.750 149.500 436.60 376.10 -2.86 11.82
DSCMET_COMPS 2018-07-18 18:05:00 24.770 25.460 25.470 26.720 26.660 49.950 13.650 15.637 259.800 260.500 259.200 27.480 37.370 11.647 22.963 98.400 261.400 260.100 0.2850 320.900 0.478 322.200 437.90 377.20 -2.53 12.72
DSCMET_COMPS 2018-07-18 18:00:00 24.710 25.660 25.790 26.910 26.990 52.270 14.300 14.859 259.800 260.500 259.200 28.280 35.400 11.533 24.816 98.700 261.500 260.200 0.1600 309.100 0.801 161.600 439.20 377.40 -2.47 13.30
DSCMET_COMPS 2018-07-18 17:55:00 24.980 25.890 26.170 27.090 27.140 50.880 14.130 15.540 259.800 260.500 259.200 28.280 35.830 11.716 24.651 98.900 261.400 260.400 0.2130 312.600 0.314 97.900 440.50 379.30 -2.29 14.17
DSCMET_COMPS 2018-07-18 17:50:00 24.910 25.750 26.110 27.250 27.150 51.650 14.290 15.232 259.800 260.500 259.200 28.330 35.610 11.667 24.807 99.100 261.400 260.400 0.2890 35.970 0.802 43.810 441.90 380.20 -2.37 14.82
DSCMET_COMPS 2018-07-18 17:45:00 25.060 25.900 26.300 27.420 27.370 51.350 14.340 15.464 259.800 260.500 259.200 28.810 34.830 11.753 25.816 99.100 261.500 260.400   0.000 0.417 179.000 442.20 380.60 -2.66 15.23
DSCMET_COMPS 2018-07-18 17:40:00 25.180 25.930 26.290 27.580 27.300 50.690 14.250 15.787 259.800 260.500 259.200 28.720 35.410 11.924 25.453 99.400 261.600 260.400   0.000 0.696 244.400 443.80 382.10 -2.63 15.73
DSCMET_COMPS 2018-07-18 17:35:00 25.380 26.150 26.730 27.770 27.360 51.430 14.660 15.736 259.800 260.500 259.200 28.570 35.400 11.788 25.237 99.500 261.400 260.400 0.2570 299.300 0.486 122.900 445.00 381.90 -2.73 15.99
DSCMET_COMPS 2018-07-18 17:30:00 25.630 26.580 27.250 27.900 27.750 50.420 14.580 16.303 259.800 260.500 259.200 28.580 34.660 11.477 25.541 99.700 261.400 260.400 0.4380 59.230 0.941 71.220 446.50 383.00 -2.64 16.59
DSCMET_COMPS 2018-07-18 17:25:00 25.910 26.920 27.350 28.000 27.930 49.070 14.420 17.027 259.800 260.500 259.200 28.830 34.490 11.622 25.981 99.800 261.400 260.400 0.4980 278.700 0.985 175.900 447.70 383.40 -2.55 17.16
DSCMET_COMPS 2018-07-18 17:20:00 25.820 26.650 27.130 28.110 28.140 50.120 14.660 16.587 259.800 260.500 259.200 28.830 34.100 11.450 26.136 100.000 261.400 260.200 0.5330 58.150 1.560 148.800 449.70 384.40 -2.51 18.35
DSCMET_COMPS 2018-07-18 17:15:00 25.730 26.740 27.330 28.250 28.220 52.250 15.230 15.794 259.800 260.500 259.200 29.070 33.590 11.432 26.706 100.100 261.400 260.300 0.3310 17.470 1.143 155.800 450.50 385.00 -2.58 19.03
DSCMET_COMPS 2018-07-18 17:10:00 25.910 26.970 27.620 28.350 28.350 51.830 15.270 16.104 259.800 260.500 259.200 29.050 33.800 11.509 26.591 100.300 261.400 260.300 0.3420 35.460 1.019 178.000 452.50 386.00 -2.22 20.77
DSCMET_COMPS 2018-07-18 17:05:00 26.010 26.970 27.640 28.480 28.290 51.090 15.140 16.448 259.800 260.500 259.200 28.850 34.390 11.595 26.051 100.300 261.300 260.400 0.2540 227.600 1.004 129.300 453.80 385.80 -2.79 22.25
DSCMET_COMPS 2018-07-18 17:00:00 26.120 26.940 27.630 28.620 28.500 49.720 14.820 17.019 259.800 260.500 259.200 29.100 33.840 11.570 26.651 100.400 261.400 260.400 0.3830 350.100 1.183 176.800 457.90 388.50 -1.40 25.42
DSCMET_COMPS 2018-07-18 16:55:00 26.270 27.210 27.840 28.740 28.760 50.690 15.250 16.839 259.800 260.500 259.200 29.380 33.840 11.814 27.085 100.500 261.500 260.300 0.4380 123.400 1.687 164.900 458.90 389.30 -2.21 26.46
DSCMET_COMPS 2018-07-18 16:50:00 26.480 27.460 28.010 28.850 28.780 50.670 15.440 17.056 259.800 260.500 259.200 29.450 34.160 12.018 27.063 100.500 261.400 260.400 0.5450 13.660 1.099 150.800 460.40 390.30 -1.32 28.19
DSCMET_COMPS 2018-07-18 16:45:00 26.600 27.660 28.400 28.940 28.750 50.310 15.440 17.302 259.800 260.500 259.200 29.280 34.360 11.958 26.718 100.700 261.400 260.500 0.3890 321.200 0.859 168.400 462.40 390.80 -1.52 28.87
DSCMET_COMPS 2018-07-18 16:40:00 27.230 28.400 28.610 29.000 28.750 43.660 13.790 20.357 259.800 260.500 259.200 28.940 34.670 11.797 26.075 100.700 261.400 260.400 0.6560 108.300 1.830 173.600 464.50 394.90 -1.14 145.70
DSCMET_COMPS 2018-07-18 16:35:00 26.790 27.860 28.420 29.060 28.820 48.970 15.190 17.969 259.800 260.500 259.200 29.090 34.140 11.695 26.515 101.100 261.400 260.400   0.000 1.826 181.800 466.50 393.70 0.34 386.70
DSCMET_COMPS 2018-07-18 16:30:00 27.010 28.070 28.620 29.120 29.150 47.800 15.010 18.619 259.800 260.500 259.200 29.190 34.490 11.937 26.527 101.000 261.400 260.400 0.3380 190.900 1.580 175.800 469.20 399.50 3.37 336.00
DSCMET_COMPS 2018-07-18 16:25:00 27.660 28.670 28.920 29.180 29.020 43.230 14.050 21.035 259.800 260.500 259.200 28.980 34.730 11.858 26.111 100.700 261.500 260.400 0.5950 106.400 2.145 165.200 473.10 404.00 6.69 398.40
DSCMET_COMPS 2018-07-18 16:20:00 27.470 28.540 28.870 29.210 28.950 42.610 13.650 21.030 259.800 260.500 259.200 29.020 34.640 11.854 26.208 100.400 261.400 260.400 1.0220 137.800 3.020 170.900 478.80 400.40 11.27 51.51
DSCMET_COMPS 2018-07-18 16:15:00 27.200 28.210 28.540 29.270 29.180 45.700 14.490 19.585 259.800 260.500 259.200 29.190 34.280 11.844 26.612 100.400 261.400 260.400 0.7040 156.400 2.401 160.300 481.00 399.30 11.98 265.50
DSCMET_COMPS 2018-07-18 16:10:00 27.230 28.100 28.490 29.330 29.560 47.380 15.080 19.013 259.800 260.500 259.200 29.570 34.320 12.194 27.185 100.500 261.400 260.500 0.2950 269.300 0.929 185.900 484.50 403.40 14.42 359.90
DSCMET_COMPS 2018-07-18 16:05:00 27.590 28.620 28.860 29.400 28.980 44.700 14.480 20.406 259.800 260.500 259.200 28.960 35.010 11.962 25.969 100.400 261.400 260.500 0.4380 344.200 1.754 156.600 489.60 408.90 20.45 477.20
DSCMET_COMPS 2018-07-18 16:00:00 28.110 29.000 28.990 29.490 28.970 40.430 13.420 22.659 259.800 260.500 259.200 28.950 34.620 11.784 26.110 101.400 261.300 260.400 1.0190 139.000 2.522 175.000 496.20 410.00 28.75 573.00
DSCMET_COMPS 2018-07-18 15:55:00 28.180 28.970 29.130 29.580 29.110 40.720 13.600 22.640 259.800 260.500 259.200 29.040 34.160 11.660 26.431 102.700 261.400 260.400 0.6060 139.200 2.579 175.500 503.60 409.60 38.80 592.70
DSCMET_COMPS 2018-07-18 15:50:00 27.890 28.780 29.000 29.650 29.380 43.290 14.270 21.296 259.800 260.500 259.200 29.580 33.710 11.931 27.453 102.400 261.400 260.600 0.6030 152.400 1.593 173.400 510.80 410.80 48.74 606.10
DSCMET_COMPS 2018-07-18 15:45:00 28.290 29.060 29.190 29.720 29.090 40.890 13.750 22.720 259.800 260.500 259.200 29.030 34.670 11.876 26.211 101.900 261.400 260.700 0.2860 80.800 1.453 163.600 517.10 409.90 59.90 621.70
DSCMET_COMPS 2018-07-18 15:40:00 28.260 29.080 29.260 29.790 29.180 40.630 13.640 22.780 259.800 260.500 259.200 29.070 34.510 11.840 26.336 102.300 261.400 260.400 1.1160 134.900 2.620 178.700 531.20 413.30 68.66 636.70
DSCMET_COMPS 2018-07-18 15:35:00 28.480 29.260 29.380 29.830 29.500 40.310 13.710 23.197 259.800 260.500 259.200 29.300 34.420 12.002 26.724 108.800 261.400 260.400 0.7240 149.400 2.206 182.600 531.80 411.60 76.00 649.10
DSCMET_COMPS 2018-07-18 15:30:00 28.120 29.080 29.320 29.830 29.710 43.540 14.580 21.488 259.800 260.500 259.200 29.510 33.560 11.802 27.404 110.100 261.300 260.500 0.4400 88.600 2.084 162.700 541.60 413.40 81.40 663.40
DSCMET_COMPS 2018-07-18 15:25:00 28.180 29.170 29.390 29.770 29.780 43.140 14.490 21.716 259.800 260.500 259.200 29.480 33.800 11.884 27.258 107.900 261.300 260.500   0.000 1.933 161.900 548.40 415.20 87.20 680.10
DSCMET_COMPS 2018-07-18 15:20:00 28.060 28.850 29.190 29.710 30.030 43.330 14.450 21.493 259.700 260.500 259.200 29.850 33.540 12.089 27.954 104.700 261.400 260.700 0.2760 145.400 1.058 168.900 549.60 415.80 93.40 690.70
DSCMET_COMPS 2018-07-18 15:15:00 28.200 29.020 29.280 29.610 29.960 41.220 13.800 22.475 259.200 260.500 259.200 29.330 33.840 11.771 27.007 101.300 261.400 260.600 0.4040 115.900 1.791 157.400 553.50 415.70 97.70 701.20
DSCMET_COMPS 2018-07-18 15:10:00 28.460 29.080 29.180 29.580 29.300 39.230 13.270 23.590 259.200 260.500 259.200 29.110 33.680 11.507 26.731 101.600 261.200 260.500 0.4600 22.420 1.738 167.600 556.20 415.10 101.40 715.60
DSCMET_COMPS 2018-07-18 15:05:00 28.540 29.120 29.170 29.690 28.920 38.110 12.900 24.136 259.200 260.500 259.200 28.740 33.830 11.251 26.106 95.800 261.000 260.500 1.8310 132.400 4.194 166.800 562.30 416.50 105.40 728.50
DSCMET_COMPS 2018-07-18 15:00:00 28.680 29.170 29.230 29.870 28.890 37.130 12.620 24.718 259.200 260.500 259.200 28.830 33.920 11.370 26.207 95.600 260.900 260.400 2.2640 137.500 4.086 182.100 565.50 417.60 108.70 739.90
DSCMET_COMPS 2018-07-18 14:55:00 28.920 29.400 29.410 30.020 29.140 36.650 12.640 25.255 259.300 260.500 259.200 28.840 33.740 11.298 26.293 95.900 261.000 260.400 1.8630 135.400 4.595 168.600 566.50 416.90 111.50 749.50
DSCMET_COMPS 2018-07-18 14:50:00 28.740 29.480 29.600 30.120 29.460 37.760 12.930 24.556 259.800 260.500 259.200 29.070 32.650 11.004 27.084 97.500 261.100 260.500 1.7700 127.500 4.147 154.100        
DSCMET_COMPS 2018-07-18 14:45:00 28.540 29.440 29.580 30.150 29.740 39.080 13.280 23.758 259.600 260.500 259.200 29.320 32.340 11.078 27.604 97.400 261.200 260.600 1.4180 149.200 2.817 191.800 574.40 420.90 115.90 775.70
DSCMET_COMPS 2018-07-18 14:40:00 28.790 29.510 29.540 30.230 29.880 38.410 13.240 24.370 259.800 260.500 259.200 29.230 33.060 11.331 27.169 96.800 261.300 260.700 0.7210 125.500 2.029 144.800 575.70 420.60 116.90 783.40
DSCMET_COMPS 2018-07-18 14:35:00 28.760 29.510 29.710 30.390 29.340 38.160 13.120 24.426 259.800 260.500 259.200 29.130 32.960 11.199 27.053 97.000 261.200 260.500 1.5210 144.100 3.449 172.300 576.70 420.40 118.00 793.50
DSCMET_COMPS 2018-07-18 14:30:00 28.760 29.430 29.660 30.460 29.590 37.780 12.960 24.576 259.600 260.500 259.200 29.270 32.640 11.173 27.402 97.300 261.100 260.600 1.0710 153.000 2.759 186.000 579.90 422.40 119.20 805.00
DSCMET_COMPS 2018-07-18 14:25:00 28.900 29.750 29.980 30.450 30.080 38.050 13.200 24.669 259.800 260.500 259.200 29.610 32.080 11.208 28.176 97.600 261.400 260.800 0.8400 159.200 1.903 187.300 583.90 424.70 121.70 819.00
DSCMET_COMPS 2018-07-18 14:20:00 28.870 29.640 29.870 30.430 29.720 36.830 12.670 25.111 259.800 260.500 259.200 29.300 32.100 10.948 27.670 97.100 261.100 260.700 0.9250 146.300 1.854 169.000 582.70 423.20 124.30 824.00
DSCMET_COMPS 2018-07-18 14:15:00 28.720 29.590 29.910 30.350 30.260 38.450 13.190 24.255 259.800 260.500 259.200 29.440 32.040 11.041 27.918 96.300 261.300 260.800   0.000 1.518 168.200 582.00 421.30 124.40 835.00
DSCMET_COMPS 2018-07-18 14:10:00 28.730 29.640 29.950 30.180 30.200 39.120 13.470 24.005 259.800 260.500 259.200 29.430 32.090 11.056 27.882 95.700 261.300 260.800 0.8180 161.100 2.070 189.600 584.30 421.90 127.50 845.00
DSCMET_COMPS 2018-07-18 14:05:00 28.900 29.490 29.680 30.030 30.470 36.900 12.720 25.127 259.800 260.500 259.200 29.490 32.670 11.378 27.739 95.100 261.400 260.800 0.7730 123.900 1.957 161.300 584.20 420.70 129.60 855.00
DSCMET_COMPS 2018-07-18 14:00:00 28.940 29.550 29.690 30.020 29.730 36.340 12.520 25.408 259.800 260.500 259.200 29.390 33.190 11.530 27.367 94.800 261.500 260.900 0.6150 108.000 1.312 173.400 586.90 421.70 133.00 865.00
DSCMET_COMPS 2018-07-18 13:55:00 29.190 29.580 29.600 29.990 29.490 36.770 12.930 25.604 259.800 260.500 259.200 28.950 33.710 11.381 26.473 95.000 260.900 260.800 0.8510 175.000 2.469 198.200 584.80 420.80 133.90 874.00
DSCMET_COMPS 2018-07-18 13:50:00 29.080 29.490 29.530 29.900 29.860 37.340 13.060 25.212 259.800 260.500 259.200 29.370 33.300 11.562 27.291 97.900 260.900 260.800 0.7940 317.500 1.835 252.700 583.00 418.20 134.50 882.00
DSCMET_COMPS 2018-07-18 13:45:00 28.950 29.360 29.450 29.800 30.010 37.600 13.050 24.920 259.800 260.500 259.200 29.470 32.980 11.503 27.580 105.200 260.700 261.000 0.4500 306.200 0.989 276.800 586.50 419.30 136.30 889.00
DSCMET_COMPS 2018-07-18 13:40:00 28.920 29.350 29.350 29.720 29.620 37.700 13.070 24.837 259.800 260.500 259.200 29.140 33.530 11.466 26.838 103.400 260.600 261.000 0.5750 348.300 0.865 218.700 588.20 419.30 138.50 899.00
DSCMET_COMPS 2018-07-18 13:35:00 28.780 29.190 29.260 29.650 29.360 38.860 13.420 24.178 259.800 260.500 259.300 28.580 34.900 11.581 25.447 99.100 260.900 260.900 0.5910 35.350 1.614 221.400 584.30 417.20 139.40 907.00
DSCMET_COMPS 2018-07-18 13:30:00 28.700 28.880 29.080 29.620 29.080 38.440 13.180 24.231 259.800 260.500 259.300 28.310 36.000 11.814 24.628 100.600 261.200 260.800 0.7110 318.800 1.707 247.300 583.90 417.60 139.70 912.00
DSCMET_COMPS 2018-07-18 13:25:00 28.790 28.910 28.960 29.670 28.840 38.770 13.390 24.227 259.800 260.500 259.200 28.220 36.340 11.877 24.370 92.800 261.000 260.800 0.9600 314.300 1.976 244.400 586.10 417.60 140.50 915.00
DSCMET_COMPS 2018-07-18 13:20:00 28.800 28.800 28.930 29.740 29.160 39.090 13.520 24.115 259.800 260.500 259.200 28.440 35.850 11.865 24.873 108.000 261.000 260.900 0.7530 320.500 1.802 249.500 584.70 416.10 141.10 922.00
DSCMET_COMPS 2018-07-18 13:15:00 28.840 28.950 29.060 29.740 29.140 38.830 13.460 24.274 259.800 260.500 259.500 28.460 35.830 11.874 24.910 110.000 261.500 260.900 0.7630 328.800 1.582 249.900 584.90 417.30 141.10 926.00
DSCMET_COMPS 2018-07-18 13:10:00 28.800 28.910 28.950 29.570 29.320 38.650 13.350 24.289 259.800 260.600 259.700 28.700 35.660 12.013 25.326 108.600 261.700 261.100   0.000 1.479 244.900 586.50 417.70 141.20 933.00
DSCMET_COMPS 2018-07-18 13:05:00 28.680 28.870 28.870 29.370 28.940 39.000 13.380 23.983 259.800 260.800 259.800 28.360 35.950 11.837 24.719 108.100 261.900 261.000   0.000 1.057 224.100 590.30 418.90 143.00 938.00
DSCMET_COMPS 2018-07-18 13:00:00 28.550 28.800 28.850 29.290 29.020 39.590 13.500 23.573 259.800 260.800 259.800 28.380 36.250 11.980 24.632 107.900 262.100 261.000 0.6700 309.800 1.604 244.400 587.60 417.00 143.60 941.00
DSCMET_COMPS 2018-07-18 12:55:00 28.610 28.880 28.880 29.190 28.720 39.320 13.450 23.761 259.800 261.100 259.800 28.240 36.600 12.003 24.298 110.400 262.100 261.100 0.5310 300.400 1.437 231.900 587.60 417.40 144.20 946.00
DSCMET_COMPS 2018-07-18 12:50:00 28.530 28.640 28.630 29.130 28.540 39.390 13.400 23.623 259.900 261.100 259.200 27.970 37.290 12.048 23.659 118.600 261.800 261.000 0.6730 23.160 1.674 208.400 588.10 416.70 144.90 949.00
DSCMET_COMPS 2018-07-18 12:45:00 28.460 28.500 28.710 29.030 28.780 39.620 13.430 23.438 259.900 261.200 259.500 28.090 36.780 11.945 24.019 118.400 262.000 261.000 0.6560 311.100 1.854 240.200 588.80 416.80 146.50 953.00
DSCMET_COMPS 2018-07-18 12:40:00 28.130 28.400 28.590 28.940 28.760 39.750 13.180 22.944 259.900 261.200 259.800 27.980 36.980 11.930 23.790 118.300 262.000 261.000 0.9700 319.800 1.365 263.600 587.90 415.80 146.10 956.00
DSCMET_COMPS 2018-07-18 12:35:00 28.060 28.350 28.490 28.850 28.830 41.150 13.650 22.320 260.000 261.200 259.800 28.250 36.490 11.966 24.355 112.000 262.000 260.900 0.7120 300.700 1.167 248.800 586.20 415.30 147.30 959.00
DSCMET_COMPS 2018-07-18 12:30:00 28.110 28.300 28.340 28.760 28.670 39.590 13.100 22.978 260.000 261.200 259.800 28.310 36.510 12.027 24.432 105.400 262.000 261.000 0.4340 58.600 0.775 215.900 584.40 414.40 147.20 960.00
DSCMET_COMPS 2018-07-18 12:25:00 28.270 28.450 28.410 28.580 28.700 40.060 13.430 23.012 260.500 261.200 259.800 28.170 37.060 12.131 24.024 103.800 262.000 261.200 0.4630 122.600 1.076 217.700 585.20 414.00 148.40 963.00
DSCMET_COMPS 2018-07-18 12:20:00 27.860 28.050 28.230 28.410 28.300 41.300 13.520 22.005 260.400 261.200 259.800 27.760 37.810 12.072 23.178 102.900 262.000 261.100 0.5120 36.410 1.009 193.500 584.60 413.90 148.60 965.00
DSCMET_COMPS 2018-07-18 12:15:00 27.740 27.860 28.040 28.260 28.060 41.070 13.330 21.937 260.500 261.200 259.800 27.300 38.470 11.927 22.324 102.400 262.100 261.000 0.7840 312.900 1.473 253.100 584.70 413.80 149.50 969.00
DSCMET_COMPS 2018-07-18 12:10:00 27.590 27.700 27.860 28.090 27.870 41.290 13.280 21.665 260.500 261.200 259.800 27.170 38.840 11.957 22.021 102.400 262.200 261.100 0.7160 305.200 1.289 257.400 582.40 412.80 150.10 971.00
DSCMET_COMPS 2018-07-18 12:05:00 27.440 27.630 27.660 27.970 27.620 41.740 13.310 21.311 260.500 261.200 259.800 27.110 38.970 11.954 21.897 120.000 262.200 261.000 0.8730 315.200 1.603 243.500 581.60 411.00 150.20 969.00
DSCMET_COMPS 2018-07-18 12:00:00 27.290 27.400 27.510 27.910 27.500 41.950 13.260 21.049 260.500 261.200 259.800 27.230 39.140 12.127 21.990 112.300 262.200 261.000   0.000 1.248 251.300 577.80 409.60 149.30 969.00
DSCMET_COMPS 2018-07-18 11:55:00 26.970 27.270 27.400 27.810 27.370 42.150 13.040 20.586 260.500 261.200 259.800 26.760 39.630 11.897 21.220 119.000 262.200 260.900 0.6990 304.000 1.857 232.600 575.50 408.50 149.20 970.00
DSCMET_COMPS 2018-07-18 11:50:00 26.960 27.120 27.230 27.720 27.530 42.440 13.140 20.471 260.500 261.200 259.800 26.880 39.410 11.920 21.448 114.600 262.200 260.900 0.8760 314.300 1.256 262.300 576.90 408.40 150.60 972.00
DSCMET_COMPS 2018-07-18 11:45:00 26.790 26.970 27.090 27.630 27.130 43.440 13.340 19.916 260.500 261.200 259.800 26.530 40.020 11.841 20.800 112.600 262.200 260.900 0.6880 323.200 1.616 240.000 574.20 407.10 150.70 970.00
DSCMET_COMPS 2018-07-18 11:40:00 26.700 26.870 26.970 27.440 27.000 43.530 13.300 19.779 260.500 261.200 259.800 26.270 40.580 11.819 20.292 117.000 262.100 260.700 0.9000 328.200 2.109 240.900 573.40 406.70 150.30 966.00
DSCMET_COMPS 2018-07-18 11:35:00 26.430 26.680 26.790 27.070 26.870 43.940 13.200 19.326 260.500 261.200 259.800 26.240 40.830 11.885 20.171 119.200 262.200 260.600 0.7480 325.700 1.264 266.300 572.90 406.60 150.60 964.00
DSCMET_COMPS 2018-07-18 11:30:00 26.200 26.450 26.570 26.790 26.590 44.090 13.030 19.015 260.500 261.200 259.900 26.110 41.010 11.836 19.956 121.400 262.200 260.600 0.8550 316.500 1.321 255.800 569.80 404.60 149.80 962.00
DSCMET_COMPS 2018-07-18 11:25:00 26.140 26.340 26.540 26.580 26.350 43.720 12.860 19.073 260.500 261.200 259.900 25.770 41.440 11.689 19.416 131.100 262.100 260.700 0.9490 319.400 1.566 260.600 567.40 404.00 148.60 957.00
DSCMET_COMPS 2018-07-18 11:20:00 25.980 26.340 26.400 26.430 26.340 44.270 12.900 18.709 260.800 261.200 259.900 25.740 41.100 11.538 19.494 121.400 262.200 260.700 1.0480 309.100 1.868 251.600 569.20 403.50 148.80 956.00
DSCMET_COMPS 2018-07-18 11:15:00 25.820 26.290 26.230 26.330 26.170 44.270 12.760 18.532 260.500 261.200 259.900 25.810 41.190 11.634 19.545 119.300 262.100 260.700 0.4980 300.100 1.322 230.400 569.40 404.20 150.10 953.00
DSCMET_COMPS 2018-07-18 11:10:00 25.640 26.050 26.150 26.200 26.350 46.350 13.290 17.652 260.500 261.200 260.400 25.770 40.880 11.484 19.602 118.100 262.100 260.600 0.6290 301.200 2.088 235.900 566.00 402.00 147.60 947.00
DSCMET_COMPS 2018-07-18 11:05:00 25.700 25.890 25.980 26.040 26.200 45.190 12.960 18.097 260.600 261.200 260.400 25.910 40.960 11.638 19.738 117.000 262.100 260.600 0.4110 123.800 0.920 187.900 564.30 401.50 147.10 943.00
DSCMET_COMPS 2018-07-18 11:00:00 25.360 25.690 25.880 25.850 26.290 45.510 12.760 17.633 260.600 261.200 260.400 25.750 41.040 11.525 19.525 116.000 262.200 260.600 0.4750 313.200 1.440 246.900 564.70 401.10 147.70 940.00
DSCMET_COMPS 2018-07-18 10:55:00 25.270 25.660 25.770 25.660 26.260 45.950 12.830 17.397 261.200 261.200 260.500 25.970 40.320 11.454 20.023 114.200 262.200 260.600 0.5890 314.900 0.877 268.300 561.50 399.50 147.30 936.00
DSCMET_COMPS 2018-07-18 10:50:00 25.030 25.550 25.640 25.470 26.100 46.030 12.630 17.125 261.200 261.800 260.500 25.590 40.900 11.330 19.387 113.300 262.200 260.700   0.000 1.091 236.400 561.60 399.70 147.00 930.00
DSCMET_COMPS 2018-07-18 10:45:00 24.970 25.460 25.430 25.300 25.530 47.950 13.200 16.457 261.200 261.900 260.500 25.340 41.390 11.286 18.943 112.900 262.200 261.000 0.5670 278.700 1.396 246.600 556.80 397.70 145.90 924.00
DSCMET_COMPS 2018-07-18 10:40:00 24.750 25.350 25.270 25.170 25.270 47.180 12.750 16.483 261.200 261.900 260.500 25.180 41.890 11.323 18.604 115.300 262.300 260.600 0.4060 119.400 1.715 175.000 555.80 398.90 146.10 919.00
DSCMET_COMPS 2018-07-18 10:35:00 24.440 25.080 25.250 24.980 25.110 48.910 13.020 15.650 261.200 261.900 260.500 24.930 43.280 11.592 17.891 116.100 262.300 260.600 0.3740 307.300 1.737 230.100 551.80 396.40 145.70 910.00
DSCMET_COMPS 2018-07-18 10:30:00 24.340 24.890 24.870 24.830 24.830 47.800 12.580 15.895 261.200 261.900 260.500 24.930 43.440 11.647 17.840 116.200 262.400 260.600 0.4480 176.700 1.434 213.000 549.60 396.30 144.20 904.00
DSCMET_COMPS 2018-07-18 10:25:00 23.990 24.640 24.750 24.690 25.020 51.070 13.260 14.590 261.200 261.900 260.500 25.060 43.130 11.656 18.077 119.400 262.400 260.700 0.5620 298.600 1.363 236.100 548.20 396.20 143.60 895.00
DSCMET_COMPS 2018-07-18 10:20:00 23.840 24.420 24.560 24.520 24.950 51.330 13.210 14.382 261.200 261.900 260.500 25.070 43.080 11.648 18.104 117.700 262.500 261.100 0.4260 302.800 1.102 245.900 542.80 393.70 143.50 885.00
DSCMET_COMPS 2018-07-18 10:15:00 23.580 24.310 24.420 24.320 24.980 50.580 12.740 14.377 261.400 261.900 260.500 24.850 43.290 11.523 17.802 116.700 262.400 261.000 0.3740 322.200 1.266 238.300 539.80 392.10 142.40 878.00
DSCMET_COMPS 2018-07-18 10:10:00 23.240 24.110 24.220 24.110 24.500 53.100 13.180 13.367 261.900 261.900 260.700 24.550 42.760 11.067 17.650 119.500 262.400 261.200 0.4610 309.900 1.177 252.600 536.30 392.00 139.80 868.00
DSCMET_COMPS 2018-07-18 10:05:00 22.520 23.570 23.810 23.930 24.490 57.450 13.720 11.610 261.900 261.900 261.200 24.720 43.460 11.465 17.612 119.600 262.500 261.500 0.3530 299.600 1.178 245.400 532.90 389.00 138.20 857.00
DSCMET_COMPS 2018-07-18 10:00:00 22.220 23.160 23.430 23.800 24.120 60.880 14.330 10.481 261.900 262.000 261.200 24.590 44.420 11.678 17.179 107.900 262.600 261.700 0.2340 262.700 1.102 240.400 531.90 388.40 138.00 851.00
DSCMET_COMPS 2018-07-18 09:55:00 22.240 23.090 23.270 23.720 23.860 58.830 13.820 11.044 261.900 261.900 261.200 24.470 45.390 11.896 16.758 106.600 262.600 261.900 0.2580 306.500 3.645 269.800 528.60 387.50 136.00 842.00
DSCMET_COMPS 2018-07-18 09:50:00 22.430 23.070 23.220 23.610 23.580 56.060 13.250 11.924 261.900 262.400 261.200 23.700 46.650 11.612 15.633 111.900 262.600 262.300 0.3660 312.200 1.106 278.800 525.30 386.40 134.70 832.00
DSCMET_COMPS 2018-07-18 09:45:00 22.060 22.900 23.080 23.460 23.370 59.240 13.750 10.815 261.900 262.600 261.200 23.280 48.010 11.664 14.854 116.000 262.600 262.500 0.3990 309.800 1.094 266.300 521.10 384.20 132.70 820.00
DSCMET_COMPS 2018-07-18 09:40:00 21.660 22.460 22.660 23.210 23.130 60.730 13.760 10.168 262.200 262.600 261.200 23.120 49.430 11.959 14.309 118.700 262.600 262.600   0.000 1.065 282.900 519.20 383.50 131.80 810.00
DSCMET_COMPS 2018-07-18 09:35:00 20.930 21.980 22.300 22.840 23.020 65.390 14.200 8.570 262.600 262.600 261.200 22.900 51.090 12.258 13.656 117.500 262.600 262.600 0.3840 305.200 0.907 268.100 514.40 381.10 130.20 797.30
DSCMET_COMPS 2018-07-18 09:30:00 20.390 21.470 21.850 22.360 22.760 69.160 14.560 7.386 262.600 262.600 261.200 22.910 49.890 11.907 14.000 115.800 262.600 262.600 0.3280 292.100 0.836 252.900 511.50 380.50 127.90 786.80
DSCMET_COMPS 2018-07-18 09:25:00 20.370 21.510 21.810 21.820 22.420 67.340 14.120 7.813 262.600 262.600 261.600 22.360 50.990 11.732 13.243 113.400 262.600 262.600 0.3670 302.300 1.148 256.000 506.40 378.60 126.00 775.20
DSCMET_COMPS 2018-07-18 09:20:00 19.660 20.940 21.350 21.450 22.360 72.920 14.690 6.199 262.600 262.800 261.900 22.220 52.640 12.085 12.689 111.400 262.600 262.600 0.2640 273.700 1.110 254.800 503.40 377.60 124.90 763.80
DSCMET_COMPS 2018-07-18 09:15:00 19.350 20.470 21.050 21.080 22.170 72.390 14.270 6.200 262.600 263.200 261.900 21.970 53.350 12.058 12.310 110.100 262.600 262.700 0.2280 290.000 1.327 255.600 497.60 376.00 121.30 751.40
DSCMET_COMPS 2018-07-18 09:10:00 19.020 20.150 20.810 20.630 22.050 73.880 14.270 5.746 262.600 263.200 261.900 21.750 53.730 11.962 12.047 109.100 262.600 262.700 0.2280 292.700 1.365 249.900 494.80 374.10 120.30 738.70
DSCMET_COMPS 2018-07-18 09:05:00 18.640 19.830 20.460 20.220 21.720 75.240 14.190 5.319 262.600 263.200 261.900 21.510 54.450 11.941 11.687 106.500 262.300 262.800 0.1980 301.100 1.158 245.800 490.80 373.00 117.00 724.60
DSCMET_COMPS 2018-07-18 09:00:00 18.350 19.360 19.930 19.840 21.490 75.920 14.040 5.080 262.600 263.200 261.900 21.280 55.990 12.151 11.134 107.400 262.400 263.000 0.2290 284.600 0.992 245.700 485.50 371.70 113.50 711.10
DSCMET_COMPS 2018-07-18 08:55:00 18.060 18.930 19.530 19.480 21.140 76.360 13.850 4.897 262.600 263.200 261.900 21.090 56.590 12.136 10.855 111.200 262.600 263.000 0.1050 278.500 0.937 253.700 481.60 370.20 112.70 697.30
DSCMET_COMPS 2018-07-18 08:50:00 17.740 18.630 19.220 19.150 20.700 77.250 13.720 4.619 262.600 263.200 261.900 20.990 57.080 12.173 10.666 106.100 263.000 262.800 0.0790 279.400 0.842 240.300 476.30 367.80 110.30 683.90
DSCMET_COMPS 2018-07-18 08:45:00 17.550 18.390 18.860 18.860 20.350 78.060 13.690 4.401 262.600 263.200 261.900 21.010 58.200 12.487 10.401 99.900 263.000 262.800 0.0470 79.760 0.378 238.100 471.80 366.80 108.20 670.60
DSCMET_COMPS 2018-07-18 08:40:00 17.320 18.120 18.680 18.560 20.120 78.700 13.590 4.211 262.600 263.200 261.900 20.870 58.790 12.510 10.166 96.200 263.200 263.000 0.0960 234.300 0.321 255.700 466.60 365.10 104.50 656.10
DSCMET_COMPS 2018-07-18 08:35:00 17.090 17.830 18.390 18.250 19.800 79.260 13.480 4.041 262.600 263.200 261.900 20.530 58.420 12.096 10.045 99.500 263.500 262.700   0.000 0.623 250.000 461.00 363.30 100.70 642.30
DSCMET_COMPS 2018-07-18 08:30:00 16.770 17.490 17.930 17.970 19.500 79.840 13.280 3.850 262.600 263.200 261.900 20.400 59.210 12.178 9.775 91.500 263.600 262.800 0.0580 262.800 0.700 245.200 455.30 362.10 96.30 627.60
DSCMET_COMPS 2018-07-18 08:25:00 16.510 17.250 17.720 17.710 19.130 80.500 13.150 3.662 262.600 263.200 261.900 20.130 60.360 12.217 9.343 88.000 263.400 263.100 0.0270 246.900 0.654 255.200 448.00 360.20 90.60 612.50
DSCMET_COMPS 2018-07-18 08:20:00 16.310 17.090 17.550 17.450 18.760 80.900 13.040 3.542 262.600 263.200 262.000 19.840 61.620 12.258 8.885 86.200 263.300 262.800 0.0260 166.000 0.443 244.200 441.70 358.90 83.70 598.10
DSCMET_COMPS 2018-07-18 08:15:00 16.090 16.890 17.260 17.200 18.620 81.300 12.910 3.419 262.600 263.200 262.500 19.540 62.290 12.139 8.569 87.800 263.300 262.600 0.0400 247.500 0.670 254.900 433.70 357.70 74.49 583.30
DSCMET_COMPS 2018-07-18 08:10:00 15.890 16.580 16.890 16.960 18.500 82.500 12.920 3.159 262.600 263.200 262.600 19.350 62.510 12.014 8.419 89.800 263.100 262.600 0.1070 241.500 0.727 251.300 427.10 355.80 67.65 567.50
DSCMET_COMPS 2018-07-18 08:05:00 15.640 16.150 16.590 16.730 18.050 83.300 12.820 2.967 263.100 263.200 262.600 19.310 63.730 12.269 8.125 74.680 263.300 262.700 0.0620 279.000 0.433 263.600 420.60 354.10 59.89 552.40
DSCMET_COMPS 2018-07-18 08:00:00 15.410 15.950 16.420 16.510 17.630 83.500 12.650 2.889 262.800 263.300 262.600 19.410 63.740 12.366 8.173 71.770 263.400 262.900 0.0250 271.900 0.269 227.700 415.00 353.00 50.85 536.10
DSCMET_COMPS 2018-07-18 07:55:00 15.200 15.710 16.090 16.300 17.580 84.400 12.600 2.695 262.600 263.300 262.600 18.980 64.690 12.184 7.748 67.060 263.200 263.000 0.0450 244.500 0.367 240.600 409.60 351.00 44.53 519.40
DSCMET_COMPS 2018-07-18 07:50:00 15.000 15.420 15.780 16.100 17.440 84.600 12.440 2.626 262.600 263.300 262.600 18.930 64.430 12.076 7.781 64.110 262.800 263.000 0.1000 273.800 0.375 249.400 405.20 350.00 37.51 504.00
DSCMET_COMPS 2018-07-18 07:45:00 14.830 15.150 15.520 15.960 17.050 84.700 12.290 2.581 262.600 263.300 262.600 18.750 65.510 12.157 7.461 62.090 262.700 263.200 0.1250 267.500 0.284 251.100 400.50 348.40 31.03 487.80
DSCMET_COMPS 2018-07-18 07:40:00 14.560 14.930 15.330 15.850 16.830 86.000 12.260 2.320 262.600 263.300 262.600 18.820 65.660 12.259 7.461 60.530 263.000 263.400 0.0590 254.700 0.235 250.800 396.00 346.60 25.96 472.00
DSCMET_COMPS 2018-07-18 07:35:00 14.270 14.750 15.130 15.700 16.690 86.800 12.110 2.147 262.600 263.400 262.600 18.780 66.040 12.308 7.360 59.850 263.200 263.600 0.0610 57.130 0.137 222.400 392.20 345.40 20.80 455.90
DSCMET_COMPS 2018-07-18 07:30:00 14.090 14.540 14.920 15.540 16.470 87.300 12.020 2.042 262.600 263.400 262.600 18.090 68.740 12.260 6.488 59.670 263.500 263.700 0.0270 31.430 0.096 19.550 389.10 344.10 16.88 440.80
DSCMET_COMPS 2018-07-18 07:25:00 13.930 14.370 14.740 15.260 16.130 87.600 11.920 1.973 262.600 263.500 262.600 18.300 67.860 12.265 6.759 59.390 263.500 263.700   0.000 0.087 101.200 386.50 342.60 14.12 403.90
DSCMET_COMPS 2018-07-18 07:20:00 13.830 14.190 14.520 15.090 15.980 87.700 11.840 1.945 262.600 263.500 262.600 17.900 69.950 12.344 6.163 58.740 263.600 263.700 0.1440 85.500 0.087 61.510 385.80 337.10 12.77 164.70
DSCMET_COMPS 2018-07-18 07:15:00 13.660 14.020 14.340 14.840 15.750 87.900 11.700 1.892 262.600 263.700 262.600 17.840 69.800 12.254 6.170 57.670 263.700 263.700 0.1000 77.210 0.087 58.400 384.60 334.00 10.27 84.20
DSCMET_COMPS 2018-07-18 07:10:00 13.520 13.850 14.200 14.670 15.350 88.300 11.640 1.813 262.600 263.700 262.600 17.190 71.630 12.024 5.563 60.420 264.100 263.700 0.1150 78.260 0.096 20.880 383.30 333.20 8.62 68.37
DSCMET_COMPS 2018-07-18 07:05:00 13.430 13.670 14.020 14.490 15.050 88.700 11.610 1.741 262.600 263.400 262.600 16.900 71.910 11.805 5.408 61.670 264.400 263.700 0.1220 71.470 0.117 52.330 382.50 331.20 7.21 43.90
DSCMET_COMPS 2018-07-18 07:00:00 13.330 13.530 13.860 14.340 14.980 88.900 11.550 1.699 262.600 263.400 262.600 16.160 74.120 11.550 4.754 62.590 264.400 263.700 0.1870 75.370 0.214 65.850 381.40 330.50 6.06 41.47
DSCMET_COMPS 2018-07-18 06:55:00 13.280 13.400 13.710 14.060 14.650 88.900 11.490 1.693 262.600 263.400 262.600 15.960 75.150 11.566 4.506 62.500 264.400 263.800 0.1930 79.250 0.232 54.350 380.30 330.00 5.01 39.92
DSCMET_COMPS 2018-07-18 06:50:00 13.180 13.290 13.540 13.890 14.380 89.100 11.440 1.652 262.600 263.300 262.600 15.520 76.510 11.412 4.142 66.570 264.400 264.100 0.1610 79.800 0.315 34.660 379.30 329.30 4.20 38.39
DSCMET_COMPS 2018-07-18 06:45:00 13.090 13.170 13.380 13.750 14.250 89.000 11.330 1.657 262.600 263.300 262.600 15.190 78.000 11.383 3.798 66.660 264.400 264.100 0.1690 81.700 0.482 49.470 378.40 328.60 3.61 36.70
DSCMET_COMPS 2018-07-18 06:40:00 12.950 13.080 13.230 13.590 14.050 89.100 11.210 1.627 262.600 263.300 262.600 15.020 78.280 11.272 3.708 65.950 264.400 264.100 0.1740 84.700 0.598 45.300 377.30 327.90 2.78 34.54
DSCMET_COMPS 2018-07-18 06:35:00 12.880 13.000 13.070 13.440 14.140 89.200 11.150 1.605 262.600 263.300 262.600 14.950 78.650 11.275 3.629 75.070 264.300 264.100 0.1900 79.530 0.620 53.620 376.20 327.00 1.85 31.81
DSCMET_COMPS 2018-07-18 06:30:00 12.810 12.910 12.960 13.300 14.350 89.300 11.110 1.583 262.600 263.300 262.600 14.500 80.400 11.169 3.236 79.900 264.300 264.100 0.2000 82.200 0.942 52.740 375.00 326.20 0.83 28.26
DSCMET_COMPS 2018-07-18 06:25:00 12.760 12.850 12.880 13.160 14.200 89.200 11.040 1.592 262.600 263.200 262.600 14.340 81.000 11.125 3.105 79.410 264.400 264.100 0.2040 85.700 0.906 50.210 374.30 325.20 0.15 24.54
DSCMET_COMPS 2018-07-18 06:20:00 12.770 12.810 12.800 13.060 13.620 89.100 11.040 1.608 262.600 263.300 262.600 14.390 81.600 11.285 3.016 79.050 264.500 264.200 0.1730 83.000 0.512 42.840 373.70 324.80 -0.50 21.86
DSCMET_COMPS 2018-07-18 06:15:00 12.650 12.750 12.720 12.950 13.620 89.600 10.990 1.522 262.600 263.200 262.600 14.220 81.800 11.156 2.951 78.500 264.500 264.200   0.000 0.517 42.060 373.20 324.40 -0.97 19.71
DSCMET_COMPS 2018-07-18 06:10:00 12.660 12.720 12.660 12.760 13.430 89.400 10.980 1.553 262.600 263.200 262.600 13.910 83.200 11.109 2.670 78.060 264.500 264.200 0.1460 69.390 0.642 47.090 372.40 323.80 -1.15 17.99
DSCMET_COMPS 2018-07-18 06:05:00 12.680 12.680 12.600 12.700 13.410 89.300 10.980 1.569 262.600 263.200 262.600 13.750 84.000 11.097 2.516 77.890 264.500 264.200 0.1790 84.500 0.736 43.000 372.00 323.50 -1.26 16.68
DSCMET_COMPS 2018-07-18 06:00:00 12.670 12.680 12.580 12.650 13.080 89.200 10.940 1.583 262.600 263.200 262.600 13.810 84.700 11.281 2.416 78.260 264.500 264.500 0.1690 83.900 0.358 32.690 371.70 323.10 -1.33 15.39
DSCMET_COMPS 2018-07-18 05:55:00 12.660 12.640 12.530 12.720 13.060 89.500 10.980 1.538 262.600 263.200 262.600 13.550 84.900 11.061 2.344 78.060 264.500 264.500 0.1720 33.010 0.686 39.530 371.50 322.90 -1.36 14.30
DSCMET_COMPS 2018-07-18 05:50:00 12.630 12.650 12.560 12.590 12.830 89.600 10.980 1.520 262.600 263.200 262.600 13.610 84.900 11.120 2.353 77.300 264.500 264.500 0.1960 54.130 0.221 47.560 371.00 322.60 -1.41 12.94
DSCMET_COMPS 2018-07-18 05:45:00 12.540 12.600 12.560 12.540 12.830 90.000 10.960 1.453 262.600 263.200 262.600 13.300 86.200 11.045 2.108 76.670 264.500 264.500 0.1790 73.570 0.483 46.610 370.80 322.10 -1.48 11.69
DSCMET_COMPS 2018-07-18 05:40:00 12.510 12.590 12.570 12.530 12.560 90.000 10.920 1.450 262.600 263.200 262.600 13.130 86.800 10.982 1.994 76.310 264.600 264.800 0.2050 26.210 0.695 46.360 370.20 322.00 -1.56 10.37
DSCMET_COMPS 2018-07-18 05:35:00 12.510 12.570 12.550 12.500 12.440 89.900 10.900 1.465 262.600 263.200 262.600 12.920 88.100 10.999 1.773 76.420 264.500 264.900 0.2160 21.120 0.600 56.640 370.10 321.70 -1.58 9.30
DSCMET_COMPS 2018-07-18 05:30:00 12.550 12.610 12.530 12.490 12.450 89.800 10.940 1.483 262.600 263.200 262.600 12.840 88.600 11.005 1.690 76.210 264.500 264.900 0.2150 27.790 0.388 61.880 369.90 321.80 -1.67 8.04
DSCMET_COMPS 2018-07-18 05:25:00 12.530 12.620 12.550 12.530 12.450 89.900 10.930 1.467 262.600 263.200 262.600 12.850 88.700 11.032 1.676 75.910 264.500 264.900 0.1910 56.540 0.316 66.500 369.90 321.80 -1.67 6.74
DSCMET_COMPS 2018-07-18 05:20:00 12.510 12.580 12.590 12.550 12.450 90.000 10.920 1.450 262.600 263.200 262.600 12.890 88.800 11.089 1.665 74.860 264.500 264.900 0.2000 25.930 0.625 58.770 369.70 321.40 -1.77 5.44
DSCMET_COMPS 2018-07-18 05:15:00 12.570 12.590 12.570 12.620 12.500 89.800 10.950 1.485 262.600 263.200 262.600 12.850 88.700 11.032 1.676 74.930 264.500 264.900 0.2210 342.800 0.443 54.980 369.40 321.50 -1.89 3.89
DSCMET_COMPS 2018-07-18 05:10:00 12.640 12.610 12.580 12.620 12.520 89.300 10.940 1.565 262.600 263.200 262.600 12.870 88.700 11.052 1.678 74.660 264.500 264.900   0.000 0.607 57.850 369.20 321.20 -2.05 2.40
DSCMET_COMPS 2018-07-18 05:05:00 12.650 12.700 12.650 12.630 12.560 89.300 10.950 1.566 262.600 263.200 262.600 12.910 88.500 11.057 1.712 74.610 264.500 264.900   0.000 0.382 70.190 369.00 321.40 -2.23 0.80
DSCMET_COMPS 2018-07-18 05:00:00 12.660 12.730 12.720 12.680 12.550 89.300 10.960 1.567 262.600 263.200 262.500 12.940 88.500 11.087 1.716 74.610 264.500 264.900 0.2170 16.420 0.433 75.420 368.80 321.50 -2.29 -0.67
DSCMET_COMPS 2018-07-18 04:55:00 12.750 12.790 12.740 12.700 12.540 89.200 11.030 1.591 262.600 263.200 262.500 12.980 88.400 11.109 1.735 74.300 264.500 264.900 0.2610 6.707 4.076 56.010 368.50 321.40 -2.42 -1.85
DSCMET_COMPS 2018-07-18 04:50:00 12.740 12.800 12.770 12.690 12.560 89.500 11.070 1.546 262.600 263.200 262.500 13.010 88.300 11.122 1.753 74.460 264.500 264.800 0.2110 16.630 0.603 43.870 368.70 321.70 -2.50 -3.07
DSCMET_COMPS 2018-07-18 04:45:00 12.860 12.840 12.680 12.720 12.680 89.000 11.100 1.632 262.600 263.200 262.100 13.170 87.600 11.160 1.878 74.310 264.500 264.600 0.2420 8.160 0.830 37.130 368.60 322.10 -2.60 -4.26
DSCMET_COMPS 2018-07-18 04:40:00 12.910 12.900 12.760 12.800 12.660 88.800 11.120 1.668 262.600 263.200 261.900 13.220 87.400 11.174 1.914 74.130 264.500 264.500 0.1740 1.349 0.484 67.220 368.60 322.10 -2.70 -5.11
DSCMET_COMPS 2018-07-18 04:35:00 12.990 12.980 12.910 12.880 12.700 88.800 11.200 1.676 262.600 263.200 261.900 13.130 87.700 11.137 1.858 74.260 264.500 264.500 0.2050 42.420 0.297 79.160 368.70 322.20 -2.76 -5.78
DSCMET_COMPS 2018-07-18 04:30:00 12.920 13.050 12.950 12.950 12.840 88.700 11.110 1.684 262.400 263.200 261.900 13.260 87.200 11.179 1.950 74.110 264.300 264.500 0.1650 45.330 0.467 65.920 369.10 322.30 -2.82 -6.27
DSCMET_COMPS 2018-07-18 04:25:00 13.030 13.090 12.980 12.940 12.880 88.400 11.160 1.741 262.100 263.200 261.900 13.240 87.500 11.211 1.902 74.110 264.200 264.500 0.1670 64.150 0.367 57.910 369.30 322.30 -2.73 -6.38
DSCMET_COMPS 2018-07-18 04:20:00 13.110 13.170 13.060 13.050 13.040 88.300 11.230 1.765 262.100 263.200 261.900 13.300 87.200 11.218 1.955 74.130 264.200 264.500 0.1770 22.460 0.449 60.680 369.60 322.10 -2.79 -6.58
DSCMET_COMPS 2018-07-18 04:15:00 13.120 13.170 13.150 13.170 13.180 88.300 11.240 1.766 261.900 263.200 261.900 13.480 86.600 11.291 2.071 74.440 264.200 264.500 0.1730 55.770 0.526 67.530 369.80 322.40 -2.83 -6.64
DSCMET_COMPS 2018-07-18 04:10:00 13.150 13.150 13.140 13.120 13.100 88.200 11.250 1.785 261.900 263.200 261.900 13.480 87.100 11.378 1.993 74.670 264.200 264.500 0.1780 37.720 0.687 57.110 370.00 322.50 -2.79 -6.76
DSCMET_COMPS 2018-07-18 04:05:00 13.210 13.240 13.210 13.110 13.060 88.000 11.280 1.822 261.900 263.200 261.900 13.340 87.600 11.327 1.899 74.650 264.200 264.500 0.2000 24.210 0.187 56.670 370.10 323.00 -2.77 -6.70
DSCMET_COMPS 2018-07-18 04:00:00 13.310 13.320 13.260 13.230 13.140 87.600 11.300 1.895 261.900 263.200 261.900 13.430 87.100 11.329 1.987 74.540 264.200 264.500   0.000 0.249 69.570 370.50 323.00 -2.81 -6.68
DSCMET_COMPS 2018-07-18 03:55:00 13.370 13.420 13.370 13.340 13.160 87.400 11.340 1.933 261.900 263.200 261.900 13.480 87.000 11.361 2.009 74.160 264.200 264.200 0.2370 28.000 0.274 77.560 370.70 323.20 -2.83 -6.84
DSCMET_COMPS 2018-07-18 03:50:00 13.390 13.430 13.410 13.370 13.260 87.400 11.360 1.936 261.900 263.200 261.900 13.600 86.500 11.392 2.103 73.840 264.200 264.200 0.1940 23.810 0.768 61.570 371.40 323.10 -2.84 -6.77
DSCMET_COMPS 2018-07-18 03:45:00 13.470 13.440 13.430 13.450 13.330 87.000 11.370 2.008 261.900 263.200 261.900 13.700 86.000 11.402 2.195 73.890 264.200 264.200 0.2910 12.430 0.629 60.700 371.20 323.10 -2.92 -6.81
DSCMET_COMPS 2018-07-18 03:40:00 13.590 13.600 13.570 13.530 13.300 87.100 11.500 2.008 261.900 263.200 261.900 13.710 86.100 11.430 2.180 73.840 264.200 264.200 0.2020 59.130 0.170 79.260 371.40 323.00 -3.04 -7.15
DSCMET_COMPS 2018-07-18 03:35:00 13.700 13.620 13.610 13.620 13.450 86.900 11.570 2.054 261.900 263.200 261.900 13.810 85.700 11.458 2.258 73.940 264.200 264.200 0.1790 5.076 0.577 56.770 371.20 322.90 -3.03 -7.32
DSCMET_COMPS 2018-07-18 03:30:00 13.700 13.690 13.690 13.670 13.570 86.700 11.530 2.085 261.900 263.200 261.900 13.950 85.000 11.471 2.390 73.950 264.200 264.200 0.2440 13.300 0.299 64.420 371.70 323.30 -3.06 -7.11
DSCMET_COMPS 2018-07-18 03:25:00 13.770 13.750 13.750 13.740 13.700 86.500 11.560 2.126 261.900 263.200 261.900 14.000 84.800 11.485 2.430 74.020 264.200 264.200 0.2280 17.140 0.187 65.830 372.00 323.50 -2.96 -7.18
DSCMET_COMPS 2018-07-18 03:20:00 13.850 13.820 13.800 13.800 13.680 86.300 11.610 2.169 261.900 263.200 261.900 14.060 84.600 11.508 2.471 73.990 264.100 264.100 0.2140 336.300 0.381 70.520 372.40 323.70 -2.97 -7.09
DSCMET_COMPS 2018-07-18 03:15:00 13.890 13.890 13.840 13.760 13.690 86.100 11.620 2.206 261.900 263.200 261.900 14.140 84.400 11.550 2.516 74.050 264.000 264.000 0.1620 39.410 0.719 66.880 372.70 323.90 -3.04 -7.05
DSCMET_COMPS 2018-07-18 03:10:00 14.010 13.970 13.940 13.870 13.740 85.700 11.670 2.287 261.900 263.200 261.900 14.220 84.000 11.557 2.594 73.850 263.800 263.800 0.2020 13.200 0.467 70.550 372.80 324.30 -2.98 -7.21
DSCMET_COMPS 2018-07-18 03:05:00 13.990 14.040 14.000 13.960 13.920 85.600 11.630 2.300 261.900 263.200 261.900 14.280 83.700 11.562 2.653 73.950 263.800 263.800 0.1940 25.020 0.589 56.280 373.40 324.70 -2.91 -6.92
DSCMET_COMPS 2018-07-18 03:00:00 14.040 14.070 14.070 14.020 13.960 85.600 11.670 2.308 261.900 263.200 261.900 14.370 83.400 11.595 2.718 74.200 263.800 263.800 0.1540 55.950 0.679 68.010 374.00 325.30 -2.94 -7.04
DSCMET_COMPS 2018-07-18 02:55:00 14.130 14.160 14.130 14.120 14.020 85.100 11.680 2.402 261.900 262.900 261.900 14.260 84.100 11.614 2.585 74.260 263.800 263.800 0.2310 12.770 0.253 59.790 374.40 325.30 -3.00 -6.98
DSCMET_COMPS 2018-07-18 02:50:00 14.260 14.250 14.220 14.220 14.090 84.900 11.760 2.455 261.900 262.900 261.900 14.450 83.200 11.637 2.765 74.560 263.800 263.800   0.000 0.346 71.820 374.50 325.50 -3.04 -7.07
DSCMET_COMPS 2018-07-18 02:45:00 14.350 14.350 14.300 14.290 14.160 84.600 11.800 2.518 261.900 262.800 261.900 14.570 82.600 11.645 2.886 75.180 263.800 263.800 0.1990 347.100 0.493 65.410 374.80 326.00 -2.92 -7.02
DSCMET_COMPS 2018-07-18 02:40:00 14.470 14.460 14.400 14.360 14.170 84.400 11.890 2.571 261.900 262.600 261.900 14.640 82.300 11.658 2.949 75.260 263.800 263.800 0.2150 37.740 0.459 69.230 375.40 326.30 -2.89 -6.85
DSCMET_COMPS 2018-07-18 02:35:00 14.430 14.460 14.460 14.420 14.320 84.300 11.820 2.580 261.900 262.600 261.900 14.840 81.600 11.724 3.105 75.510 263.800 263.700 0.1510 66.600 0.832 57.870 375.80 326.50 -2.96 -6.97
DSCMET_COMPS 2018-07-18 02:30:00 14.490 14.470 14.500 14.480 14.290 84.200 11.860 2.607 261.900 262.600 261.900 14.840 81.600 11.724 3.105 75.440 263.800 263.500 0.1710 33.930 0.708 59.340 375.80 326.70 -2.95 -7.14
DSCMET_COMPS 2018-07-18 02:25:00 14.580 14.590 14.590 14.610 14.490 83.700 11.870 2.705 261.900 262.600 261.900 14.920 81.300 11.747 3.172 75.700 263.800 263.500 0.2120 26.460 0.598 68.570 376.30 326.90 -2.91 -7.01
DSCMET_COMPS 2018-07-18 02:20:00 14.680 14.720 14.690 14.660 14.460 83.400 11.910 2.773 261.900 262.600 261.800 14.900 81.500 11.764 3.134 76.200 263.800 263.500 0.1930 37.260 0.359 66.030 377.00 327.20 -2.94 -6.91
DSCMET_COMPS 2018-07-18 02:15:00 14.760 14.830 14.770 14.720 14.570 83.200 11.950 2.821 261.900 262.600 261.500 15.000 80.900 11.750 3.257 76.480 263.600 263.500 0.1650 55.110 0.327 71.430 377.60 327.50 -2.94 -6.98
DSCMET_COMPS 2018-07-18 02:10:00 14.840 14.910 14.880 14.810 14.650 82.900 11.970 2.886 261.900 262.600 261.400 15.070 80.900 11.818 3.272 77.260 263.500 263.500 0.1310 67.810 0.489 62.460 377.60 327.90 -2.94 -7.00
DSCMET_COMPS 2018-07-18 02:05:00 14.940 15.010 14.950 14.920 14.790 82.500 11.990 2.973 261.900 262.600 261.200 15.140 80.500 11.811 3.355 77.280 263.500 263.500 0.1230 60.120 0.509 59.720 378.10 328.30 -2.99 -7.04
DSCMET_COMPS 2018-07-18 02:00:00 14.980 15.040 14.980 14.960 14.820 82.200 11.980 3.031 261.900 262.600 261.200 15.200 80.200 11.813 3.420 76.730 263.500 263.500 0.1090 79.830 0.523 49.970 378.00 328.70 -2.95 -7.26
DSCMET_COMPS 2018-07-18 01:55:00 15.070 15.120 15.060 14.990 14.860 81.900 12.020 3.100 261.900 262.600 261.200 15.210 80.200 11.823 3.422 76.940 263.400 263.400 0.1240 58.930 0.215 64.950 378.40 328.70 -2.93 -7.08
DSCMET_COMPS 2018-07-18 01:50:00 15.150 15.230 15.170 15.180 15.050 81.800 12.080 3.134 261.900 262.600 261.200 15.390 79.460 11.858 3.591 76.830 263.400 263.400 0.1130 80.500 0.375 69.090 378.90 329.30 -2.86 -7.19
DSCMET_COMPS 2018-07-18 01:45:00 15.230 15.340 15.240 15.300 15.210 81.700 12.140 3.167 261.900 262.600 261.200 15.480 79.310 11.916 3.639 76.380 263.400 263.400 0.1320 80.100 0.607 64.960 379.30 329.60 -2.99 -7.11
DSCMET_COMPS 2018-07-18 01:40:00 15.310 15.330 15.290 15.350 15.300 81.800 12.230 3.166 261.900 262.600 261.200 15.570 79.070 11.958 3.702 75.830 263.400 263.400   0.000 0.328 69.340 379.40 330.10 -2.91 -7.31
DSCMET_COMPS 2018-07-18 01:35:00 15.330 15.330 15.280 15.220 15.150 81.600 12.220 3.205 261.900 262.600 261.200 15.440 80.000 12.009 3.508 75.530 263.400 263.200 0.1250 74.860 0.234 44.560 379.80 330.20 -2.94 -7.12
DSCMET_COMPS 2018-07-18 01:30:00 15.400 15.450 15.400 15.360 15.250 81.100 12.190 3.307 261.800 262.600 261.200 15.500 79.770 12.024 3.562 75.250 263.400 263.100 0.1980 39.950 0.125 58.570 380.40 330.60 -2.98 -7.03
DSCMET_COMPS 2018-07-18 01:25:00 15.510 15.540 15.500 15.470 15.470 80.900 12.250 3.365 261.500 262.600 261.200 15.790 78.270 12.017 3.898 74.580 263.400 263.100 0.1430 81.000 0.264 74.370 381.20 331.10 -3.02 -7.06
DSCMET_COMPS 2018-07-18 01:20:00 15.600 15.580 15.500 15.490 15.450 80.600 12.280 3.438 261.200 262.600 261.200 15.880 78.110 12.074 3.949 74.520 263.400 263.100 0.0950 81.000 0.630 60.830 381.40 331.80 -2.99 -7.15
DSCMET_COMPS 2018-07-18 01:15:00 15.700 15.720 15.610 15.640 15.560 80.300 12.330 3.514 261.200 262.600 261.200 15.920 77.750 12.042 4.025 74.450 263.400 263.100 0.1660 50.990 0.340 70.700 381.80 332.40 -2.91 -7.06
DSCMET_COMPS 2018-07-18 01:10:00 15.850 15.860 15.780 15.750 15.690 79.880 12.400 3.623 261.200 262.600 261.200 16.060 77.180 12.066 4.165 74.330 263.100 263.100 0.1180 83.000 0.576 72.550 382.30 332.50 -2.94 -6.88
DSCMET_COMPS 2018-07-18 01:05:00 15.930 15.960 15.860 15.860 15.800 79.400 12.380 3.729 261.200 262.600 261.200 16.200 76.710 12.109 4.289 74.020 263.100 263.100 0.1330 76.750 0.911 60.780 382.50 332.60 -2.94 -7.09
DSCMET_COMPS 2018-07-18 01:00:00 16.010 16.050 15.980 15.950 15.950 79.290 12.440 3.768 261.200 262.600 261.200 16.260 76.530 12.132 4.338 73.880 263.100 263.100 0.1960 49.570 0.749 55.730 382.70 333.10 -3.02 -7.21
DSCMET_COMPS 2018-07-18 00:55:00 16.070 16.080 16.100 16.070 15.960 79.140 12.460 3.810 261.200 262.600 261.200 16.380 76.010 12.144 4.469 74.050 263.100 263.100 0.1050 78.270 0.487 61.180 383.10 333.10 -3.05 -7.31
DSCMET_COMPS 2018-07-18 00:50:00 16.180 16.240 16.230 16.110 16.070 78.580 12.470 3.939 261.200 262.500 261.200 16.390 76.000 12.152 4.473 75.360 263.100 262.800 0.1510 28.390 0.445 59.010 383.70 333.50 -3.02 -7.27
DSCMET_COMPS 2018-07-18 00:45:00 16.290 16.320 16.270 16.230 16.190 78.380 12.540 4.004 261.200 262.400 261.200 16.500 75.410 12.140 4.616 75.640 263.100 262.700 0.1350 52.080 0.383 59.290 384.00 333.80 -3.15 -7.44
DSCMET_COMPS 2018-07-18 00:40:00 16.430 16.430 16.330 16.320 16.290 78.240 12.650 4.066 261.200 262.200 261.200 16.660 74.730 12.157 4.792 75.870 263.100 262.700 0.1240 66.240 0.488 58.260 384.60 334.20 -3.12 -7.39
DSCMET_COMPS 2018-07-18 00:35:00 16.500 16.520 16.460 16.490 16.430 78.410 12.750 4.052 261.200 262.000 261.200 16.810 74.240 12.202 4.931 76.470 263.100 262.700   0.000 0.542 62.550 385.20 334.70 -3.18 -7.46
DSCMET_COMPS 2018-07-18 00:30:00 16.530 16.610 16.520 16.540 16.470 77.590 12.610 4.214 261.200 261.900 261.200 16.990 73.510 12.225 5.129 76.180 263.100 262.700   0.000 0.626 56.520 385.50 335.10 -3.17 -7.25
DSCMET_COMPS 2018-07-18 00:25:00 16.640 16.720 16.650 16.620 16.630 77.300 12.670 4.299 261.200 261.900 261.200 16.990 73.580 12.239 5.116 86.100 263.100 262.700 0.0960 85.600 0.576 61.320 385.80 335.70 -3.15 -7.49
DSCMET_COMPS 2018-07-18 00:20:00 16.740 16.850 16.790 16.750 16.640 77.210 12.740 4.343 261.200 261.900 261.200 16.890 73.960 12.221 5.010 100.100 263.100 262.700 0.1480 72.880 0.150 50.640 386.10 336.20 -3.17 -7.54
DSCMET_COMPS 2018-07-18 00:15:00 16.850 16.950 16.890 16.880 16.790 76.810 12.770 4.451 261.200 261.900 261.200 17.140 72.900 12.243 5.297 99.200 263.100 262.700 0.1590 86.300 0.290 66.780 386.80 336.50 -3.20 -7.30
DSCMET_COMPS 2018-07-18 00:10:00 16.960 16.990 16.980 17.000 16.950 76.630 12.840 4.517 261.200 261.900 261.100 17.310 72.450 12.312 5.444 99.700 263.000 262.600 0.1250 78.540 0.707 36.770 387.30 337.10 -3.27 -7.30
DSCMET_COMPS 2018-07-18 00:05:00 17.030 17.080 17.060 17.000 16.970 76.420 12.870 4.577 261.200 261.900 260.800 17.250 73.240 12.419 5.268 86.200 263.000 262.500 0.1170 74.010 0.523 36.540 387.70 337.60 -3.26 -7.66
DSCMET_COMPS 2018-07-18 00:00:00 17.150 17.180 17.120 17.080 17.030 76.260 12.950 4.644 261.200 261.900 260.500 17.330 72.720 12.388 5.397 62.380 262.800 262.400 0.1150 64.000 0.216 51.540 388.30 338.20 -3.11 -7.41
DSCMET_COMPS 2018-07-17 23:55:00 17.160 17.310 17.270 17.280 17.260 75.770 12.860 4.742 261.200 261.900 260.500 17.520 71.930 12.404 5.620 48.830 262.700 262.400 0.1670 84.800 0.157 71.570 388.80 338.30 -3.16 -7.34
DSCMET_COMPS 2018-07-17 23:50:00 17.290 17.420 17.340 17.370 17.330 75.230 12.880 4.888 261.200 261.900 260.500 17.690 71.330 12.440 5.803 48.590 262.700 262.400 0.1140 83.500 0.489 65.340 389.20 339.00 -3.13 -7.38
DSCMET_COMPS 2018-07-17 23:45:00 17.490 17.480 17.380 17.510 17.350 75.020 13.030 4.992 261.200 261.900 260.500 17.570 71.900 12.446 5.644 48.710 262.700 262.400 0.1760 37.200 0.209 23.680 389.80 339.80 -3.15 -7.12
DSCMET_COMPS 2018-07-17 23:40:00 17.530 17.530 17.540 17.570 17.570 75.230 13.110 4.963 261.200 261.900 260.500 17.940 70.040 12.402 6.160 48.430 262.700 262.300 0.1420 79.610 0.183 82.100 390.40 340.70 -3.11 -7.13
DSCMET_COMPS 2018-07-17 23:35:00 17.620 17.610 17.590 17.600 17.690 74.870 13.120 5.064 261.200 261.900 260.500 18.070 69.500 12.408 6.322 48.360 262.700 262.400 0.1790 83.000 0.519 78.660 390.60 340.90 -3.29 -7.59
DSCMET_COMPS 2018-07-17 23:30:00 17.720 17.810 17.760 17.830 17.840 74.160 13.080 5.240 261.200 261.900 260.500 18.290 69.070 12.524 6.501 48.360 262.700 262.400 0.2220 88.500 0.888 66.140 391.30 341.00 -3.12 -7.57
DSCMET_COMPS 2018-07-17 23:25:00 17.780 17.910 17.800 17.910 17.900 73.750 13.050 5.343 261.200 261.900 260.500 18.340 69.060 12.570 6.523 48.210 262.700 262.400   0.000 1.062 55.970 392.20 341.40 -3.16 -7.23
DSCMET_COMPS 2018-07-17 23:20:00 17.900 18.020 17.960 17.890 17.880 73.500 13.120 5.435 261.200 261.900 260.500 18.230 69.760 12.618 6.332 48.190 262.700 262.000 0.1180 81.000 0.196 31.320 392.60 342.30 -3.24 -7.32
DSCMET_COMPS 2018-07-17 23:15:00 18.010 18.100 18.070 18.080 18.070 73.310 13.180 5.512 261.200 261.900 260.500 18.450 68.820 12.622 6.619 48.270 262.700 262.000 0.1680 87.800 0.348 52.930 393.00 343.00 -3.19 -7.32
DSCMET_COMPS 2018-07-17 23:10:00 18.120 18.150 18.140 18.120 18.160 73.090 13.240 5.596 261.200 261.900 260.500 18.630 68.200 12.655 6.827 48.420 262.700 262.000 0.1430 69.800 0.508 47.960 393.90 343.20 -3.15 -7.24
DSCMET_COMPS 2018-07-17 23:05:00 18.240 18.250 18.250 18.240 18.170 72.760 13.280 5.707 261.200 261.900 260.500 18.750 67.790 12.678 6.967 48.450 262.700 262.000 0.1500 83.600 0.477 60.320 394.10 343.90 -3.22 -7.32
DSCMET_COMPS 2018-07-17 23:00:00 18.240 18.380 18.360 18.440 18.420 72.420 13.220 5.778 261.100 261.900 260.500 18.940 67.100 12.703 7.202 48.750 262.600 262.000 0.1760 43.110 0.786 48.630 394.60 344.60 -3.24 -7.39
DSCMET_COMPS 2018-07-17 22:55:00 18.380 18.490 18.470 18.480 18.460 71.840 13.220 5.952 260.700 261.900 260.500 18.890 67.370 12.717 7.120 48.870 262.500 262.000 0.1990 27.970 0.543 35.490 395.20 344.80 -3.22 -7.39
DSCMET_COMPS 2018-07-17 22:50:00 18.460 18.610 18.560 18.580 18.490 71.670 13.260 6.018 260.700 261.900 260.500 19.090 66.290 12.660 7.448 67.820 262.300 262.000 0.1650 37.200 0.336 58.160 395.40 345.30 -3.26 -7.41
DSCMET_COMPS 2018-07-17 22:45:00 18.560 18.720 18.720 18.680 18.610 71.140 13.250 6.169 260.500 261.900 260.500 19.210 65.930 12.691 7.584 103.100 262.300 262.000 0.1500 73.130 0.367 67.100 395.90 345.60 -3.28 -7.40
DSCMET_COMPS 2018-07-17 22:40:00 18.710 18.840 18.810 18.810 18.690 70.890 13.330 6.281 260.500 261.900 260.500 19.170 65.950 12.658 7.561 100.300 262.300 262.000 0.1020 65.190 0.238 57.010 396.50 346.20 -3.33 -7.47
DSCMET_COMPS 2018-07-17 22:35:00 18.810 18.930 18.920 18.940 18.890 70.530 13.350 6.399 260.500 261.900 260.500 19.530 64.760 12.722 8.003 94.600 262.300 261.900 0.1050 72.710 0.591 51.900 396.90 346.80 -3.35 -7.48
DSCMET_COMPS 2018-07-17 22:30:00 18.860 19.050 19.010 19.040 19.060 70.730 13.450 6.375 260.500 261.900 260.500 19.530 64.840 12.741 7.984 93.400 262.300 261.700 0.1850 46.750 0.722 50.770 397.60 347.40 -3.27 -7.52
DSCMET_COMPS 2018-07-17 22:25:00 18.950 19.150 19.150 19.190 19.230 70.900 13.570 6.374 260.500 261.900 260.500 19.870 63.460 12.734 8.475 95.800 262.300 261.600 0.2350 87.100 0.454 57.390 398.50 348.20 -3.25 -7.74
DSCMET_COMPS 2018-07-17 22:20:00 19.060 19.290 19.300 19.390 19.400 70.630 13.620 6.477 260.500 261.800 260.500 20.040 63.050 12.796 8.660 102.400 262.300 261.600 0.1640 88.300 0.915 53.790 399.00 348.40 -3.33 -7.60
DSCMET_COMPS 2018-07-17 22:15:00 19.150 19.370 19.380 19.450 19.530 70.210 13.610 6.607 260.500 261.400 260.400 20.110 62.860 12.816 8.743 99.500 262.300 261.600   0.000 0.601 52.930 399.50 349.20 -3.33 -7.51
DSCMET_COMPS 2018-07-17 22:10:00 19.390 19.490 19.470 19.520 19.610 69.210 13.620 6.931 260.500 261.200 260.400 20.270 62.300 12.830 8.963 102.200 262.300 261.600 0.1460 69.190 0.317 55.850 399.80 349.80 -3.35 -7.61
DSCMET_COMPS 2018-07-17 22:05:00 19.470 19.590 19.590 19.690 19.900 69.360 13.730 6.932 260.500 261.200 260.000 20.340 62.090 12.845 9.052 98.200 262.300 261.600 0.1490 71.360 0.291 51.940 400.50 350.50 -3.31 -7.68
DSCMET_COMPS 2018-07-17 22:00:00 19.570 19.690 19.720 19.830 20.010 68.040 13.530 7.276 260.500 261.200 259.800 20.260 62.480 12.865 8.914 96.300 262.300 261.500 0.1540 40.290 0.255 42.110 401.30 350.80 -3.29 -7.68
DSCMET_COMPS 2018-07-17 21:55:00 19.680 19.810 19.850 19.870 19.970 67.740 13.570 7.394 260.500 261.200 259.800 20.450 61.840 12.887 9.173 101.700 262.000 261.300 0.1540 32.970 0.238 52.950 401.80 351.50 -3.27 -7.59
DSCMET_COMPS 2018-07-17 21:50:00 19.790 19.960 19.970 19.930 19.930 67.910 13.710 7.406 260.500 261.200 259.800 20.510 61.570 12.877 9.273 98.500 261.900 261.300 0.1630 35.990 0.638 54.600 402.20 351.80 -3.37 -7.53
DSCMET_COMPS 2018-07-17 21:45:00 19.830 20.090 20.050 20.020 20.060 69.860 14.180 6.973 260.500 261.200 259.800 20.960 59.840 12.864 9.962 85.100 261.900 261.300 0.1650 68.920 0.369 63.440 402.90 352.60 -3.42 -7.60
DSCMET_COMPS 2018-07-17 21:40:00 19.970 20.230 20.100 20.120 20.280 68.440 14.000 7.365 260.500 261.200 259.800 21.170 58.990 12.843 10.305 85.200 261.900 261.300 0.0920 88.200 0.803 67.310 403.30 352.90 -3.40 -7.66
DSCMET_COMPS 2018-07-17 21:35:00 20.080 20.330 20.280 20.290 20.640 68.210 14.050 7.469 260.500 261.200 259.800 21.300 58.380 12.806 10.542 95.100 261.900 261.300 0.1530 75.490 0.726 59.800 404.10 353.70 -3.35 -7.57
DSCMET_COMPS 2018-07-17 21:30:00 20.210 20.500 20.450 20.460 20.610 67.680 14.060 7.655 260.500 261.200 259.800 21.390 58.270 12.861 10.628 99.600 261.900 261.300 0.2290 78.470 0.935 68.600 404.90 354.20 -3.52 -7.68
DSCMET_COMPS 2018-07-17 21:25:00 20.310 20.640 20.590 20.560 20.570 67.620 14.140 7.717 260.500 261.200 259.800 21.350 58.880 12.983 10.447 101.500 261.900 261.100 0.1550 63.680 0.388 70.260 405.20 354.80 -3.60 -7.93
DSCMET_COMPS 2018-07-17 21:20:00 20.400 20.770 20.740 20.730 20.680 68.140 14.350 7.635 260.500 261.200 259.800 21.690 57.430 12.920 11.043 111.500 261.900 261.100 0.1850 74.320 0.844 71.360 405.80 355.30 -3.43 -7.68
DSCMET_COMPS 2018-07-17 21:15:00 20.540 20.900 20.930 20.920 20.930 68.200 14.490 7.687 260.500 261.200 259.800 21.770 57.500 13.013 11.079 84.000 261.600 260.900 0.1770 66.720 0.839 67.120 406.80 356.00 -3.51 -7.68
DSCMET_COMPS 2018-07-17 21:10:00 20.670 21.040 21.130 21.150 21.290 67.440 14.450 7.934 260.500 261.200 259.800 22.140 55.970 12.945 11.740 65.530 261.600 260.900 0.1520 75.900 1.239 68.240 407.30 356.20 -3.59 -7.84
DSCMET_COMPS 2018-07-17 21:05:00 20.650 21.190 21.290 21.360 21.670 67.460 14.430 7.919 260.500 261.200 259.800 22.380 55.030 12.910 12.166 114.600 261.600 260.900   0.000 1.785 61.430 407.90 356.70 -3.59 -8.03
DSCMET_COMPS 2018-07-17 21:00:00 20.690 21.280 21.360 21.510 21.710 67.250 14.420 7.990 260.500 261.200 259.800 22.330 55.410 12.968 12.027 118.400 261.600 260.900 0.1920 60.610 1.328 66.410 408.20 357.30 -3.50 -8.12
DSCMET_COMPS 2018-07-17 20:55:00 20.830 21.340 21.550 21.700 21.960 66.380 14.350 8.273 260.500 261.200 259.800 22.740 54.110 12.986 12.690 114.100 261.600 260.900 0.2780 67.650 1.134 74.800 409.60 358.70 -3.53 -7.71
DSCMET_COMPS 2018-07-17 20:50:00 20.990 21.600 21.780 21.910 22.250 66.170 14.450 8.407 260.500 261.200 259.800 23.130 51.950 12.724 13.604 110.500 261.600 260.900 0.3010 73.620 2.755 54.840 410.40 359.20 -3.58 -8.07
DSCMET_COMPS 2018-07-17 20:45:00 21.120 21.700 21.860 21.980 22.160 65.230 14.350 8.710 260.500 261.200 259.800 22.810 54.140 13.059 12.735 108.500 261.400 260.900 0.3230 69.840 1.097 74.120 411.10 359.80 -3.68 -8.10
DSCMET_COMPS 2018-07-17 20:40:00 21.260 21.830 22.000 22.120 22.490 65.730 14.600 8.659 260.500 261.200 259.700 23.550 50.320 12.624 14.427 106.700 261.400 260.900 0.3580 74.130 2.276 51.250 411.90 360.70 -3.70 -8.08
DSCMET_COMPS 2018-07-17 20:35:00 21.380 21.950 22.140 22.310 22.510 64.990 14.550 8.911 260.500 260.900 259.300 23.160 52.690 12.968 13.419 105.100 261.200 260.900 0.2910 77.150 1.569 63.830 412.90 361.50 -3.79 -8.17
DSCMET_COMPS 2018-07-17 20:30:00 21.420 22.070 22.180 22.340 22.520 64.160 14.390 9.145 260.500 260.800 259.200 23.220 52.610 13.000 13.490 77.950 261.200 260.700 0.3310 47.730 1.957 55.070 414.00 362.30 -3.81 -8.14
DSCMET_COMPS 2018-07-17 20:25:00 21.540 22.110 22.300 22.490 22.840 63.740 14.400 9.320 260.400 260.500 259.200 23.470 51.710 12.967 13.956 63.440 261.200 260.700 0.4130 76.600 1.281 74.290 415.10 363.20 -3.89 -8.32
DSCMET_COMPS 2018-07-17 20:20:00 21.610 22.320 22.430 22.570 22.780 63.580 14.430 9.402 260.300 260.500 259.200 23.580 50.920 12.833 14.278 92.000 261.200 260.700 0.3170 58.990 1.517 57.560 415.80 363.60 -3.81 -8.32
DSCMET_COMPS 2018-07-17 20:15:00 21.750 22.450 22.580 22.790 23.010 64.640 14.810 9.206 260.000 260.500 259.200 23.490 51.560 12.941 14.016 103.600 261.200 260.500 0.4280 85.200 1.000 72.560 417.30 364.60 -3.84 -8.03
DSCMET_COMPS 2018-07-17 20:10:00 21.880 22.580 22.680 22.790 22.880 64.000 14.780 9.448 259.800 260.500 259.200 23.480 51.540 12.926 14.013 116.100 261.200 260.500 0.2240 45.200 0.733 54.070 418.40 365.90 -3.91 -8.02
DSCMET_COMPS 2018-07-17 20:05:00 22.220 22.810 22.940 23.060 23.340 62.170 14.650 10.136 259.800 260.500 259.200 23.900 50.060 12.867 14.811 133.300 261.200 260.500 0.2300 89.500 1.243 68.480 419.40 366.70 -3.94 -8.00
DSCMET_COMPS 2018-07-17 20:00:00 22.150 22.900 23.020 23.170 23.250 61.560 14.440 10.255 259.800 260.500 259.200 24.070 49.290 12.786 15.193 132.700 260.900 260.300 0.1490 67.650 0.944 63.100 419.90 367.30 -3.90 -7.66
DSCMET_COMPS 2018-07-17 19:55:00 22.190 23.030 23.250 23.470 23.670 62.470 14.700 10.037 259.800 260.500 259.200 24.390 48.010 12.677 15.878 132.400 260.800 260.500   0.000 1.628 65.610 421.80 368.50 -3.81 -6.78
DSCMET_COMPS 2018-07-17 19:50:00 22.480 23.320 23.420 23.610 23.650 61.360 14.700 10.518 259.800 260.500 259.200 24.100 48.680 12.623 15.404 131.800 260.800 260.200 0.1940 81.500 1.708 52.910 422.90 369.80 -3.86 -5.87
DSCMET_COMPS 2018-07-17 19:45:00 22.620 23.480 23.590 23.770 23.830 60.400 14.580 10.871 259.800 260.500 259.200 24.510 47.420 12.598 16.174 131.700 260.800 260.200 0.1870 90.800 1.132 55.260 423.80 370.40 -3.76 -5.01
DSCMET_COMPS 2018-07-17 19:40:00 22.710 23.660 23.730 23.930 24.040 59.880 14.530 11.074 259.800 260.500 259.200 24.750 46.200 12.419 16.788 139.100 260.800 260.200 0.1500 79.510 0.836 60.790 425.30 371.70 -3.81 -3.96
DSCMET_COMPS 2018-07-17 19:35:00 22.940 23.870 23.980 24.290 24.410 59.400 14.620 11.364 259.800 260.500 259.200 24.810 45.680 12.301 17.011 137.600 260.800 260.100 0.2400 87.900 0.536 69.980 426.10 372.00 -3.83 -2.79
DSCMET_COMPS 2018-07-17 19:30:00 23.000 24.000 24.150 24.290 24.400 59.210 14.630 11.458 259.800 260.500 259.200 24.920 45.410 12.311 17.208 135.400 260.800 259.900 0.0820 87.400 0.503 37.980 427.10 373.40 -4.16 -1.71
DSCMET_COMPS 2018-07-17 19:25:00 23.170 24.160 24.400 24.620 24.830 58.690 14.650 11.724 259.800 260.500 259.200 25.560 43.070 12.085 18.642 131.600 260.800 259.800 0.2210 88.400 0.540 61.210 428.10 374.00 -4.01 -0.66
DSCMET_COMPS 2018-07-17 19:20:00 23.330 24.410 24.630 24.960 25.050 58.930 14.860 11.769 259.800 260.500 259.100 25.520 43.150 12.077 18.572 130.300 260.800 259.800 0.1350 90.700 0.782 50.730 429.50 375.00 -3.61 0.78
DSCMET_COMPS 2018-07-17 19:15:00 23.410 24.500 24.820 25.110 25.240 59.170 15.010 11.757 259.800 260.400 258.600 25.900 41.660 11.886 19.492 130.300 260.700 259.800 0.2830 78.100 0.638 60.130 431.30 376.30 -3.38 2.27
DSCMET_COMPS 2018-07-17 19:10:00 23.710 24.710 24.970 25.160 25.400 58.700 15.160 12.109 259.800 260.200 258.500 26.000 41.530 11.928 19.652 130.500 260.500 259.800 0.1770 94.700 0.628 54.070 432.40 376.70 -3.21 3.50
DSCMET_COMPS 2018-07-17 19:05:00 23.810 24.960 25.220 25.440 25.700 57.840 15.030 12.436 259.800 259.900 258.500 26.230 40.870 11.891 20.145 130.700 260.400 259.800 0.2010 73.060 0.422 352.200 433.80 377.70 -3.41 4.59
DSCMET_COMPS 2018-07-17 19:00:00 24.050 25.230 25.500 25.770 26.060 57.970 15.290 12.578 259.800 259.800 258.500 26.740 39.180 11.707 21.353 131.300 260.400 259.800 0.1940 90.900 0.460 318.000 435.60 379.50 -3.39 5.80
DSCMET_COMPS 2018-07-17 18:55:00 24.350 25.480 25.700 26.060 26.480 57.640 15.480 12.906 259.800 259.800 258.500 27.010 38.340 11.619 21.994 131.200 260.400 259.700 0.1910 102.800 0.297 295.600 436.40 382.40 -3.10 7.51
DSCMET_COMPS 2018-07-17 18:50:00 24.460 25.520 25.930 26.460 27.000 58.290 15.750 12.792 259.400 259.800 258.500 27.520 36.720 11.417 23.256 131.200 260.400 259.800   0.000 0.728 258.600 437.10 380.50 -2.92 8.26
DSCMET_COMPS 2018-07-17 18:45:00 25.030 25.910 26.270 27.250 27.620 54.460 15.180 14.450 259.200 259.800 258.500 27.850 35.710 11.287 24.086 131.200 260.400 259.700   0.000 0.695 210.900 438.50 381.60 -2.76 9.95
DSCMET_COMPS 2018-07-17 18:40:00 25.280 26.090 26.110 26.610 27.180 50.600 14.300 15.910 259.200 259.800 258.500 27.870 35.590 11.254 24.160 131.000 260.400 259.600 0.2550 336.800 0.906 300.600 439.90 383.10 -2.60 11.04
DSCMET_COMPS 2018-07-17 18:35:00 25.150 26.030 26.270 26.840 27.760 51.930 14.600 15.362 259.200 259.800 258.500 28.440 33.990 11.060 25.594 130.900 260.700 259.700 0.2580 341.800 1.271 193.100 440.60 382.30 -2.47 11.56
DSCMET_COMPS 2018-07-17 18:30:00 25.330 26.220 26.590 26.990 27.600 52.140 14.830 15.460 259.200 259.800 258.500 28.530 34.020 11.152 25.716 130.600 260.600 259.700 0.2360 199.800 1.473 206.900 441.90 382.30 -2.23 12.79
DSCMET_COMPS 2018-07-17 18:25:00 25.750 26.730 26.900 27.240 27.720 50.410 14.690 16.422 259.200 259.800 258.500 28.480 33.900 11.056 25.689 130.700 260.500 259.500 0.1730 175.500 1.096 219.500 443.70 383.80 -1.82 14.32
DSCMET_COMPS 2018-07-17 18:20:00 26.220 27.100 27.110 27.690 28.280 46.280 13.790 18.291 259.200 259.800 258.500 28.830 32.730 10.832 26.679 130.800 260.400 259.400 0.3670 285.500 0.901 226.500 445.50 386.00 -1.66 15.42
DSCMET_COMPS 2018-07-17 18:15:00 26.220 27.200 27.300 28.220 28.860 46.870 13.990 18.091 259.200 259.800 258.500 29.200 29.690 9.694 28.487 131.200 260.400 259.300 0.3160 323.900 1.218 197.800 446.00 385.70 -2.03 15.80
DSCMET_COMPS 2018-07-17 18:10:00 26.420 27.320 27.480 28.030 28.670 46.350 14.010 18.484 259.200 259.800 258.500 29.380 29.890 9.949 28.702 131.000 260.300 259.300 0.4790 291.000 1.515 207.300 446.80 387.40 -1.87 16.60
DSCMET_COMPS 2018-07-17 18:05:00 26.460 27.470 27.630 28.290 29.090 46.360 14.050 18.524 259.200 259.800 258.500 29.880 29.730 10.298 29.607 131.200 260.300 259.300 0.3120 274.500 1.612 187.000 447.20 385.70 -2.40 16.40
DSCMET_COMPS 2018-07-17 18:00:00 26.670 27.650 27.800 28.430 29.060 45.380 13.900 19.097 259.200 259.800 258.400 30.260 28.460 9.971 30.806 131.200 260.400 259.400 0.4060 302.900 1.598 210.800 448.20 385.70 -2.68 17.06
DSCMET_COMPS 2018-07-17 17:55:00 26.910 27.880 28.000 28.570 28.980 43.510 13.460 20.032 259.200 259.800 258.100 30.230 29.410 10.437 30.345 131.200 260.300 259.300 0.4970 294.000 1.017 245.400 449.40 387.10 -2.74 17.45
DSCMET_COMPS 2018-07-17 17:50:00 26.850 27.920 28.420 29.280 29.770 44.380 13.720 19.654 259.200 259.800 257.900 30.680 28.070 10.124 31.726 131.600 260.400 259.400 0.4550 313.800 0.967 204.200 450.80 387.80 -2.19 18.78
DSCMET_COMPS 2018-07-17 17:45:00 26.940 27.980 28.760 29.750 29.990 45.070 14.040 19.513 259.200 259.800 258.000 30.680 27.590 9.866 31.938 132.300 260.300 259.100 0.4170 327.000 1.949 178.500 452.40 387.50 -2.50 19.10
DSCMET_COMPS 2018-07-17 17:40:00 26.960 28.050 29.380 30.090 30.150 46.170 14.430 19.145 259.200 259.800 257.800 30.750 27.300 9.768 32.194 132.300 260.300 259.200   0.000 1.674 190.100 454.20 389.10 -2.25 20.11
DSCMET_COMPS 2018-07-17 17:35:00 27.260 28.600 29.730 30.230 30.290 45.750 14.560 19.636 259.200 259.800 257.900 30.860 26.540 9.442 32.736 131.800 260.300 259.100 0.4060 145.100 2.528 197.000 456.40 390.90 -1.12 22.05
DSCMET_COMPS 2018-07-17 17:30:00 27.520 28.560 29.670 30.270 30.350 42.810 13.780 21.018 259.200 259.500 257.800 31.010 26.940 9.791 32.837 133.900 260.200 259.100 0.3800 295.500 1.705 200.500 458.70 392.90 -0.69 23.42
DSCMET_COMPS 2018-07-17 17:25:00 27.560 28.710 29.900 30.430 30.510 43.880 14.190 20.673 259.000 259.400 257.800 31.150 26.440 9.631 33.326 137.700 260.200 259.000 0.3470 308.200 2.035 201.800 461.90 392.80 -0.08 24.77
DSCMET_COMPS 2018-07-17 17:20:00 27.690 28.840 29.770 30.260 30.510 43.090 14.030 21.123 258.500 259.300 257.800 31.340 26.370 9.752 33.720 136.800 260.200 259.000 0.5110 11.200 1.174 202.600 459.50 393.20 -2.20 23.92
DSCMET_COMPS 2018-07-17 17:15:00 27.920 28.900 29.620 30.260 30.590 42.350 13.970 21.687 258.500 259.200 257.800 31.490 26.490 9.947 33.952 136.500 260.300 259.000 0.4430 282.400 1.589 206.700 460.10 391.60 -2.37 24.38
DSCMET_COMPS 2018-07-17 17:10:00 28.150 29.350 30.290 30.670 30.800 41.740 13.950 22.212 258.500 259.200 257.800 31.550 26.470 9.986 34.077 136.200 260.400 259.100 0.4910 309.800 1.433 197.100 463.60 393.70 -0.96 27.18
DSCMET_COMPS 2018-07-17 17:05:00 28.620 29.890 30.390 30.820 30.990 38.780 13.210 23.986 258.600 259.200 257.800 31.700 26.590 10.181 34.312 136.100 260.400 259.000 0.4030 199.800 1.342 197.900 466.30 395.20 -1.38 28.78
DSCMET_COMPS 2018-07-17 17:00:00 28.400 29.510 30.200 30.750 31.080 40.190 13.590 23.136 258.500 259.200 257.800 31.820 26.790 10.395 34.452 135.900 260.200 259.100 0.5700 316.300 0.943 254.900 467.20 396.90 -1.73 30.47
DSCMET_COMPS 2018-07-17 16:55:00 28.990 30.190 30.730 30.890 31.030 38.790 13.570 24.501 258.500 259.200 257.800 31.750 26.290 10.054 34.550 135.600 260.000 259.100 0.3550 51.710 0.597 156.900 469.20 398.20 -1.32 32.61
DSCMET_COMPS 2018-07-17 16:50:00 29.270 30.840 31.100 31.160 31.040 36.970 13.070 25.641 258.500 259.200 257.800 31.560 25.940 9.693 34.343 135.500 260.100 259.100 0.5760 44.130 1.217 184.700 472.90 399.60 0.40 34.97
DSCMET_COMPS 2018-07-17 16:45:00 29.350 30.870 31.210 31.340 31.230 37.270 13.270 25.637 258.500 259.200 257.800 31.610 25.930 9.730 34.445 135.400 260.100 259.000 0.6300 183.400 2.383 206.900 476.30 401.00 2.12 36.97
DSCMET_COMPS 2018-07-17 16:40:00 29.120 30.670 31.210 31.430 31.450 37.990 13.370 25.008 258.500 259.200 257.800 31.680 26.040 9.852 34.530 135.500 260.100 259.000 0.7200 115.300 1.641 177.800 481.70 405.30 3.32 131.80
DSCMET_COMPS 2018-07-17 16:35:00 29.490 30.890 31.370 31.530 31.550 36.810 13.200 26.034 258.500 259.200 257.800 31.830 25.750 9.812 34.961 135.700 260.100 259.000 0.3030 303.800 1.839 188.100 482.50 405.80 3.93 379.70
DSCMET_COMPS 2018-07-17 16:30:00 30.040 31.230 31.550 31.630 31.590 33.200 12.090 28.405 258.500 259.200 257.800 31.850 25.710 9.805 35.020 138.300 260.000 259.000   0.000 1.603 191.100 484.10 412.20 7.22 357.30
DSCMET_COMPS 2018-07-17 16:25:00 29.480 31.310 31.790 31.870 31.810 35.500 12.640 26.558 258.500 259.200 257.800 31.960 23.900 8.814 36.097 143.300 259.700 258.900 0.6860 24.740 2.068 220.000 482.80 414.40 8.50 454.00
DSCMET_COMPS 2018-07-17 16:20:00 29.530 31.670 31.930 32.070 32.030 35.390 12.640 26.680 258.100 259.200 257.800 31.970 23.550 8.605 36.283 150.100 259.900 258.700 0.3400 151.300 3.076 228.400 489.20 409.50 15.03 101.80
DSCMET_COMPS 2018-07-17 16:15:00 29.960 31.660 31.970 32.300 32.420 32.600 11.770 28.529 257.800 259.200 257.800 32.390 21.860 7.858 37.975 151.000 260.000 258.700 0.5760 324.500 2.774 237.100 492.30 409.70 17.20 247.60
DSCMET_COMPS 2018-07-17 16:10:00 29.990 31.300 31.920 32.370 32.560 33.260 12.100 28.298 257.800 258.900 257.700 32.620 20.520 7.122 39.129 149.300 260.000 258.800 0.5580 322.800 1.825 244.700 497.00 411.70 20.70 395.80
DSCMET_COMPS 2018-07-17 16:05:00 30.600 31.900 32.230 32.510 32.480 29.440 10.770 30.980 257.800 259.100 257.800 32.410 22.440 8.259 37.735 146.000 260.000 258.800 0.4250 141.700 1.178 194.900 502.50 417.50 27.59 464.00
DSCMET_COMPS 2018-07-17 16:00:00 30.630 31.790 32.120 32.400 32.720 29.580 10.860 30.972 257.800 258.500 257.200 32.450 19.410 6.176 39.298 144.700 260.000 258.500 0.4560 103.700 1.486 219.900 507.40 416.40 35.29 580.40
DSCMET_COMPS 2018-07-17 15:55:00 31.080 32.360 32.390 32.380 32.240 26.530 9.610 33.153 257.800 258.500 257.100 32.100 21.360 7.280 37.598 144.100 259.700 258.500 0.6830 138.900 2.717 210.500 516.10 416.60 44.45 601.40
DSCMET_COMPS 2018-07-17 15:50:00 30.850 32.460 32.570 32.850 32.700 26.370 9.340 32.793 257.800 258.500 257.100 32.430 18.740 5.652 39.580 143.700 259.700 258.400 0.6030 327.700 3.121 234.400 522.80 417.40 52.15 612.40
DSCMET_COMPS 2018-07-17 15:45:00 31.170 32.250 32.570 32.890 32.960 25.490 9.090 33.795 257.800 258.500 257.100 32.800 17.850 5.252 40.855 143.100 259.700 258.500 0.6520 326.700 2.118 241.300 530.20 418.40 60.60 624.60
DSCMET_COMPS 2018-07-17 15:40:00 31.800 32.650 32.760 33.050 32.970 21.770 7.312 36.773 257.800 258.500 257.100 32.690 17.430 4.822 40.811 142.900 259.700 258.500 0.4760 321.300 1.732 236.400 537.30 418.00 70.08 640.70
DSCMET_COMPS 2018-07-17 15:35:00 32.150 32.810 32.980 33.160 33.170 19.570 6.058 38.562 257.800 258.500 257.100 32.700 16.290 3.866 41.398 144.400 259.700 258.400 0.9720 324.200 2.527 244.300 545.50 416.50 80.10 656.30
DSCMET_COMPS 2018-07-17 15:30:00 32.060 32.800 32.910 33.140 33.410 18.960 5.527 38.658 257.800 258.500 257.100 32.990 15.330 3.237 42.560 143.600 259.700 258.400 0.8680 318.800 1.633 263.900 552.40 416.70 88.00 673.50
DSCMET_COMPS 2018-07-17 15:25:00 32.050 32.910 32.980 33.280 33.400 20.300 6.497 37.997 257.800 258.500 257.100 33.030 15.290 3.232 42.676 144.700 259.700 258.400   0.000 1.548 260.800 559.50 417.00 95.90 659.70
DSCMET_COMPS 2018-07-17 15:20:00 32.020 32.970 33.100 33.260 33.220 19.810 6.127 38.166 257.800 258.500 257.100 32.780 15.630 3.344 41.912 144.900 259.600 258.400   0.000 2.718 244.700 563.90 418.70 101.30 705.70
DSCMET_COMPS 2018-07-17 15:15:00 32.200 32.930 33.060 33.200 33.190 18.170 5.026 39.344 257.800 258.500 257.100 32.740 14.660 2.411 42.299 144.800 259.700 258.400 1.0780 321.000 1.944 260.300 567.80 418.60 104.50 715.00
DSCMET_COMPS 2018-07-17 15:10:00 32.340 33.030 33.170 33.340 33.450 18.160 5.101 39.661 257.800 258.500 257.100 32.980 14.400 2.349 43.003 143.900 259.700 258.300 0.9450 323.500 2.158 262.100 571.20 418.90 108.20 729.60
DSCMET_COMPS 2018-07-17 15:05:00 32.190 33.060 33.200 33.350 33.560 19.250 5.852 38.803 257.800 258.500 257.100 33.040 14.250 2.249 43.224 141.800 259.700 258.400 0.9680 326.800 1.865 260.700 574.70 418.90 112.30 742.40
DSCMET_COMPS 2018-07-17 15:00:00 32.250 33.070 33.230 33.480 33.640 19.500 6.063 38.814 257.800 258.500 257.100 33.100 13.890 1.938 43.551 140.800 259.700 258.400 0.7470 324.800 2.128 228.000 578.70 418.80 115.00 750.40
DSCMET_COMPS 2018-07-17 14:55:00 32.240 33.060 33.200 33.460 33.750 18.430 5.250 39.308 257.800 258.500 257.100 33.160 14.050 2.145 43.617 143.200 259.700 258.400 0.9050 330.700 1.544 270.300 582.10 418.40 118.20 766.70
DSCMET_COMPS 2018-07-17 14:50:00 32.110 33.040 33.210 33.540 33.450 20.080 6.402 38.231 257.800 258.500 257.100 32.980 13.620 1.571 43.395 146.000 259.700 258.400 0.6480 334.200 1.998 236.900 585.80 419.10 123.50 789.60
DSCMET_COMPS 2018-07-17 14:45:00 32.350 33.110 33.250 33.550 33.600 18.910 5.710 39.320 257.800 258.500 257.100 33.120 14.430 2.488 43.327 147.400 259.700 258.400 0.8190 323.000 1.636 277.800 585.60 419.00 125.20 798.20
DSCMET_COMPS 2018-07-17 14:40:00 32.360 33.100 33.270 33.540 33.470 18.010 5.027 39.778 257.800 258.500 257.100 32.850 13.970 1.823 42.905 148.100 259.700 258.400 0.7220 317.100 2.054 248.400 586.40 417.60 125.70 805.00
DSCMET_COMPS 2018-07-17 14:35:00 32.430 33.200 33.420 33.530 33.280 18.000 5.048 39.940 257.800 258.500 257.100 32.740 13.510 1.271 42.869 147.900 259.700 258.400 0.8310 318.300 2.173 253.500 589.40 417.80 128.10 821.00
DSCMET_COMPS 2018-07-17 14:30:00 32.390 33.360 33.550 33.700 33.540 19.630 6.288 39.058 257.800 258.500 257.100 33.060 13.050 1.039 43.878 148.200 259.600 258.400 0.5150 302.200 2.106 224.500 590.70 416.90 129.00 825.00
DSCMET_COMPS 2018-07-17 14:25:00 32.500 33.390 33.550 33.690 33.630 18.610 5.610 39.800 257.800 258.500 257.400 33.140 13.390 1.459 43.903 148.100 259.700 258.400 0.4810 324.400 2.029 226.100 594.90 416.70 132.50 847.00
DSCMET_COMPS 2018-07-17 14:20:00 32.580 33.170 33.270 33.540 33.580 16.490 3.924 41.021 257.800 258.500 257.100 33.080 13.750 1.781 43.573 147.500 259.600 258.600 0.5350 330.600 1.580 233.400 598.00 417.50 135.50 859.00
DSCMET_COMPS 2018-07-17 14:15:00 32.530 33.080 33.230 33.430 33.460 19.180 6.046 39.588 257.800 259.000 257.500 33.080 13.270 1.287 43.816 147.100 259.600 258.600   0.000 2.474 219.100 600.50 417.50 136.90 866.00
DSCMET_COMPS 2018-07-17 14:10:00 32.520 33.090 33.200 33.500 33.470 19.070 5.979 39.620 257.800 259.200 257.800 32.750 15.090 2.825 42.109 146.800 259.700 258.700 0.4690 349.700 1.757 230.000 597.80 417.60 137.50 876.00
DSCMET_COMPS 2018-07-17 14:05:00 32.500 33.100 33.180 33.500 33.600 20.080 6.692 39.081 257.800 259.200 257.800 32.870 15.050 2.882 42.414 146.900 259.700 258.700 0.7100 320.400 1.774 244.000 602.10 418.30 137.80 880.00
DSCMET_COMPS 2018-07-17 14:00:00 32.430 33.060 33.170 33.340 33.340 20.540 6.979 38.703 257.800 259.200 257.800 32.790 15.990 3.674 41.757 148.700 259.500 258.700 0.3760 327.100 2.290 229.100 601.20 418.70 138.50 891.00
DSCMET_COMPS 2018-07-17 13:55:00 32.390 32.940 33.080 33.430 33.690 20.700 7.066 38.538 257.800 259.200 257.800 33.060 16.630 4.448 42.071 149.100 259.400 258.700 0.7420 320.100 2.097 230.900 604.50 420.00 140.60 902.00
DSCMET_COMPS 2018-07-17 13:50:00 32.510 33.120 33.140 33.300 33.450 19.280 6.133 39.495 257.800 259.200 257.800 32.990 15.440 3.338 42.505 137.000 259.500 258.800 0.5650 325.900 1.387 224.200 605.00 419.90 142.40 910.00
DSCMET_COMPS 2018-07-17 13:45:00 32.520 33.080 33.170 33.270 33.220 19.260 6.127 39.527 257.800 259.200 257.800 32.690 15.360 3.027 41.834 136.700 259.200 258.700 0.6140 322.000 1.706 238.100 607.90 420.30 143.80 919.00
DSCMET_COMPS 2018-07-17 13:40:00 32.410 33.030 33.200 33.490 33.390 18.650 5.580 39.579 257.800 259.200 257.800 32.700 15.370 3.044 41.853 150.800 259.300 258.800 0.5780 318.400 2.097 228.100 606.80 419.80 143.90 926.00
DSCMET_COMPS 2018-07-17 13:35:00 32.420 32.910 33.030 33.270 33.160 18.930 5.798 39.465 257.800 259.200 257.800 32.420 14.580 2.082 41.583 144.100 259.300 258.700 0.6460 320.400 2.355 239.800 607.70 419.20 145.10 932.00
DSCMET_COMPS 2018-07-17 13:30:00 32.570 32.920 33.130 33.500 33.350 19.270 6.177 39.633 257.900 259.200 257.800 32.640 15.570 3.179 41.613 143.500 259.200 258.800 1.0480 312.200 2.725 245.800 610.50 419.40 147.50 943.00
DSCMET_COMPS 2018-07-17 13:25:00 32.510 33.050 33.140 33.400 33.410 19.430 6.242 39.421 257.900 259.200 257.800 32.800 16.370 4.016 41.591 143.000 259.200 258.800 0.8210 323.200 1.306 251.000 606.10 418.80 146.60 942.00
DSCMET_COMPS 2018-07-17 13:20:00 32.640 32.990 32.970 33.040 32.750 16.700 4.158 41.056 257.800 259.200 257.800 32.460 15.030 2.539 41.457 147.700 259.300 258.800 0.5060 45.820 1.839 196.200 609.80 421.00 147.90 952.00
DSCMET_COMPS 2018-07-17 13:15:00 32.530 33.040 33.210 33.340 33.240 17.580 4.828 40.372 257.800 259.200 257.800 32.720 15.370 3.060 41.900 150.800 259.600 258.700 0.5060 57.970 1.806 202.300 612.10 419.90 148.50 957.00
DSCMET_COMPS 2018-07-17 13:10:00 32.470 32.740 33.040 33.520 33.710 17.610 4.787 40.221 257.900 259.200 257.800 32.960 14.280 2.216 43.015 151.600 259.800 258.800   0.000 1.188 202.900 613.80 419.60 149.80 967.00
DSCMET_COMPS 2018-07-17 13:05:00 32.550 32.850 33.130 33.390 33.100 18.420 5.509 40.005 258.500 259.200 257.800 32.350 14.520 1.969 41.448 146.300 259.900 258.700   0.000 2.014 242.400 616.40 418.80 152.80 975.00
DSCMET_COMPS 2018-07-17 13:00:00 32.450 32.890 33.150 33.370 32.880 18.110 5.158 39.932 258.500 259.200 257.800 32.200 14.610 1.937 41.056 146.500 259.900 258.700 0.4910 353.100 2.439 219.100 616.40 418.20 154.40 982.00
DSCMET_COMPS 2018-07-17 12:55:00 32.380 32.880 32.940 33.090 32.780 18.660 5.562 39.508 258.500 259.200 257.800 32.300 14.850 2.244 41.172 149.700 260.100 258.800 0.6230 334.000 2.249 221.900 616.00 418.30 154.60 989.00
DSCMET_COMPS 2018-07-17 12:50:00 32.250 32.810 32.990 33.240 33.130 19.050 5.747 39.031 258.500 259.200 257.800 32.510 15.460 2.976 41.364 149.600 260.200 258.900 0.4690 340.100 2.227 217.700 615.70 419.30 153.60 985.00
DSCMET_COMPS 2018-07-17 12:45:00 32.300 32.570 32.800 32.910 32.810 18.420 5.301 39.446 258.500 259.200 257.800 32.070 14.930 2.138 40.603 149.300 260.000 258.800 0.5970 14.420 1.494 217.600 613.80 418.00 155.60 994.00
DSCMET_COMPS 2018-07-17 12:40:00 32.220 32.540 32.810 32.990 33.100 19.320 5.928 38.835 258.500 259.200 258.100 32.230 14.470 1.827 41.193 149.800 260.300 259.000 0.8710 320.200 2.203 245.900 615.40 416.20 157.00 999.00
DSCMET_COMPS 2018-07-17 12:35:00 32.070 32.590 32.850 32.850 32.780 20.810 6.872 37.797 258.800 259.400 258.100 32.260 15.790 3.075 40.626 150.200 260.300 259.100 0.7660 324.700 1.068 258.700 615.20 417.40 158.70 1006.00
DSCMET_COMPS 2018-07-17 12:30:00 32.150 32.700 32.870 32.770 32.490 20.550 6.743 38.092 259.100 259.800 258.500 32.130 16.240 3.368 40.113 147.200 260.400 259.100 0.6520 323.700 2.008 240.100 613.20 417.70 156.80 1002.00
DSCMET_COMPS 2018-07-17 12:25:00 31.940 32.450 32.650 32.760 32.470 21.070 6.938 37.397 259.200 259.800 258.500 32.040 16.820 3.793 39.634 144.300 260.400 259.100 0.5000 13.930 2.517 211.100 612.30 418.10 157.30 1000.00
DSCMET_COMPS 2018-07-17 12:20:00 31.910 32.210 32.540 32.840 32.600 22.540 7.923 36.638 259.200 259.800 258.500 32.060 16.530 3.562 39.817 149.600 260.500 259.100 0.4550 315.500 1.756 228.500 612.10 417.70 157.70 1003.00
DSCMET_COMPS 2018-07-17 12:15:00 31.820 32.030 32.240 32.750 32.800 22.360 7.726 36.537 259.200 259.800 258.500 32.230 17.810 4.760 39.584 150.100 260.700 259.300 0.6670 321.500 1.516 225.400 609.70 418.00 157.90 1003.00
DSCMET_COMPS 2018-07-17 12:10:00 31.480 32.060 32.260 32.520 32.630 23.870 8.400 35.143 259.200 259.800 258.500 32.060 18.200 4.933 39.020 147.800 260.700 259.400 0.6670 336.000 1.403 231.000 606.70 419.40 155.90 997.00
DSCMET_COMPS 2018-07-17 12:05:00 31.230 31.860 32.150 32.370 32.350 24.610 8.630 34.311 259.200 259.800 258.500 32.130 18.850 5.493 38.863 149.100 260.700 259.400 0.4620 319.800 0.794 230.500 609.40 421.40 155.50 994.00
DSCMET_COMPS 2018-07-17 12:00:00 31.180 31.700 31.910 32.220 31.950 22.390 7.220 35.221 259.200 259.800 258.500 31.620 18.720 4.980 37.819 147.700 260.600 259.300   0.000 1.380 226.600 608.60 421.10 155.40 994.00
DSCMET_COMPS 2018-07-17 11:55:00 31.200 31.710 31.840 32.010 31.750 21.870 6.869 35.497 259.200 259.800 258.500 31.320 18.260 4.381 37.391 148.000 260.500 259.200 0.9410 326.800 1.585 255.000 605.80 419.40 155.00 991.00
DSCMET_COMPS 2018-07-17 11:50:00 30.930 31.530 31.740 32.020 31.790 22.970 7.364 34.464 259.200 259.800 258.500 31.230 18.060 4.151 37.292 144.200 260.500 259.100 0.6080 300.000 2.325 232.500 604.20 419.20 155.30 989.00
DSCMET_COMPS 2018-07-17 11:45:00 30.850 31.480 31.680 32.000 32.030 18.890 4.464 36.124 259.200 259.800 258.500 31.590 17.220 3.765 38.451 143.800 260.700 259.100 0.6310 324.500 1.378 266.800 602.10 419.40 154.10 983.00
DSCMET_COMPS 2018-07-17 11:40:00 30.710 31.310 31.570 31.890 31.780 22.510 6.862 34.237 259.800 260.400 259.100 31.370 15.370 1.990 38.823 148.100 260.800 259.100 0.6520 320.300 1.327 261.100 603.40 418.90 154.40 984.00
DSCMET_COMPS 2018-07-17 11:35:00 30.480 31.080 31.370 31.720 31.440 24.750 8.090 32.814 259.800 260.500 259.200 30.960 18.250 4.082 36.638 150.000 260.800 259.000 0.8060 316.100 2.294 249.500 600.50 418.00 154.30 982.00
DSCMET_COMPS 2018-07-17 11:30:00 29.970 30.780 30.990 31.420 31.770 30.410 10.710 29.472 260.400 260.500 259.200 31.380 21.320 6.659 36.114 148.600 261.200 259.800 0.5020 313.700 1.234 246.600 598.80 417.20 155.30 980.00
DSCMET_COMPS 2018-07-17 11:25:00 30.050 30.710 30.820 30.980 31.110 31.620 11.380 29.093 260.500 261.100 259.300 30.990 23.040 7.467 34.550 147.200 261.400 259.900 0.2950 324.800 0.889 251.600 596.80 418.00 152.80 972.00
DSCMET_COMPS 2018-07-17 11:20:00 29.290 30.360 30.620 30.900 31.090 38.230 13.470 25.157 261.000 261.200 259.800 30.760 23.560 7.601 33.870 144.600 261.300 259.800 0.4340 125.300 1.821 208.700 594.70 419.00 152.70 970.00
DSCMET_COMPS 2018-07-17 11:15:00 29.100 30.060 30.280 30.540 30.950 39.250 13.840 24.472 261.200 261.200 259.800 31.110 27.200 10.019 32.907 145.400 261.700 260.300 0.2790 281.400 0.598 257.000 593.50 418.50 152.50 972.00
DSCMET_COMPS 2018-07-17 11:10:00 28.510 29.820 30.110 30.340 30.740 42.130 14.400 22.529 261.200 261.200 259.800 30.980 27.710 10.186 32.435 152.300 261.800 260.500 0.1540 343.200 0.306 13.050 589.70 416.30 151.90 969.00
DSCMET_COMPS 2018-07-17 11:05:00 28.300 29.520 29.940 30.190 30.330 47.490 16.090 20.195 261.200 261.300 259.800 30.350 28.660 10.153 30.879 150.500 261.700 260.100 0.4680 65.290 1.336 181.900 588.30 414.70 151.70 963.00
DSCMET_COMPS 2018-07-17 11:00:00 27.840 29.530 29.930 30.220 30.340 46.980 15.480 19.853 261.500 261.600 259.900 30.340 28.430 10.024 30.960 141.400 261.800 260.200 0.4160 73.740 0.935 132.100 586.10 414.30 151.60 960.00
DSCMET_COMPS 2018-07-17 10:55:00 27.590 29.090 29.450 29.770 30.100 47.920 15.580 19.218 261.700 261.900 260.200 30.300 30.260 10.924 30.100 112.200 261.800 260.000 0.4630 91.200 0.852 138.700 583.20 414.00 151.10 954.00
DSCMET_COMPS 2018-07-17 10:50:00 27.380 28.730 29.120 29.500 29.760 50.450 16.180 18.061 261.900 261.900 260.500 30.070 32.380 11.747 28.803 108.800 261.800 260.300   0.000 0.223 357.400 579.10 412.70 149.70 942.00
DSCMET_COMPS 2018-07-17 10:45:00 27.230 28.360 28.770 29.320 29.920 50.230 15.980 17.983 261.900 261.900 260.500 30.190 33.410 12.326 28.560 99.700 262.000 261.000 0.1890 345.600 0.395 27.900 575.40 412.10 147.60 933.00
DSCMET_COMPS 2018-07-17 10:40:00 27.170 28.540 28.950 29.300 29.520 48.890 15.510 18.402 261.900 261.900 260.500 29.750 33.640 12.047 27.752 104.500 262.000 260.800 0.1850 327.200 0.580 212.300 571.70 412.10 147.90 927.00
DSCMET_COMPS 2018-07-17 10:35:00 26.630 28.330 28.870 29.300 29.320 54.340 16.660 15.927 261.900 261.900 260.500 29.280 32.550 11.140 27.455 101.800 262.000 260.300 0.2740 277.100 1.392 198.700 567.70 409.90 146.60 919.00
DSCMET_COMPS 2018-07-17 10:30:00 26.530 28.050 28.510 28.970 29.140 50.600 15.450 17.131 261.900 261.900 260.500 29.070 34.730 11.937 26.247 103.700 262.100 260.700 0.3310 301.700 0.907 236.400 564.50 409.30 146.10 911.00
DSCMET_COMPS 2018-07-17 10:25:00 26.040 27.720 28.260 28.650 28.930 55.100 16.340 15.127 261.900 261.900 260.500 28.780 35.860 12.168 25.364 106.400 262.200 260.700 0.3460 266.700 1.144 259.700 560.80 407.80 145.60 903.00
DSCMET_COMPS 2018-07-17 10:20:00 25.420 27.180 27.720 28.230 28.620 56.680 16.210 14.068 261.900 262.100 260.500 28.650 36.430 12.293 24.950 103.900 262.300 260.900 0.3360 275.100 1.088 267.400 557.00 406.70 144.50 895.00
DSCMET_COMPS 2018-07-17 10:15:00 25.110 26.920 27.390 27.960 28.250 59.000 16.550 13.072 262.100 262.600 261.000 28.260 37.790 12.507 23.870 106.900 262.300 260.800 0.2580 266.800 1.239 250.700 552.00 405.00 142.40 886.00
DSCMET_COMPS 2018-07-17 10:10:00 24.550 26.160 26.740 27.400 27.810 58.660 15.940 12.747 261.900 262.600 261.200 28.360 37.910 12.644 23.963 105.500 262.400 261.100 0.2730 305.600 1.023 263.500 548.60 403.00 141.90 877.00
DSCMET_COMPS 2018-07-17 10:05:00 24.190 25.840 26.430 27.110 27.540 59.630 15.860 12.183 262.000 262.600 261.200 28.100 39.380 12.994 23.045 101.900 262.500 261.400 0.1530 250.000 0.619 270.200 545.40 401.20 140.60 868.00
DSCMET_COMPS 2018-07-17 10:00:00 23.870 25.620 26.270 27.080 27.230 59.350 15.480 12.034 262.400 262.300 261.200 27.550 40.390 12.891 21.945 102.000 262.500 261.800 0.1270 200.800 1.198 261.900 542.50 399.60 139.80 859.00
DSCMET_COMPS 2018-07-17 09:55:00 23.400 25.050 25.890 26.770 27.000 61.050 15.480 11.209 262.600 262.600 261.200 27.010 40.550 12.469 21.206 100.300 262.300 261.700 0.1450 355.600 1.216 249.600 539.00 398.30 137.70 849.00
DSCMET_COMPS 2018-07-17 09:50:00 22.960 24.480 25.430 26.380 26.730 63.040 15.570 10.357 262.600 262.800 261.200 26.730 40.200 12.087 20.983 103.100 262.300 261.900 0.1450 279.800 0.900 241.300 535.00 396.10 136.20 838.00
DSCMET_COMPS 2018-07-17 09:45:00 22.650 23.940 24.870 26.000 26.540 62.300 15.090 10.368 262.600 262.600 261.200 26.430 40.500 11.932 20.512 106.300 262.400 262.100   0.000 1.106 235.500 530.80 394.10 133.70 828.00
DSCMET_COMPS 2018-07-17 09:40:00 22.260 23.720 24.580 25.720 26.130 63.730 15.070 9.741 262.600 262.600 261.200 26.290 41.150 12.048 20.121 100.400 262.600 262.000 0.1060 294.400 0.892 242.600 526.00 392.30 132.70 819.00
DSCMET_COMPS 2018-07-17 09:35:00 22.010 23.460 24.320 25.430 25.720 64.760 15.090 9.322 262.600 262.700 261.200 26.060 42.160 12.210 19.509 97.300 262.400 262.000 0.0550 326.000 0.462 248.900 524.10 391.20 130.90 805.00
DSCMET_COMPS 2018-07-17 09:30:00 21.600 23.070 23.900 25.050 25.480 66.750 15.170 8.578 262.600 263.200 261.200 25.690 41.520 11.647 19.298 94.200 262.400 261.900 0.1480 313.200 0.949 246.100 519.10 389.20 127.80 791.10
DSCMET_COMPS 2018-07-17 09:25:00 21.280 22.660 23.510 24.640 25.200 68.730 15.320 7.911 262.600 263.200 261.600 25.330 43.250 11.941 18.331 81.200 262.300 262.000 0.1120 320.400 0.852 248.100 513.40 387.00 125.50 777.60
DSCMET_COMPS 2018-07-17 09:20:00 20.920 22.350 23.150 24.240 24.840 70.060 15.270 7.409 262.600 263.200 261.800 24.950 44.470 12.020 17.536 75.270 262.200 262.000 0.0830 286.000 0.633 243.400 510.20 385.80 124.90 765.40
DSCMET_COMPS 2018-07-17 09:15:00 20.670 21.960 22.790 23.910 24.530 70.380 15.110 7.218 262.600 263.200 261.900 24.550 44.850 11.788 17.005 49.760 262.300 261.900 0.1030 292.900 1.093 243.200 505.80 383.80 123.20 752.40
DSCMET_COMPS 2018-07-17 09:10:00 20.320 21.360 22.130 23.290 24.300 71.260 14.960 6.854 262.600 263.200 261.900 24.470 45.250 11.850 16.801 48.170 262.200 261.900 0.1480 291.200 0.854 251.200 502.00 382.70 120.70 739.10
DSCMET_COMPS 2018-07-17 09:05:00 19.960 21.010 21.730 22.940 24.120 72.670 14.920 6.374 262.600 263.200 261.900 24.210 46.690 12.089 16.107 47.540 262.300 262.200 0.1300 281.500 0.847 260.400 497.50 381.30 117.40 724.20
DSCMET_COMPS 2018-07-17 09:00:00 19.700 20.650 21.320 22.560 23.700 74.150 14.980 5.932 262.600 263.200 261.900 23.980 47.940 12.280 15.514 47.010 262.500 262.300 0.1390 297.800 0.661 259.000 492.80 379.80 115.30 710.50
DSCMET_COMPS 2018-07-17 08:55:00 19.430 20.390 21.030 22.280 23.410 73.480 14.580 5.985 262.600 263.200 261.900 23.720 47.580 11.929 15.379 46.630 262.700 262.300 0.0670 293.700 0.676 255.000 487.10 377.80 113.10 695.80
DSCMET_COMPS 2018-07-17 08:50:00 19.150 20.070 20.710 21.900 22.950 75.880 14.810 5.349 262.800 263.200 261.900 23.580 48.530 12.101 14.973 46.270 262.800 262.300 0.1340 293.800 0.713 257.900 483.30 376.90 108.30 680.90
DSCMET_COMPS 2018-07-17 08:45:00 18.880 19.710 20.360 21.570 22.650 77.910 14.960 4.817 263.100 263.200 261.900 23.380 50.350 12.477 14.271 46.040 263.100 262.300 0.1270 297.000 0.600 259.100 477.40 375.30 103.90 666.00
DSCMET_COMPS 2018-07-17 08:40:00 18.520 19.380 20.060 21.250 22.370 78.610 14.750 4.561 263.100 263.300 261.900 23.210 50.020 12.221 14.219 45.660 263.300 262.300 0.0290 290.900 0.653 254.900 471.50 373.10 100.90 651.10
DSCMET_COMPS 2018-07-17 08:35:00 18.240 19.040 19.730 20.860 21.770 78.890 14.530 4.423 263.100 263.200 261.900 23.090 53.430 13.116 13.153 45.390 263.300 262.300   0.000 0.281 245.000 465.70 371.10 98.40 636.60
DSCMET_COMPS 2018-07-17 08:30:00 17.930 18.750 19.500 20.540 21.580 79.070 14.270 4.301 262.900 263.300 261.900 23.090 51.650 12.599 13.656 45.090 263.300 262.300 0.0050 296.400 0.467 239.000 459.50 369.80 93.10 622.00
DSCMET_COMPS 2018-07-17 08:25:00 17.650 18.570 19.400 20.320 21.310 79.720 14.120 4.094 263.000 263.700 261.900 23.030 52.040 12.658 13.497 44.930 263.300 262.500 0.0200 62.370 0.275 314.800 452.50 367.90 89.40 606.60
DSCMET_COMPS 2018-07-17 08:20:00 17.390 18.300 19.110 20.040 20.950 80.400 14.000 3.892 262.900 263.900 261.900 22.790 54.530 13.151 12.612 44.580 263.300 262.400 0.0790 82.700 0.198 174.100 445.70 366.20 83.20 592.20
DSCMET_COMPS 2018-07-17 08:15:00 17.080 18.020 18.820 19.700 20.690 81.000 13.800 3.700 263.100 263.900 261.900 22.710 55.440 13.330 12.299 44.230 263.000 262.300 0.0290 126.200 0.120 150.500 438.80 365.20 76.82 577.30
DSCMET_COMPS 2018-07-17 08:10:00 16.760 17.750 18.530 19.380 20.440 82.400 13.750 3.359 263.200 263.900 261.900 22.260 56.420 13.180 11.705 43.770 262.900 262.300 0.0160 244.900 0.144 108.000 432.10 363.00 69.23 562.20
DSCMET_COMPS 2018-07-17 08:05:00 16.460 17.510 18.280 19.150 20.180 83.600 13.690 3.070 263.200 263.900 262.300 22.310 55.670 13.021 11.942 43.090 262.900 262.400 0.0450 113.600 0.199 138.600 426.00 361.10 60.83 547.40
DSCMET_COMPS 2018-07-17 08:00:00 16.200 17.230 18.020 19.000 19.880 84.000 13.510 2.946 263.200 263.900 262.600 22.180 57.600 13.422 11.333 42.450 263.200 262.600 0.1070 88.700 0.094 112.800 420.50 359.80 52.78 531.70
DSCMET_COMPS 2018-07-17 07:55:00 16.030 16.950 17.720 18.730 19.660 84.800 13.490 2.769 263.200 263.900 262.600 21.810 58.700 13.366 10.792 42.310 262.900 262.600 0.0800 87.500 0.098 96.800 415.20 359.20 44.64 516.00
DSCMET_COMPS 2018-07-17 07:50:00 15.870 16.670 17.470 18.380 19.320 85.100 13.380 2.687 263.200 263.900 262.600 21.490 59.740 13.336 10.317 42.100 262.500 262.900 0.1080 87.100 0.110 108.800 410.10 356.60 38.58 499.70
DSCMET_COMPS 2018-07-17 07:45:00 15.590 16.390 17.140 18.000 19.140 86.000 13.260 2.479 263.200 263.900 262.600 21.000 61.770 13.388 9.507 41.790 262.600 263.000 0.1200 86.800 0.141 122.200 406.00 355.40 32.55 484.60
DSCMET_COMPS 2018-07-17 07:40:00 15.420 16.150 16.870 17.650 18.690 86.400 13.170 2.383 263.200 263.900 262.600 20.820 62.340 13.359 9.262 42.120 263.000 263.200 0.0970 83.500 0.080 49.970 401.40 352.70 26.47 468.80
DSCMET_COMPS 2018-07-17 07:35:00 15.230 15.950 16.570 17.390 18.430 86.800 13.060 2.284 263.200 263.900 262.600 20.380 63.650 13.262 8.701 42.450 263.200 263.300 0.1310 85.800 0.147 242.000 397.80 351.20 21.22 454.10
DSCMET_COMPS 2018-07-17 07:30:00 15.050 15.750 16.340 17.200 18.070 87.200 12.960 2.190 263.100 263.900 262.600 19.990 64.710 13.146 8.246 42.390 263.600 263.300 0.0490 96.300 0.085 303.000 394.50 349.60 16.88 438.80
DSCMET_COMPS 2018-07-17 07:25:00 14.890 15.520 16.100 16.870 17.690 87.500 12.850 2.116 262.900 263.900 262.600 19.640 66.020 13.121 7.769 42.120 263.600 263.300   0.000 0.084 42.840 392.10 347.80 14.18 409.50
DSCMET_COMPS 2018-07-17 07:20:00 14.690 15.320 15.910 16.680 17.480 87.700 12.700 2.056 262.800 263.900 262.600 18.730 67.490 12.591 7.024 42.110 263.600 263.400 0.1730 84.800 0.242 33.440 391.40 342.20 12.74 237.50
DSCMET_COMPS 2018-07-17 07:15:00 14.540 15.130 15.680 16.440 17.360 88.000 12.580 1.986 262.600 263.900 262.600 18.240 69.410 12.551 6.409 41.790 263.500 263.400 0.2440 82.600 0.336 33.640 390.20 338.90 10.59 85.30
DSCMET_COMPS 2018-07-17 07:10:00 14.400 14.970 15.540 16.290 17.190 88.100 12.470 1.952 262.600 263.900 262.600 17.790 70.820 12.426 5.943 41.790 263.900 263.400 0.2390 84.000 0.665 46.510 388.80 337.70 8.59 66.86
DSCMET_COMPS 2018-07-17 07:05:00 14.300 14.820 15.390 16.100 16.680 88.200 12.400 1.923 262.600 263.900 262.600 17.590 71.440 12.367 5.744 41.800 264.200 263.400 0.2580 82.300 0.851 52.260 388.00 336.50 7.26 46.31
DSCMET_COMPS 2018-07-17 07:00:00 14.200 14.650 15.260 16.140 16.460 88.200 12.300 1.911 262.600 263.900 262.600 17.280 72.400 12.273 5.443 41.800 264.100 263.400 0.2680 82.900 0.701 47.920 386.90 335.50 6.13 44.24
DSCMET_COMPS 2018-07-17 06:55:00 14.120 14.490 15.000 16.030 16.300 88.100 12.200 1.917 262.600 263.900 262.600 17.150 72.810 12.233 5.318 41.770 264.100 263.700 0.2540 76.460 0.669 46.880 386.00 335.00 5.15 42.48
DSCMET_COMPS 2018-07-17 06:50:00 14.110 14.350 14.870 16.080 16.130 87.900 12.160 1.948 262.600 263.900 262.600 17.030 73.010 12.160 5.239 41.600 264.100 263.700 0.2730 82.000 0.581 54.090 385.00 334.30 4.36 41.10
DSCMET_COMPS 2018-07-17 06:45:00 14.020 14.260 14.760 15.780 16.030 88.000 12.080 1.921 262.600 263.900 262.600 16.740 74.020 12.089 4.951 41.570 264.100 263.700 0.2610 86.300 0.468 53.920 384.10 333.60 3.89 39.30
DSCMET_COMPS 2018-07-17 06:40:00 13.970 14.180 14.590 15.580 15.810 88.200 12.060 1.883 262.600 263.900 262.600 16.510 75.000 12.067 4.695 41.590 264.100 263.800 0.2430 81.200 0.452 52.410 383.00 332.80 2.99 37.39
DSCMET_COMPS 2018-07-17 06:35:00 13.860 14.050 14.350 15.400 15.660 88.100 11.930 1.885 262.600 263.900 262.600 16.130 76.290 11.958 4.347 41.800 264.100 263.800 0.2120 80.300 0.607 51.740 382.10 332.20 2.01 34.92
DSCMET_COMPS 2018-07-17 06:30:00 13.860 13.960 14.200 15.410 15.500 87.600 11.850 1.964 262.600 263.800 262.600 15.880 77.040 11.865 4.142 41.970 264.100 263.800 0.2360 82.900 0.634 63.400 381.20 331.50 1.30 31.72
DSCMET_COMPS 2018-07-17 06:25:00 13.860 13.890 14.090 15.190 15.440 87.500 11.830 1.980 262.600 263.600 262.600 15.730 77.380 11.786 4.042 44.730 264.100 263.800 0.2960 86.200 0.941 59.490 380.30 330.70 0.56 27.97
DSCMET_COMPS 2018-07-17 06:20:00 13.730 13.830 14.040 15.010 15.310 87.900 11.770 1.901 262.600 263.400 262.600 15.540 77.610 11.647 3.953 44.460 264.100 263.800 0.2700 82.500 1.427 54.850 379.80 330.10 -0.06 25.20
DSCMET_COMPS 2018-07-17 06:15:00 13.740 13.780 13.830 14.610 15.090 87.600 11.730 1.949 262.600 263.300 262.600 15.350 78.450 11.625 3.758 44.460 264.100 263.800   0.000 1.025 53.180 379.20 329.50 -0.30 22.93
DSCMET_COMPS 2018-07-17 06:10:00 13.670 13.740 13.780 14.490 15.010 87.600 11.670 1.940 262.600 263.200 262.600 15.170 79.020 11.560 3.617 44.180 264.100 263.800 0.2310 75.280 1.155 53.430 378.70 329.30 -0.53 21.23
DSCMET_COMPS 2018-07-17 06:05:00 13.660 13.690 13.710 14.170 14.710 87.300 11.610 1.986 262.600 263.200 262.600 15.100 79.880 11.655 3.453 44.140 264.100 264.000 0.1910 79.560 0.289 49.870 378.30 328.80 -0.66 19.45
DSCMET_COMPS 2018-07-17 06:00:00 13.630 13.680 13.700 14.310 14.560 87.400 11.580 1.966 262.600 263.200 262.600 14.890 80.400 11.549 3.319 44.140 264.100 263.800 0.2030 81.100 0.666 55.960 377.80 328.50 -0.89 17.91
DSCMET_COMPS 2018-07-17 05:55:00 13.640 13.680 13.650 14.210 14.550 87.300 11.570 1.983 262.600 263.200 262.600 14.730 80.800 11.468 3.217 44.140 264.200 263.800 0.1820 83.100 1.252 56.390 377.20 328.30 -1.00 16.36
DSCMET_COMPS 2018-07-17 05:50:00 13.550 13.690 13.610 13.830 14.440 87.300 11.500 1.972 262.600 263.200 262.500 14.780 80.400 11.442 3.295 44.120 264.300 263.900 0.1720 76.750 0.990 51.740 376.90 327.80 -1.08 15.13
DSCMET_COMPS 2018-07-17 05:45:00 13.570 13.660 13.630 13.730 14.110 87.100 11.490 2.005 262.600 263.200 262.200 14.770 80.800 11.507 3.226 44.140 264.500 264.200 0.1740 68.030 0.531 60.780 376.60 327.90 -1.27 13.67
DSCMET_COMPS 2018-07-17 05:40:00 13.620 13.650 13.640 13.660 13.660 87.000 11.510 2.027 262.600 263.200 262.200 14.600 81.900 11.546 3.008 44.140 264.500 264.200 0.1320 69.040 0.301 30.550 376.00 327.70 -1.35 12.22
DSCMET_COMPS 2018-07-17 05:35:00 13.590 13.710 13.650 13.660 13.620 87.000 11.470 2.023 262.600 263.200 262.000 14.380 82.200 11.386 2.916 44.140 264.200 264.200 0.1960 75.110 0.683 61.760 375.70 327.50 -1.48 10.65
DSCMET_COMPS 2018-07-17 05:30:00 13.690 13.770 13.620 13.640 13.650 86.700 11.530 2.084 262.600 263.200 261.900 14.260 82.900 11.397 2.780 44.450 264.200 264.200 0.1610 67.810 0.695 45.100 375.50 327.50 -1.50 9.32
DSCMET_COMPS 2018-07-17 05:25:00 13.710 13.750 13.710 13.750 13.690 86.900 11.580 2.055 262.600 263.200 261.900 14.260 82.800 11.379 2.796 52.050 264.200 264.200 0.1690 67.110 0.350 71.200 375.30 327.30 -1.62 7.87
DSCMET_COMPS 2018-07-17 05:20:00 13.700 13.760 13.770 13.810 13.820 86.800 11.540 2.069 262.600 263.200 261.900 14.290 82.600 11.372 2.834 59.880 264.200 264.200 0.2120 73.290 1.100 69.430 374.80 327.60 -1.79 6.43
DSCMET_COMPS 2018-07-17 05:15:00 13.660 13.760 13.740 13.690 13.690 86.600 11.470 2.095 262.600 263.200 261.900 14.080 84.000 11.420 2.571 51.870 264.200 264.200 0.1880 63.460 0.561 58.730 374.60 327.80 -2.01 4.74
DSCMET_COMPS 2018-07-17 05:10:00 13.640 13.790 13.720 13.660 13.640 86.800 11.490 2.061 262.600 263.200 261.900 13.940 84.600 11.390 2.452 48.250 264.200 264.200   0.000 0.509 354.500 374.60 327.40 -2.09 2.96
DSCMET_COMPS 2018-07-17 05:05:00 13.610 13.800 13.760 13.760 13.750 86.800 11.470 2.057 262.600 263.200 261.900 14.080 84.000 11.420 2.571 47.740 264.200 264.200   0.000 0.851 38.520 374.60 327.70 -2.17 1.48
DSCMET_COMPS 2018-07-17 05:00:00 13.660 13.750 13.710 13.650 13.580 86.900 11.520 2.048 262.600 263.200 261.900 13.990 84.700 11.457 2.444 56.730 264.200 264.200 0.1570 63.160 0.373 46.090 374.40 327.90 -2.28 -0.07
DSCMET_COMPS 2018-07-17 04:55:00 13.720 13.780 13.700 13.640 13.560 86.700 11.550 2.088 262.600 263.200 261.900 13.880 85.500 11.491 2.300 51.010 264.200 264.200 0.1820 63.330 0.204 62.570 374.50 328.00 -2.34 -1.37
DSCMET_COMPS 2018-07-17 04:50:00 13.780 13.860 13.770 13.750 13.730 86.700 11.610 2.096 262.600 263.200 261.900 14.090 84.300 11.483 2.524 51.120 264.200 263.800 0.1770 68.890 0.224 64.320 374.70 328.10 -2.44 -2.62
DSCMET_COMPS 2018-07-17 04:45:00 13.810 13.860 13.820 13.790 13.720 86.500 11.600 2.131 262.600 263.200 261.900 14.290 83.300 11.499 2.720 54.840 264.100 263.800 0.1660 63.990 0.555 77.890 374.50 328.30 -2.53 -3.98
DSCMET_COMPS 2018-07-17 04:40:00 13.880 13.930 13.870 13.850 13.780 86.100 11.600 2.205 262.600 263.200 261.900 14.370 83.000 11.523 2.783 50.910 264.200 263.800 0.1600 70.380 0.466 73.740 374.60 328.30 -2.59 -4.96
DSCMET_COMPS 2018-07-17 04:35:00 13.910 13.990 13.930 13.890 13.860 85.800 11.590 2.257 262.500 263.200 261.900 14.390 82.900 11.524 2.803 48.630 264.200 263.800 0.1460 66.030 0.542 63.720 374.80 328.60 -2.75 -5.53
DSCMET_COMPS 2018-07-17 04:30:00 14.010 14.050 13.950 13.930 14.010 85.700 11.670 2.287 262.300 263.200 261.900 14.580 81.800 11.508 3.021 48.800 264.200 263.800 0.1690 72.270 0.715 67.840 375.30 328.80 -2.80 -6.06
DSCMET_COMPS 2018-07-17 04:25:00 14.030 14.090 13.920 13.930 13.870 85.500 11.660 2.322 262.100 263.200 261.900 14.700 81.200 11.514 3.144 60.880 264.200 263.800 0.1790 71.980 0.851 62.340 375.70 328.90 -2.86 -6.37
DSCMET_COMPS 2018-07-17 04:20:00 14.140 14.180 14.010 13.980 13.970 85.400 11.730 2.355 262.400 263.200 261.900 14.640 81.500 11.511 3.082 47.850 264.200 263.800 0.1430 83.300 0.606 70.340 375.30 329.50 -2.96 -6.62
DSCMET_COMPS 2018-07-17 04:15:00 14.290 14.240 14.160 14.190 14.150 85.000 11.820 2.443 262.200 263.200 261.900 14.620 81.700 11.528 3.045 47.540 264.100 263.800 0.1820 84.800 0.418 76.460 375.40 329.60 -3.00 -6.83
DSCMET_COMPS 2018-07-17 04:10:00 14.240 14.300 14.230 14.280 14.210 85.000 11.760 2.435 262.000 263.200 261.900 14.790 80.900 11.545 3.213 47.190 264.100 263.800 0.1790 79.790 0.837 69.210 376.30 329.80 -2.92 -6.74
DSCMET_COMPS 2018-07-17 04:05:00 14.230 14.380 14.300 14.330 14.280 84.700 11.710 2.482 261.900 263.200 261.900 14.720 81.600 11.607 3.081 47.270 264.000 263.800 0.1250 80.600 0.537 67.970 376.30 330.10 -2.89 -6.62
DSCMET_COMPS 2018-07-17 04:00:00 14.310 14.420 14.330 14.380 14.330 84.500 11.750 2.528 261.900 263.200 261.900 14.720 81.800 11.644 3.048 48.050 263.800 263.800   0.000 0.353 72.130 376.80 330.50 -2.95 -6.68
DSCMET_COMPS 2018-07-17 03:55:00 14.370 14.490 14.370 14.420 14.410 84.300 11.780 2.570 261.900 263.200 261.900 14.840 81.100 11.631 3.190 50.160 263.800 263.800 0.1680 79.160 0.499 67.950 376.50 331.10 -3.03 -6.87
DSCMET_COMPS 2018-07-17 03:50:00 14.480 14.520 14.430 14.460 14.400 84.200 11.850 2.605 261.900 263.200 261.900 14.800 81.600 11.685 3.097 47.140 263.800 263.500 0.1570 78.090 0.360 68.420 376.90 331.20 -2.99 -6.86
DSCMET_COMPS 2018-07-17 03:45:00 14.530 14.600 14.540 14.590 14.520 84.000 11.870 2.647 261.900 263.200 261.900 15.030 80.200 11.648 3.383 46.920 263.800 263.500 0.1860 81.200 0.549 74.280 377.60 331.50 -2.99 -6.78
DSCMET_COMPS 2018-07-17 03:40:00 14.550 14.680 14.570 14.560 14.500 83.800 11.860 2.683 261.900 263.200 261.900 15.120 79.670 11.635 3.494 55.200 263.800 263.500 0.1330 86.200 0.705 68.760 377.90 331.70 -3.05 -6.89
DSCMET_COMPS 2018-07-17 03:35:00 14.580 14.730 14.630 14.610 14.570 83.700 11.860 2.705 261.900 263.200 261.900 15.180 79.320 11.627 3.567 51.050 263.800 263.500 0.1590 82.100 0.509 76.470 377.90 332.00 -3.06 -6.97
DSCMET_COMPS 2018-07-17 03:30:00 14.670 14.760 14.710 14.720 14.660 83.500 11.920 2.754 261.900 263.200 261.900 15.170 79.600 11.670 3.517 48.980 263.800 263.500 0.1740 78.990 0.486 74.520 377.90 332.30 -3.04 -6.89
DSCMET_COMPS 2018-07-17 03:25:00 14.690 14.820 14.800 14.830 14.800 83.300 11.910 2.791 261.900 263.200 261.900 15.230 79.440 11.698 3.558 54.470 263.800 263.500 0.1740 77.810 0.560 70.590 378.50 332.50 -3.04 -6.84
DSCMET_COMPS 2018-07-17 03:20:00 14.780 14.890 14.840 14.800 14.750 83.100 11.960 2.841 261.900 263.200 261.900 15.100 80.300 11.735 3.381 50.570 263.800 263.500 0.1590 77.260 0.174 52.570 379.10 332.80 -3.06 -6.88
DSCMET_COMPS 2018-07-17 03:15:00 14.840 14.910 14.880 14.870 14.840 82.900 11.980 2.886 261.900 263.200 261.900 15.280 79.350 11.730 3.585 47.780 263.800 263.500 0.1660 76.700 0.330 81.400 379.40 333.10 -2.99 -6.97
DSCMET_COMPS 2018-07-17 03:10:00 14.940 15.000 14.900 14.870 14.980 83.100 12.110 2.871 261.900 263.200 261.900 15.280 79.560 11.770 3.549 49.640 263.800 263.500 0.1710 77.440 0.376 70.180 379.90 333.10 -3.00 -6.88
DSCMET_COMPS 2018-07-17 03:05:00 15.030 15.030 14.970 14.980 15.020 82.900 12.170 2.922 261.900 263.200 261.900 15.510 78.170 11.726 3.846 58.930 263.800 263.500 0.1680 79.450 0.471 72.590 380.00 333.50 -2.99 -6.92
DSCMET_COMPS 2018-07-17 03:00:00 15.050 15.120 15.070 15.060 14.980 82.400 12.100 3.011 261.900 263.100 261.900 15.560 77.970 11.736 3.894 48.290 263.800 263.400 0.1520 80.000 0.743 65.170 380.60 333.50 -2.94 -6.86
DSCMET_COMPS 2018-07-17 02:55:00 15.190 15.230 15.130 15.120 15.070 82.400 12.230 3.038 261.900 263.100 261.900 15.730 77.150 11.741 4.083 47.400 263.800 263.300 0.1670 84.000 0.537 63.540 380.60 334.20 -2.97 -6.88
DSCMET_COMPS 2018-07-17 02:50:00 15.230 15.310 15.170 15.080 15.110 82.100 12.210 3.098 261.900 263.000 261.900 15.820 76.820 11.763 4.166 47.110 263.700 263.200   0.000 0.924 58.740 380.60 334.40 -2.98 -6.81
DSCMET_COMPS 2018-07-17 02:45:00 15.250 15.310 15.150 15.150 15.230 81.700 12.150 3.171 261.900 262.900 261.900 15.780 77.290 11.817 4.071 46.880 263.400 263.100 0.1010 78.490 0.546 64.520 381.20 334.50 -2.97 -6.73
DSCMET_COMPS 2018-07-17 02:40:00 15.300 15.350 15.290 15.300 15.350 81.800 12.210 3.164 261.900 262.800 261.900 15.880 76.760 11.809 4.193 46.780 263.400 263.100 0.1480 85.500 0.619 72.820 381.50 334.90 -3.00 -6.81
DSCMET_COMPS 2018-07-17 02:35:00 15.340 15.410 15.380 15.370 15.310 81.700 12.240 3.189 261.900 262.600 261.700 15.840 77.060 11.830 4.128 46.680 263.400 263.100 0.1190 84.600 0.594 70.800 382.10 335.20 -3.01 -6.81
DSCMET_COMPS 2018-07-17 02:30:00 15.480 15.490 15.490 15.440 15.360 81.400 12.320 3.271 261.900 262.600 261.500 16.000 76.230 11.821 4.322 46.450 263.400 263.100 0.1630 85.700 0.443 67.100 382.40 335.80 -3.07 -6.97
DSCMET_COMPS 2018-07-17 02:25:00 15.530 15.570 15.550 15.520 15.450 81.000 12.300 3.352 261.900 262.600 261.200 16.160 75.220 11.773 4.552 46.300 263.400 263.100 0.1570 85.800 0.685 62.140 382.40 336.20 -3.10 -6.91
DSCMET_COMPS 2018-07-17 02:20:00 15.660 15.670 15.660 15.640 15.570 81.000 12.420 3.380 261.900 262.600 261.200 16.090 75.760 11.814 4.433 47.060 263.400 263.100 0.1980 84.500 0.369 63.220 382.80 336.60 -3.10 -7.11
DSCMET_COMPS 2018-07-17 02:15:00 15.690 15.790 15.800 15.820 15.800 80.700 12.400 3.440 261.900 262.600 261.200 16.250 75.170 11.850 4.587 49.220 263.400 263.100 0.1740 87.900 0.666 59.230 383.20 337.00 -3.09 -7.19
DSCMET_COMPS 2018-07-17 02:10:00 15.740 15.860 15.860 15.910 15.840 80.400 12.380 3.505 261.900 262.600 261.200 16.320 74.960 11.875 4.646 47.340 263.400 263.100 0.1530 87.300 0.877 61.680 383.80 337.20 -3.06 -7.17
DSCMET_COMPS 2018-07-17 02:05:00 15.770 15.900 15.870 15.870 15.810 80.100 12.360 3.565 261.900 262.600 261.200 16.200 75.760 11.920 4.464 48.270 263.400 263.100 0.1490 81.700 0.397 64.340 384.30 337.50 -3.05 -6.99
DSCMET_COMPS 2018-07-17 02:00:00 15.830 15.920 15.890 15.880 15.860 80.100 12.430 3.579 261.900 262.600 261.200 16.220 75.610 11.910 4.497 57.830 263.400 263.100 0.1720 83.500 0.207 62.420 384.70 337.70 -3.01 -6.94
DSCMET_COMPS 2018-07-17 01:55:00 15.900 15.940 15.930 15.930 15.930 80.000 12.470 3.613 261.900 262.600 261.200 16.420 74.740 11.927 4.717 118.100 263.400 263.100 0.1240 83.400 0.387 77.180 385.00 337.90 -2.99 -6.89
DSCMET_COMPS 2018-07-17 01:50:00 16.060 16.020 15.990 15.960 15.880 79.810 12.590 3.685 261.900 262.600 261.200 16.240 76.000 12.007 4.431 139.400 263.400 262.900 0.1380 84.800 0.355 67.760 384.80 338.20 -3.07 -7.17
DSCMET_COMPS 2018-07-17 01:45:00 16.080 16.150 16.140 16.140 16.120 79.630 12.570 3.722 261.900 262.600 261.200 16.430 75.030 11.996 4.666 138.100 263.400 262.800 0.1600 86.500 0.258 54.550 385.60 338.20 -3.11 -6.96
DSCMET_COMPS 2018-07-17 01:40:00 16.080 16.220 16.190 16.190 16.150 79.230 12.500 3.796 261.900 262.600 261.200 16.570 74.670 12.058 4.776 138.200 263.400 263.000   0.000 0.721 62.430 385.80 338.60 -3.18 -7.14
DSCMET_COMPS 2018-07-17 01:35:00 16.180 16.290 16.250 16.260 16.200 79.020 12.550 3.858 261.900 262.600 261.200 16.650 74.320 12.064 4.866 132.900 263.400 262.700 0.1320 87.000 0.369 63.600 385.80 338.80 -3.14 -7.08
DSCMET_COMPS 2018-07-17 01:30:00 16.180 16.310 16.300 16.350 16.270 78.880 12.530 3.884 261.900 262.600 261.200 16.870 73.060 12.016 5.177 131.900 263.300 262.700 0.1640 85.300 0.613 66.520 386.20 339.40 -3.11 -6.93
DSCMET_COMPS 2018-07-17 01:25:00 16.280 16.390 16.340 16.330 16.240 78.610 12.570 3.959 261.900 262.600 261.200 16.730 73.940 12.063 4.963 130.300 263.100 262.700 0.1120 80.800 0.279 71.410 386.30 340.00 -3.16 -6.99
DSCMET_COMPS 2018-07-17 01:20:00 16.410 16.440 16.390 16.410 16.400 78.430 12.660 4.026 261.900 262.600 261.200 17.000 72.600 12.045 5.309 130.100 263.100 262.700 0.1270 85.900 0.350 72.200 386.80 340.00 -3.09 -6.84
DSCMET_COMPS 2018-07-17 01:15:00 16.460 16.570 16.520 16.510 16.460 78.320 12.690 4.059 261.900 262.600 261.200 16.990 72.860 12.090 5.255 129.700 263.100 262.700 0.1410 86.500 0.627 62.920 387.10 340.70 -3.16 -6.92
DSCMET_COMPS 2018-07-17 01:10:00 16.560 16.680 16.620 16.650 16.580 77.760 12.680 4.190 261.900 262.600 261.200 17.210 71.910 12.102 5.515 129.400 263.100 262.700 0.1940 88.400 0.585 63.980 387.20 340.50 -3.23 -7.21
DSCMET_COMPS 2018-07-17 01:05:00 16.600 16.740 16.700 16.790 16.770 77.430 12.660 4.263 261.900 262.600 261.200 17.300 71.550 12.112 5.618 129.000 263.100 262.700 0.1610 86.100 0.450 67.010 387.50 340.70 -3.24 -7.09
DSCMET_COMPS 2018-07-17 01:00:00 16.710 16.820 16.780 16.730 16.640 77.440 12.760 4.291 261.900 262.600 261.200 17.120 72.710 12.184 5.328 129.000 263.100 262.700 0.1460 80.100 0.303 52.520 387.60 341.40 -3.26 -7.14
DSCMET_COMPS 2018-07-17 00:55:00 16.820 16.910 16.860 16.870 16.850 77.420 12.870 4.325 261.900 262.600 261.200 17.290 71.990 12.196 5.528 129.000 263.100 262.700 0.1460 89.000 0.135 64.540 388.20 341.50 -3.22 -7.16
DSCMET_COMPS 2018-07-17 00:50:00 16.940 16.990 16.960 16.960 16.890 77.110 12.910 4.418 261.900 262.600 261.200 17.460 71.130 12.177 5.759 129.200 263.000 262.600 0.1600 85.900 0.599 64.120 388.50 341.90 -3.26 -7.08
DSCMET_COMPS 2018-07-17 00:45:00 16.950 17.070 17.080 17.130 17.040 77.090 12.920 4.425 261.900 262.600 261.200 17.670 70.120 12.161 6.040 129.700 263.000 262.400 0.1980 86.300 0.334 68.930 389.30 342.40 -3.24 -7.05
DSCMET_COMPS 2018-07-17 00:40:00 17.110 17.190 17.170 17.240 17.210 77.090 13.080 4.470 261.900 262.600 261.200 17.800 69.430 12.135 6.230 133.400 263.000 262.400 0.1980 89.900 0.636 55.490 389.80 342.60 -3.18 -7.14
DSCMET_COMPS 2018-07-17 00:35:00 17.110 17.290 17.140 17.190 17.290 76.490 12.960 4.587 261.800 262.600 261.200 17.940 68.940 12.161 6.386 136.600 263.000 262.400   0.000 0.640 53.700 389.90 343.10 -3.16 -7.12
DSCMET_COMPS 2018-07-17 00:30:00 17.140 17.300 17.270 17.310 17.410 76.320 12.950 4.629 261.400 262.600 261.200 17.930 69.040 12.173 6.361 135.000 263.000 262.600 0.1270 85.600 0.704 67.640 390.20 343.70 -3.14 -7.11
DSCMET_COMPS 2018-07-17 00:25:00 17.230 17.330 17.330 17.330 17.310 76.450 13.070 4.630 261.400 262.600 261.200 17.760 70.160 12.255 6.066 137.600 263.000 262.400 0.1820 81.600 0.323 67.520 391.30 344.30 -3.10 -6.94
DSCMET_COMPS 2018-07-17 00:20:00 17.290 17.390 17.350 17.300 17.260 76.240 13.080 4.689 261.300 262.600 261.200 17.710 70.410 12.262 5.996 129.400 263.000 262.400 0.1610 84.100 0.210 51.860 391.90 344.60 -3.09 -6.92
DSCMET_COMPS 2018-07-17 00:15:00 17.390 17.500 17.440 17.410 17.410 76.070 13.140 4.752 261.200 262.600 261.200 17.880 69.850 12.303 6.175 124.500 263.000 262.400 0.1800 84.100 0.216 66.260 392.10 345.20 -3.16 -7.02
DSCMET_COMPS 2018-07-17 00:10:00 17.450 17.560 17.520 17.510 17.550 75.340 13.060 4.916 261.200 262.600 261.200 18.160 68.630 12.303 6.539 124.100 262.800 262.400 0.1630 84.900 0.440 58.050 392.30 345.20 -3.09 -7.10
DSCMET_COMPS 2018-07-17 00:05:00 17.580 17.640 17.600 17.610 17.700 75.670 13.250 4.890 261.200 262.400 261.200 18.140 69.230 12.416 6.406 124.000 262.700 262.400 0.1880 66.900 0.346 76.420 392.60 345.60 -3.08 -7.03
DSCMET_COMPS 2018-07-17 00:00:00 17.720 17.750 17.730 17.730 17.780 75.390 13.320 4.990 261.200 262.100 261.200 18.160 68.950 12.373 6.473 123.700 262.700 262.400 0.1810 85.200 0.222 70.820 393.00 346.20 -3.14 -7.07
DSCMET_COMPS 2018-07-16 23:55:00 17.750 17.880 17.850 17.830 17.850 75.170 13.310 5.044 261.200 262.000 261.100 18.430 67.680 12.348 6.853 123.700 262.700 262.300 0.2430 86.200 0.326 63.490 393.60 346.50 -3.14 -6.99
DSCMET_COMPS 2018-07-16 23:50:00 17.860 17.990 17.890 17.890 17.920 75.040 13.390 5.106 261.200 262.000 260.800 18.720 66.570 12.373 7.218 123.800 262.700 262.300 0.2220 88.000 0.756 56.500 394.40 346.60 -3.13 -7.00
DSCMET_COMPS 2018-07-16 23:45:00 17.900 18.030 17.970 18.000 18.010 74.700 13.360 5.189 261.200 261.900 260.500 18.740 66.420 12.357 7.259 123.900 262.700 262.300 0.1580 83.400 0.594 68.330 394.80 346.70 -3.12 -7.04
DSCMET_COMPS 2018-07-16 23:40:00 18.020 18.120 18.110 18.220 18.220 74.660 13.470 5.236 261.200 261.900 260.500 18.720 66.870 12.441 7.153 124.000 262.700 262.100 0.2030 89.900 0.353 72.820 395.00 346.60 -3.08 -7.04
DSCMET_COMPS 2018-07-16 23:35:00 18.110 18.250 18.220 18.220 18.240 73.520 13.320 5.503 261.200 261.900 260.500 18.840 66.470 12.464 7.294 124.000 262.700 262.200 0.2650 81.700 0.763 57.000 395.00 347.00 -3.12 -7.00
DSCMET_COMPS 2018-07-16 23:30:00 18.190 18.330 18.320 18.340 18.410 73.240 13.340 5.589 261.200 261.900 260.500 18.940 66.190 12.495 7.401 123.900 262.700 262.000 0.1980 86.200 0.615 55.380 395.20 347.50 -3.13 -7.04
DSCMET_COMPS 2018-07-16 23:25:00 18.190 18.400 18.390 18.420 18.560 75.430 13.790 5.132 261.200 261.900 260.500 18.970 65.940 12.466 7.470 123.700 262.700 262.000   0.000 0.370 57.830 396.10 347.80 -3.18 -7.02
DSCMET_COMPS 2018-07-16 23:20:00 18.260 18.550 18.510 18.510 18.580 76.650 14.100 4.898 261.200 261.900 260.500 19.190 65.240 12.512 7.728 123.900 262.700 262.000 0.1640 94.200 0.613 60.030 396.40 347.80 -3.30 -7.22
DSCMET_COMPS 2018-07-16 23:15:00 18.480 18.690 18.580 18.620 18.710 73.380 13.640 5.662 261.200 261.900 260.500 19.380 64.390 12.492 8.011 124.000 262.700 262.000 0.1540 88.400 0.400 48.820 396.50 348.20 -3.39 -7.37
DSCMET_COMPS 2018-07-16 23:10:00 18.600 18.720 18.730 18.800 18.930 72.220 13.510 5.953 261.200 261.900 260.500 19.330 64.720 12.523 7.913 123.900 262.600 262.000 0.2550 78.750 0.254 68.110 397.20 348.70 -3.32 -7.33
DSCMET_COMPS 2018-07-16 23:05:00 18.720 18.830 18.820 18.850 18.890 72.470 13.680 5.944 261.200 261.900 260.500 19.400 64.800 12.608 7.929 123.900 262.500 262.000 0.2030 86.000 0.234 65.240 397.50 349.10 -3.37 -7.40
DSCMET_COMPS 2018-07-16 23:00:00 18.780 18.890 18.900 18.920 18.980 72.660 13.780 5.925 261.200 261.900 260.500 19.480 64.550 12.625 8.025 124.000 262.300 262.000 0.2070 82.600 0.321 77.460 398.10 350.10 -3.24 -7.47
DSCMET_COMPS 2018-07-16 22:55:00 18.820 19.010 19.040 19.100 19.100 71.960 13.670 6.092 261.200 261.900 260.500 19.680 63.490 12.562 8.368 123.800 262.300 261.900 0.2950 80.700 0.429 69.910 398.70 350.30 -3.26 -7.32
DSCMET_COMPS 2018-07-16 22:50:00 18.880 19.110 19.160 19.230 19.300 72.600 13.870 5.975 261.200 261.900 260.500 19.940 62.690 12.614 8.691 123.700 262.300 262.000 0.2340 86.700 0.517 64.560 399.20 351.20 -3.24 -7.36
DSCMET_COMPS 2018-07-16 22:45:00 19.060 19.270 19.290 19.360 19.400 72.310 13.980 6.107 261.200 261.900 260.500 20.110 62.180 12.650 8.903 123.800 262.300 262.000 0.2630 89.500 1.016 59.210 399.80 351.70 -3.33 -7.46
DSCMET_COMPS 2018-07-16 22:40:00 19.140 19.360 19.320 19.340 19.460 71.710 13.930 6.270 261.200 261.900 260.500 20.040 62.680 12.706 8.747 123.700 262.300 261.800 0.1800 77.610 0.757 54.140 400.80 351.90 -3.21 -7.47
DSCMET_COMPS 2018-07-16 22:35:00 19.210 19.430 19.460 19.490 19.480 71.710 13.990 6.298 261.200 261.900 260.500 20.230 61.820 12.675 9.054 123.700 262.300 261.700 0.2350 83.300 0.459 62.430 401.80 352.20 -3.18 -7.25
DSCMET_COMPS 2018-07-16 22:30:00 19.350 19.580 19.570 19.660 19.640 70.180 13.790 6.696 261.200 261.900 260.500 20.450 61.040 12.688 9.366 123.700 262.300 261.700 0.2720 78.880 0.858 59.160 402.00 352.90 -3.17 -7.31
DSCMET_COMPS 2018-07-16 22:25:00 19.380 19.660 19.700 19.740 19.800 71.190 14.040 6.482 261.200 261.900 260.500 20.480 61.080 12.726 9.373 123.600 262.300 261.600 0.2290 84.000 0.456 58.190 402.30 353.00 -3.14 -7.05
DSCMET_COMPS 2018-07-16 22:20:00 19.480 19.800 19.850 19.900 19.910 70.630 14.020 6.649 261.200 261.900 260.500 20.550 60.950 12.760 9.445 123.600 262.300 261.600 0.2610 86.600 0.771 55.660 402.40 353.60 -3.27 -7.08
DSCMET_COMPS 2018-07-16 22:15:00 19.650 19.940 19.960 20.010 20.010 70.830 14.220 6.674 261.200 261.900 260.500 20.600 60.510 12.696 9.581 123.500 262.300 261.600   0.000 0.699 49.330 403.00 354.20 -3.30 -7.23
DSCMET_COMPS 2018-07-16 22:10:00 19.670 20.030 20.060 20.090 20.090 70.830 14.240 6.682 261.200 261.900 260.500 20.710 60.400 12.772 9.673 123.500 262.300 261.600 0.1830 85.000 0.361 54.200 403.30 354.80 -3.27 -7.37
DSCMET_COMPS 2018-07-16 22:05:00 19.790 20.170 20.190 20.220 20.190 71.120 14.420 6.665 261.200 261.900 260.500 20.850 59.960 12.792 9.865 123.500 262.300 261.600 0.2240 88.300 0.363 55.510 403.80 355.00 -3.39 -7.41
DSCMET_COMPS 2018-07-16 22:00:00 20.010 20.290 20.240 20.280 20.290 68.730 14.100 7.316 261.200 261.900 260.500 21.090 59.240 12.832 10.192 123.500 262.300 261.600 0.2100 81.100 0.749 55.720 404.60 355.90 -3.31 -7.49
DSCMET_COMPS 2018-07-16 21:55:00 20.010 20.350 20.420 20.430 20.410 69.420 14.260 7.154 261.200 261.900 260.500 21.020 59.840 12.921 9.999 123.700 262.200 261.600 0.1800 74.300 0.331 72.300 405.20 356.30 -3.27 -7.40
DSCMET_COMPS 2018-07-16 21:50:00 20.040 20.480 20.600 20.620 20.620 69.790 14.380 7.081 261.200 261.700 260.400 21.190 59.520 12.998 10.184 123.700 262.300 261.600 0.2430 79.870 0.558 55.470 405.90 357.10 -3.41 -7.53
DSCMET_COMPS 2018-07-16 21:45:00 20.140 20.600 20.620 20.670 20.700 70.550 14.640 6.945 261.200 261.300 260.100 21.410 58.930 13.052 10.473 123.400 262.100 261.300 0.2300 86.300 0.735 45.640 406.10 357.10 -3.48 -7.58
DSCMET_COMPS 2018-07-16 21:40:00 20.300 20.730 20.720 20.730 20.760 69.000 14.450 7.384 261.200 261.200 259.900 22.020 55.510 12.708 11.776 123.300 262.000 261.600 0.2270 85.300 1.643 60.850 406.70 358.00 -3.43 -7.67
DSCMET_COMPS 2018-07-16 21:35:00 20.360 20.820 20.850 20.900 20.840 68.780 14.450 7.464 261.200 261.200 259.800 22.080 55.230 12.686 11.893 123.700 261.900 261.600 0.2170 69.710 1.054 66.230 407.30 358.30 -3.58 -7.66
DSCMET_COMPS 2018-07-16 21:30:00 20.510 20.980 21.010 21.100 21.070 68.400 14.510 7.625 261.200 261.200 259.800 22.050 55.940 12.854 11.683 123.700 261.900 261.600 0.2590 79.910 0.692 63.660 407.90 359.20 -3.52 -7.77
DSCMET_COMPS 2018-07-16 21:25:00 20.650 21.100 21.170 21.250 21.280 67.910 14.540 7.810 261.200 261.200 259.800 21.940 57.270 13.110 11.255 123.700 261.900 261.600 0.2200 76.320 0.765 55.410 408.80 359.50 -3.47 -7.80
DSCMET_COMPS 2018-07-16 21:20:00 20.680 21.210 21.280 21.350 21.350 68.570 14.710 7.663 261.200 261.200 259.800 21.970 57.710 13.255 11.159 123.700 261.900 261.400 0.2300 72.050 1.044 51.570 409.70 359.90 -3.43 -7.80
DSCMET_COMPS 2018-07-16 21:15:00 20.720 21.360 21.420 21.480 21.480 69.510 14.960 7.453 261.200 261.200 259.800 22.170 56.960 13.242 11.497 123.500 261.900 261.200 0.2000 79.200 0.937 56.000 410.60 360.50 -3.34 -7.59
DSCMET_COMPS 2018-07-16 21:10:00 20.910 21.530 21.540 21.650 21.700 67.510 14.690 8.035 261.200 261.200 259.800 22.450 56.200 13.297 11.900 123.100 261.900 261.200 0.1630 79.330 1.175 56.510 411.00 361.30 -3.37 -7.42
DSCMET_COMPS 2018-07-16 21:05:00 20.910 21.580 21.600 21.710 21.820 68.490 14.910 7.792 261.200 261.200 259.800 22.610 55.980 13.385 12.077 116.500 261.900 261.200   0.000 0.819 60.990 411.90 362.20 -3.41 -7.53
DSCMET_COMPS 2018-07-16 21:00:00 21.100 21.700 21.780 21.900 21.990 69.480 15.310 7.636 261.100 261.200 259.800 22.640 55.050 13.157 12.355 115.600 261.900 261.200 0.2010 84.700 0.772 63.320 412.70 362.40 -3.45 -7.52
DSCMET_COMPS 2018-07-16 20:55:00 21.250 21.860 21.930 21.930 22.090 69.100 15.370 7.803 261.000 261.200 259.800 22.610 56.280 13.467 11.995 115.400 261.800 261.200 0.1150 83.000 0.381 47.740 412.90 362.90 -3.64 -7.77
DSCMET_COMPS 2018-07-16 20:50:00 21.380 22.030 22.040 22.040 22.150 67.680 15.180 8.227 260.700 261.200 259.800 22.860 55.420 13.464 12.417 115.400 261.700 261.200 0.1310 84.700 0.797 55.100 413.10 363.70 -3.82 -8.03
DSCMET_COMPS 2018-07-16 20:45:00 21.480 22.160 22.170 22.270 22.360 67.610 15.250 8.295 260.500 261.200 259.800 22.870 55.840 13.589 12.308 115.600 261.700 261.200 0.1930 79.200 0.702 60.240 414.10 364.30 -3.63 -8.02
DSCMET_COMPS 2018-07-16 20:40:00 21.660 22.310 22.310 22.340 22.410 67.130 15.320 8.511 260.500 261.200 259.800 22.850 57.190 13.938 11.917 115.500 261.600 261.000 0.1710 84.100 0.634 52.650 415.10 364.70 -3.87 -8.08
DSCMET_COMPS 2018-07-16 20:35:00 21.740 22.390 22.450 22.480 22.590 67.000 15.360 8.587 260.500 261.200 259.800 23.760 52.760 13.542 13.893 115.400 261.500 261.000 0.0840 84.400 0.650 71.950 415.50 365.30 -4.04 -8.42
DSCMET_COMPS 2018-07-16 20:30:00 21.950 22.620 22.590 22.630 22.670 65.400 15.180 9.119 260.500 261.200 259.800 23.890 51.100 13.172 14.493 115.400 261.500 261.200 0.1970 84.900 1.330 64.460 416.40 365.80 -3.82 -8.36
DSCMET_COMPS 2018-07-16 20:25:00 22.060 22.780 22.790 22.840 22.860 66.260 15.490 8.952 260.500 261.200 259.800 23.770 52.760 13.551 13.901 115.300 261.500 261.200 0.2300 85.600 0.553 77.060 417.60 366.50 -3.87 -8.27
DSCMET_COMPS 2018-07-16 20:20:00 22.180 22.970 23.020 23.120 23.120 65.300 15.380 9.274 260.500 261.200 259.800 23.660 54.330 13.901 13.350 115.300 261.500 261.100 0.2300 87.400 0.621 65.120 418.30 367.10 -3.88 -8.35
DSCMET_COMPS 2018-07-16 20:15:00 22.290 23.120 23.190 23.320 23.230 65.030 15.420 9.409 260.500 261.200 259.800 23.750 54.890 14.142 13.258 115.300 261.500 260.800 0.2230 85.400 0.189 57.880 419.40 367.90 -3.99 -8.36
DSCMET_COMPS 2018-07-16 20:10:00 22.390 23.240 23.300 23.380 23.370 64.570 15.410 9.591 260.500 261.200 259.800 23.940 54.250 14.137 13.601 115.300 261.500 260.800 0.2070 87.600 0.241 57.570 420.40 368.70 -4.00 -8.26
DSCMET_COMPS 2018-07-16 20:05:00 22.520 23.400 23.460 23.560 23.510 65.270 15.690 9.476 260.500 261.200 259.400 24.390 51.680 13.805 14.757 115.200 261.500 260.800 0.2210 87.500 0.402 68.200 421.60 369.50 -3.82 -7.82
DSCMET_COMPS 2018-07-16 20:00:00 22.680 23.620 23.780 23.890 23.900 64.420 15.640 9.803 260.500 261.100 259.200 24.650 49.990 13.533 15.513 115.300 261.500 260.700   0.000 0.739 65.370 422.70 370.50 -3.95 -7.42
DSCMET_COMPS 2018-07-16 19:55:00 22.770 23.740 23.910 24.100 24.210 64.250 15.680 9.904 260.500 260.600 259.200 24.950 50.110 13.845 15.755 115.400 261.500 260.800   0.000 0.595 65.650 423.30 371.60 -4.11 -7.11
DSCMET_COMPS 2018-07-16 19:50:00 22.970 23.990 24.070 24.270 24.310 64.060 15.830 10.078 260.500 260.600 259.200 25.180 49.060 13.730 16.308 115.400 261.400 260.500 0.1890 88.900 0.426 59.320 424.60 372.30 -4.01 -6.25
DSCMET_COMPS 2018-07-16 19:45:00 23.100 24.100 24.320 24.430 24.540 64.080 15.960 10.151 260.500 260.500 259.200 25.210 49.690 13.954 16.135 115.500 261.100 260.500 0.1680 89.300 0.342 65.680 425.80 373.00 -4.21 -5.59
DSCMET_COMPS 2018-07-16 19:40:00 23.340 24.410 24.590 24.770 24.890 63.010 15.920 10.606 260.500 260.500 259.200 25.630 47.560 13.663 17.243 115.600 261.100 260.400 0.1330 94.900 1.005 60.800 426.90 373.70 -3.98 -4.51
DSCMET_COMPS 2018-07-16 19:35:00 23.430 24.530 24.760 24.960 25.040 63.790 16.200 10.439 260.500 260.500 259.200 25.700 46.820 13.486 17.559 115.700 261.100 260.300 0.2540 88.500 0.508 59.660 429.10 375.10 -3.69 -2.89
DSCMET_COMPS 2018-07-16 19:30:00 23.640 24.740 24.870 25.110 25.360 63.210 16.250 10.742 260.500 260.500 259.200 26.070 44.590 13.074 18.700 115.800 261.100 260.200 0.2410 91.700 0.736 63.690 430.30 376.10 -3.86 -1.80
DSCMET_COMPS 2018-07-16 19:25:00 23.690 24.810 25.070 25.280 25.400 62.830 16.210 10.885 260.500 260.500 259.200 26.160 45.320 13.404 18.552 115.700 261.100 260.100 0.1200 65.050 0.321 51.340 431.30 376.90 -3.86 -0.78
DSCMET_COMPS 2018-07-16 19:20:00 23.880 25.050 25.330 25.660 25.800 62.590 16.330 11.081 260.500 260.500 259.200 26.540 43.150 12.996 19.726 115.700 261.000 260.100 0.1970 97.900 0.830 57.160 432.40 378.00 -3.83 0.34
DSCMET_COMPS 2018-07-16 19:15:00 24.050 25.230 25.510 25.820 25.980 62.000 16.340 11.372 260.500 260.500 259.200 26.760 43.260 13.233 19.944 115.800 261.000 260.100 0.1960 90.200 0.573 54.200 433.70 379.20 -3.78 1.63
DSCMET_COMPS 2018-07-16 19:10:00 24.190 25.450 25.700 25.960 26.190 61.550 16.360 11.603 260.500 260.500 259.200 27.070 41.530 12.887 20.929 116.000 260.900 260.000 0.2210 80.900 0.840 34.170 435.50 380.60 -3.56 2.99
DSCMET_COMPS 2018-07-16 19:05:00 24.330 25.580 25.890 26.160 26.510 60.820 16.300 11.923 260.500 260.500 259.200 27.370 39.930 12.555 21.883 116.100 260.700 259.700 0.1780 98.300 0.367 55.790 436.90 382.10 -3.56 4.17
DSCMET_COMPS 2018-07-16 19:00:00 24.390 25.750 26.100 26.340 26.610 60.810 16.350 11.969 260.500 260.500 259.200 27.630 38.910 12.393 22.596 116.000 260.700 259.700 0.1840 90.200 0.316 58.360 438.30 383.30 -3.68 5.24
DSCMET_COMPS 2018-07-16 18:55:00 24.650 26.010 26.360 26.580 27.000 59.950 16.370 12.423 260.500 260.500 259.200 27.910 37.750 12.181 23.404 116.100 260.700 259.700 0.2440 91.600 0.278 52.670 439.60 385.10 -3.70 6.41
DSCMET_COMPS 2018-07-16 18:50:00 24.820 26.170 26.600 26.830 27.310 59.530 16.420 12.682 260.400 260.500 259.100 28.200 36.960 12.116 24.104 116.200 260.700 259.700   0.000 0.307 38.650 440.60 385.40 -3.70 7.49
DSCMET_COMPS 2018-07-16 18:45:00 25.060 26.460 26.870 27.130 27.600 59.390 16.610 12.909 260.200 260.500 258.600 28.540 35.240 11.693 25.256 116.300 260.600 259.700 0.2360 90.000 0.166 327.900 441.80 386.70 -3.48 8.67
DSCMET_COMPS 2018-07-16 18:40:00 25.200 26.580 27.130 27.430 27.980 58.280 16.450 13.373 259.800 260.500 258.500 28.940 34.140 11.564 26.286 116.300 260.300 259.700 0.2050 86.100 0.248 252.200 443.00 387.60 -3.66 9.28
DSCMET_COMPS 2018-07-16 18:35:00 25.420 26.820 27.460 27.740 28.300 57.390 16.410 13.837 259.800 260.500 258.500 29.420 32.670 11.317 27.628 116.700 260.300 259.700 0.2340 88.200 0.614 296.200 444.30 388.70 -3.92 10.00
DSCMET_COMPS 2018-07-16 18:30:00 25.600 27.180 27.750 28.100 28.670 57.400 16.580 13.983 259.800 260.400 258.500 29.980 31.200 11.109 29.155 116.900 260.300 259.700 0.1620 83.200 0.474 306.600 445.40 389.90 -3.83 11.07
DSCMET_COMPS 2018-07-16 18:25:00 25.750 27.340 28.040 28.270 29.000 57.320 16.690 14.134 259.800 260.000 258.500 30.420 29.990 10.893 30.424 116.900 260.300 259.600 0.2660 71.540 0.637 272.300 447.40 391.30 -3.58 12.25
DSCMET_COMPS 2018-07-16 18:20:00 26.130 27.800 28.290 28.620 29.580 57.190 17.020 14.499 259.800 259.800 258.500 30.600 29.600 10.851 30.910 117.200 260.300 259.700 0.1890 53.830 1.138 312.000 448.70 393.40 -3.92 12.99
DSCMET_COMPS 2018-07-16 18:15:00 26.360 28.190 28.520 28.890 29.700 57.690 17.360 14.526 259.800 259.800 258.500 31.000 28.500 10.624 32.117 117.200 260.300 259.700 0.2530 59.530 0.581 254.800 449.90 394.10 -3.68 13.55
DSCMET_COMPS 2018-07-16 18:10:00 26.710 28.500 28.800 29.340 30.040 55.600 17.090 15.561 259.800 259.800 258.500 31.050 28.560 10.699 32.182 117.200 260.300 259.500 0.1740 109.700 0.861 267.600 451.40 395.20 -3.76 14.31
DSCMET_COMPS 2018-07-16 18:05:00 27.210 28.900 29.000 29.800 30.880 50.470 16.050 17.875 259.800 259.800 258.500 32.070 26.380 10.375 35.138 117.400 260.400 259.500 0.2620 16.950 0.766 228.800 452.40 395.90 -3.72 14.70
DSCMET_COMPS 2018-07-16 18:00:00 27.350 28.870 29.240 29.710 30.510 49.950 16.000 18.212 259.800 259.800 258.500 32.360 26.490 10.683 35.664 117.400 260.300 259.700 0.1920 318.200 0.746 270.700 454.00 398.20 -3.59 15.76
DSCMET_COMPS 2018-07-16 17:55:00 27.590 29.100 29.530 30.060 30.810 48.990 15.940 18.823 259.400 259.800 258.500 32.820 25.650 10.588 37.017 117.600 260.300 259.700 0.1180 312.500 0.433 249.600 456.10 400.70 -3.27 16.85
DSCMET_COMPS 2018-07-16 17:50:00 28.040 29.510 29.860 30.650 31.360 45.450 15.160 20.665 259.200 259.800 258.500 32.740 25.440 10.397 36.956 117.600 260.500 259.700 0.2000 298.900 0.605 286.300 457.20 400.10 -3.62 16.84
DSCMET_COMPS 2018-07-16 17:45:00 28.180 29.630 29.960 30.700 31.450 44.840 15.090 21.067 259.200 259.800 258.500 33.040 24.840 10.292 37.886 117.700 260.400 259.700 0.2110 310.900 0.656 265.400 458.60 400.40 -3.74 17.43
DSCMET_COMPS 2018-07-16 17:40:00 28.340 29.840 30.120 30.740 31.610 44.070 14.960 21.560 259.200 259.800 258.500 32.790 25.500 10.474 37.030 117.700 260.400 259.700   0.000 0.587 275.600 460.20 401.70 -3.98 17.49
DSCMET_COMPS 2018-07-16 17:35:00 28.500 30.110 30.370 31.300 31.980 44.720 15.330 21.509 259.200 259.800 258.500 33.380 24.650 10.462 38.712 117.900 260.600 259.700 0.3530 309.800 0.767 238.400 462.60 403.10 -3.40 18.64
DSCMET_COMPS 2018-07-16 17:30:00 28.670 30.220 30.460 31.360 32.080 42.870 14.830 22.448 259.200 259.800 258.500 33.600 24.560 10.591 39.237 118.000 260.600 259.700 0.2350 313.400 0.493 273.300 466.10 405.80 -2.16 20.70
DSCMET_COMPS 2018-07-16 17:25:00 28.980 30.360 30.810 31.930 32.590 42.360 14.920 23.059 259.200 259.800 258.500 34.060 24.120 10.705 40.491 118.000 260.600 259.700 0.2730 296.000 0.435 280.900 470.80 409.20 -0.40 24.09
DSCMET_COMPS 2018-07-16 17:20:00 29.050 30.310 31.170 32.230 32.970 41.400 14.620 23.538 259.200 259.800 258.500 33.760 23.610 10.135 40.088 118.000 260.700 259.700 0.4010 325.300 0.863 267.600 466.50 406.70 -3.32 21.41
DSCMET_COMPS 2018-07-16 17:15:00 28.900 30.270 31.390 32.340 33.010 44.090 15.480 22.263 259.200 259.800 258.500 34.080 22.640 9.775 41.327 118.000 260.600 259.700 0.2450 324.600 1.556 189.400 468.10 406.40 -2.94 22.44
DSCMET_COMPS 2018-07-16 17:10:00 29.470 31.120 32.100 32.620 33.060 41.850 15.170 23.930 259.200 259.800 258.500 34.070 22.870 9.917 41.181 118.600 260.400 259.700 0.3300 193.900 0.845 240.800 470.10 408.20 -2.97 24.17
DSCMET_COMPS 2018-07-16 17:05:00 29.420 30.930 32.020 32.990 33.380 41.290 14.920 24.091 259.200 259.800 258.500 34.230 23.260 10.303 41.339 120.600 260.400 259.700 0.3610 327.300 0.784 193.200 473.10 412.00 -1.96 27.17
DSCMET_COMPS 2018-07-16 17:00:00 29.480 30.800 32.240 33.240 33.530 41.810 15.170 23.960 259.200 259.800 258.500 34.110 23.320 10.241 41.032 120.700 260.500 259.700 0.3700 330.100 1.477 171.100 473.70 411.30 -3.41 27.59
DSCMET_COMPS 2018-07-16 16:55:00 29.940 31.580 32.760 33.530 33.780 40.820 15.210 25.021 259.200 259.800 258.500 34.370 21.820 9.466 42.444 120.800 260.600 259.700 0.3360 267.200 1.740 200.000 476.00 411.60 -2.72 30.62
DSCMET_COMPS 2018-07-16 16:50:00 29.850 31.740 32.690 33.430 33.800 38.930 14.380 25.687 259.200 259.800 258.500 34.500 21.810 9.566 42.756 120.800 260.500 259.700 0.2580 66.380 1.119 224.400 480.30 414.80 -1.07 32.71
DSCMET_COMPS 2018-07-16 16:45:00 29.930 31.260 32.270 33.460 33.920 39.850 14.820 25.416 259.200 259.800 258.500 34.610 22.360 10.028 42.715 120.900 260.600 259.700 0.3680 295.900 0.923 219.600 485.70 416.70 0.95 34.71
DSCMET_COMPS 2018-07-16 16:40:00 29.970 31.350 32.960 33.800 34.020 41.390 15.460 24.822 259.200 259.800 258.500 34.320 22.180 9.668 42.131 120.900 260.600 259.700 0.3830 324.500 1.335 181.100 483.40 418.00 -0.03 84.80
DSCMET_COMPS 2018-07-16 16:35:00 30.120 31.730 32.980 33.760 34.030 41.310 15.560 25.071 259.200 259.800 258.500 34.620 21.660 9.562 43.124 120.900 260.600 259.700 0.2690 326.700 1.818 205.400 488.20 420.90 0.65 324.50
DSCMET_COMPS 2018-07-16 16:30:00 30.380 32.240 33.320 33.820 34.020 39.560 15.110 26.206 259.200 259.800 258.500 34.640 22.300 10.013 42.820 120.800 260.600 259.700   0.000 0.666 198.600 486.70 421.50 1.43 378.30
DSCMET_COMPS 2018-07-16 16:25:00 30.780 32.690 33.610 34.110 34.310 39.840 15.570 26.687 259.200 259.800 258.500 34.620 22.090 9.855 42.888 120.900 260.600 259.700 0.6010 239.400 1.475 198.400 489.60 429.40 5.53 474.30
DSCMET_COMPS 2018-07-16 16:20:00 31.050 33.630 33.870 34.110 34.360 38.860 15.420 27.542 259.200 259.800 258.500 34.540 22.520 10.077 42.462 120.700 260.700 259.800 0.2940 4.307 0.939 189.700 494.20 427.90 9.05 172.00
DSCMET_COMPS 2018-07-16 16:15:00 31.120 33.550 33.900 34.200 34.210 37.620 14.960 28.213 259.200 259.800 258.500 34.240 23.100 10.208 41.448 120.600 260.600 259.800 0.4200 329.100 1.815 241.200 497.40 427.20 11.21 222.90
DSCMET_COMPS 2018-07-16 16:10:00 30.870 33.060 33.950 34.350 34.280 38.420 15.080 27.457 259.200 259.800 258.500 34.290 22.920 10.132 41.661 121.000 260.700 259.700 0.5330 181.200 2.873 225.300 505.10 431.00 17.61 513.50
DSCMET_COMPS 2018-07-16 16:05:00 31.390 33.270 33.880 34.250 34.220 35.550 14.340 29.599 259.100 259.800 258.500 34.280 23.190 10.299 41.492 120.900 260.400 259.700 0.5160 344.900 1.722 208.700 508.80 433.70 23.68 438.40
DSCMET_COMPS 2018-07-16 16:00:00 32.120 33.630 34.100 34.340 34.330 32.460 13.570 32.327 259.200 259.800 258.500 34.310 23.120 10.279 41.599 120.800 260.600 259.700 0.8030 132.900 1.528 193.600 513.80 435.30 30.69 563.20
DSCMET_COMPS 2018-07-16 15:55:00 32.340 33.820 34.190 34.240 34.080 31.950 13.500 32.978 259.200 259.800 258.500 34.160 22.630 9.834 41.517 120.700 260.500 259.700 1.0240 153.500 2.610 208.700 523.70 436.40 40.86 589.20
DSCMET_COMPS 2018-07-16 15:50:00 32.240 33.700 34.120 34.400 34.670 34.820 14.730 31.410 259.200 259.800 258.500 34.570 23.290 10.605 42.110 121.200 260.600 259.900 0.6720 136.000 1.953 197.800 530.10 435.90 49.21 598.60
DSCMET_COMPS 2018-07-16 15:45:00 32.370 33.610 34.050 34.480 34.820 32.980 14.050 32.534 259.100 259.800 258.500 34.480 23.400 10.600 41.841 121.200 260.700 260.000 0.7020 319.500 1.373 256.900 535.90 435.90 58.50 612.80
DSCMET_COMPS 2018-07-16 15:40:00 33.100 34.160 34.270 34.570 34.670 29.480 12.950 35.667 259.200 259.800 258.500 34.320 24.040 10.872 41.124 121.000 260.700 259.900 0.7500 307.200 2.030 229.300 545.90 437.50 69.69 631.70
DSCMET_COMPS 2018-07-16 15:35:00 33.090 34.120 34.290 34.550 34.950 29.880 13.150 35.444 259.200 259.800 258.500 34.470 23.480 10.643 41.774 120.900 260.700 259.800 0.7620 323.000 1.898 264.300 551.50 438.10 77.05 643.00
DSCMET_COMPS 2018-07-16 15:30:00 33.260 34.230 34.300 34.620 34.850 29.560 13.120 35.947 259.200 259.800 258.500 34.550 24.040 11.064 41.652 121.000 260.700 260.000 0.7350 321.900 1.651 254.400 556.40 438.90 84.00 646.80
DSCMET_COMPS 2018-07-16 15:25:00 33.600 34.360 34.450 34.700 34.720 28.370 12.790 37.256 259.200 259.800 258.500 34.480 23.730 10.811 41.660 120.900 260.700 260.000   0.000 1.772 255.100 560.30 439.10 90.40 492.10
DSCMET_COMPS 2018-07-16 15:20:00 33.610 34.350 34.420 34.720 34.840 28.180 12.700 37.375 259.200 259.800 258.500 34.680 23.220 10.651 42.406 121.000 260.700 260.000 1.0470 322.800 1.889 260.800 566.90 440.00 95.90 680.20
DSCMET_COMPS 2018-07-16 15:15:00 33.580 34.180 34.240 34.640 34.790 27.660 12.390 37.583 259.200 259.800 258.500 34.440 23.980 10.935 41.432 121.000 260.600 260.000 1.0640 323.200 1.683 252.800 569.50 439.80 100.10 694.00
DSCMET_COMPS 2018-07-16 15:10:00 33.580 34.350 34.420 34.740 34.730 28.420 12.800 37.188 259.200 259.800 258.500 34.280 23.710 10.631 41.211 121.100 260.600 260.000 1.2710 325.400 2.563 257.100 573.60 441.10 104.00 706.00
DSCMET_COMPS 2018-07-16 15:05:00 33.640 34.300 34.410 34.630 34.850 27.890 12.570 37.589 259.200 259.800 258.500 34.480 23.950 10.949 41.540 121.000 260.900 260.000 0.9090 318.300 1.719 254.600 576.90 441.40 107.40 717.10
DSCMET_COMPS 2018-07-16 15:00:00 33.800 34.460 34.600 34.820 34.820 27.470 12.470 38.147 259.200 259.800 258.500 34.260 23.670 10.589 41.187 121.200 260.700 260.000 1.3460 321.400 2.232 254.400 580.40 441.60 109.90 729.10
DSCMET_COMPS 2018-07-16 14:55:00 33.770 34.490 34.630 34.960 34.810 28.660 13.090 37.458 259.200 259.800 258.500 34.250 24.070 10.832 40.948 121.300 260.700 260.000 1.0950 318.500 2.343 258.900 581.80 442.30 111.60 740.30
DSCMET_COMPS 2018-07-16 14:50:00 33.880 34.470 34.570 34.870 34.810 28.090 12.880 37.990 259.200 259.800 258.500 34.370 23.990 10.883 41.266 121.500 260.700 260.000 0.8040 326.400 4.809 227.400 585.70 442.80 113.60 752.60
DSCMET_COMPS 2018-07-16 14:45:00 34.080 34.550 34.650 34.890 34.640 27.230 12.570 38.875 259.200 259.800 258.500 34.210 24.160 10.855 40.809 121.500 260.700 260.000 1.1220 321.500 1.610 275.300 588.50 443.80 116.40 765.50
DSCMET_COMPS 2018-07-16 14:40:00 33.800 34.570 34.640 35.110 34.910 27.670 12.580 38.042 259.200 259.800 258.500 34.250 23.810 10.669 41.088 121.800 260.600 260.000 1.0340 324.500 2.604 237.900 588.10 442.70 118.60 775.00
DSCMET_COMPS 2018-07-16 14:35:00 33.820 34.380 34.540 35.020 35.090 27.570 12.550 38.137 259.200 259.800 258.500 34.480 23.700 10.792 41.677 121.900 260.600 260.000 0.9390 326.000 1.894 266.400 589.90 443.30 120.90 789.80
DSCMET_COMPS 2018-07-16 14:30:00 33.800 34.490 34.580 34.810 34.840 27.920 12.710 37.910 259.200 259.800 258.500 34.410 23.480 10.593 41.635 121.800 260.600 260.000 0.8120 323.500 1.879 253.200 591.90 443.30 123.40 801.00
DSCMET_COMPS 2018-07-16 14:25:00 33.800 34.370 34.530 34.840 34.910 28.170 12.860 37.779 259.200 259.800 258.500 34.570 23.550 10.771 41.968 121.900 260.300 260.000 0.7980 313.400 1.597 249.200 595.90 444.00 126.30 819.00
DSCMET_COMPS 2018-07-16 14:20:00 33.790 34.520 34.670 34.870 34.580 28.170 12.840 37.758 259.200 259.800 258.500 34.140 24.170 10.803 40.645 122.300 260.400 260.000 1.0390 324.300 2.008 249.200 594.60 443.30 126.70 828.00
DSCMET_COMPS 2018-07-16 14:15:00 33.610 34.460 34.730 35.100 34.840 29.020 13.150 36.938 259.200 259.800 258.500 34.360 23.860 10.793 41.313 123.700 260.600 260.000   0.000 1.622 251.500 595.90 443.60 126.90 832.00
DSCMET_COMPS 2018-07-16 14:10:00 33.860 34.400 34.690 35.030 34.850 26.960 12.230 38.544 259.200 259.800 258.500 34.140 23.500 10.381 41.004 123.800 260.700 260.000 0.9020 326.300 1.911 241.100 599.80 443.80 128.60 844.00
DSCMET_COMPS 2018-07-16 14:05:00 34.020 34.570 34.880 35.110 35.130 25.900 11.760 39.453 259.200 259.800 258.500 34.490 22.450 9.989 42.383 123.300 260.600 259.900 1.1540 321.700 2.539 246.800 601.00 443.80 130.30 852.00
DSCMET_COMPS 2018-07-16 14:00:00 33.840 34.480 34.720 35.060 35.140 26.360 11.870 38.817 259.200 259.800 258.500 34.810 21.560 9.650 43.636 122.900 260.800 260.000 0.6960 340.100 0.931 287.500 602.90 443.10 131.80 860.00
DSCMET_COMPS 2018-07-16 13:55:00 33.890 34.410 34.740 35.090 35.050 24.810 11.010 39.745 259.200 259.800 258.500 34.350 21.270 9.070 42.695 123.200 260.600 260.000 0.7790 327.500 2.076 227.900 604.60 442.40 133.40 870.00
DSCMET_COMPS 2018-07-16 13:50:00 33.840 34.500 34.730 34.890 34.920 25.020 11.090 39.524 259.200 259.800 258.500 34.420 21.000 8.939 43.008 123.400 260.600 260.000 0.8590 325.200 1.809 246.900 608.20 443.00 135.00 880.00
DSCMET_COMPS 2018-07-16 13:45:00 33.860 34.580 34.800 34.960 34.910 24.010 10.480 40.101 259.200 259.800 258.500 34.250 20.650 8.551 42.793 123.600 260.300 260.000 0.5210 16.990 1.529 218.200 605.80 440.80 137.00 894.00
DSCMET_COMPS 2018-07-16 13:40:00 33.910 34.520 34.800 35.020 34.930 24.180 10.630 40.123 259.200 259.800 258.500 34.260 20.560 8.495 42.865 123.700 260.100 260.000 0.9550 331.700 1.864 234.300 609.30 441.40 138.50 903.00
DSCMET_COMPS 2018-07-16 13:35:00 33.940 34.490 34.680 34.880 34.820 24.410 10.800 40.068 259.200 259.800 258.600 34.140 20.330 8.231 42.703 123.200 260.100 260.000 0.9530 331.700 1.426 257.500 607.80 441.00 138.00 909.00
DSCMET_COMPS 2018-07-16 13:30:00 33.870 34.250 34.410 34.690 35.220 25.140 11.190 39.526 259.200 259.800 258.500 34.570 20.760 8.892 43.499 122.300 260.600 260.100 0.9840 321.800 1.354 267.000 611.00 441.60 139.80 918.00
DSCMET_COMPS 2018-07-16 13:25:00 33.770 34.220 34.300 34.470 34.580 26.540 11.920 38.572 259.200 259.900 258.900 34.040 21.850 9.214 41.656 121.900 260.500 260.100 0.6230 320.400 1.089 255.900 610.90 441.20 141.10 922.00
DSCMET_COMPS 2018-07-16 13:20:00 33.770 34.040 34.260 34.530 34.430 25.200 11.140 39.275 259.200 260.000 259.000 33.580 22.090 8.996 40.477 121.900 260.400 260.000 0.9930 321.700 2.435 245.400 611.80 441.20 142.20 928.00
DSCMET_COMPS 2018-07-16 13:15:00 33.700 34.030 34.220 34.570 34.690 26.250 11.690 38.573 259.200 260.500 259.200 33.800 22.310 9.325 40.861 122.100 260.800 260.000 0.8840 320.100 1.942 245.600 611.60 441.00 143.20 931.00
DSCMET_COMPS 2018-07-16 13:10:00 33.670 33.840 34.150 34.480 34.620 26.770 11.960 38.237 259.300 260.500 259.200 33.930 22.920 9.833 40.835 121.500 261.300 260.300   0.000 1.144 253.200 612.70 441.60 144.20 937.00
DSCMET_COMPS 2018-07-16 13:05:00 33.630 33.870 34.150 34.510 34.290 27.250 12.200 37.902 259.800 260.500 259.200 33.650 23.210 9.788 40.051 121.200 261.300 260.300 1.0260 324.500 1.667 246.900 611.20 440.90 144.60 942.00
DSCMET_COMPS 2018-07-16 13:00:00 33.290 33.720 33.910 34.340 34.400 28.800 12.760 36.396 259.800 260.500 259.200 33.860 23.920 10.413 40.148 121.200 261.300 260.400 0.6030 322.300 1.574 252.800 609.80 440.70 145.40 946.00
DSCMET_COMPS 2018-07-16 12:55:00 33.390 33.720 33.960 34.330 34.510 28.580 12.730 36.713 259.800 260.500 259.200 33.700 24.450 10.608 39.514 121.200 261.400 260.400 0.8090 319.300 1.776 240.500 609.80 441.10 145.70 949.00
DSCMET_COMPS 2018-07-16 12:50:00 33.220 33.660 33.880 34.100 34.290 29.160 12.890 36.070 259.800 260.500 259.200 33.960 24.660 10.954 39.980 121.200 261.500 260.500 0.5110 315.100 1.135 249.200 610.90 441.30 146.20 954.00
DSCMET_COMPS 2018-07-16 12:45:00 33.130 33.510 33.720 33.990 34.190 29.070 12.770 35.934 260.000 260.500 259.200 33.470 25.280 10.916 38.582 121.200 261.600 260.400 0.6910 324.900 0.873 244.400 609.50 441.30 144.60 955.00
DSCMET_COMPS 2018-07-16 12:40:00 33.030 33.430 33.650 33.780 33.670 29.540 12.920 35.497 259.800 260.500 259.200 33.050 25.680 10.799 37.483 121.300 261.500 260.400 0.7370 317.800 1.588 253.900 610.30 441.60 145.70 958.00
DSCMET_COMPS 2018-07-16 12:35:00 32.930 33.410 33.540 33.790 33.700 29.950 13.040 35.093 259.800 260.500 259.200 33.060 25.820 10.889 37.434 127.600 261.300 260.400 0.7910 333.800 1.679 244.100 611.50 441.10 146.30 961.00
DSCMET_COMPS 2018-07-16 12:30:00 32.960 33.360 33.560 33.840 33.780 30.200 13.200 35.026 259.800 260.500 259.200 33.250 26.060 11.188 37.712 126.400 261.500 260.500 0.7360 327.000 1.321 246.500 611.20 441.50 146.50 966.00
DSCMET_COMPS 2018-07-16 12:25:00 32.930 33.280 33.480 33.740 33.660 30.480 13.320 34.827 260.000 260.500 259.200 32.960 26.770 11.349 36.748 124.900 261.700 260.500 0.7810 318.200 1.559 252.200 608.80 441.00 146.10 966.00
DSCMET_COMPS 2018-07-16 12:20:00 32.750 33.160 33.410 33.720 33.450 31.490 13.650 33.976 260.200 260.500 259.200 32.900 27.050 11.455 36.484 124.700 261.600 260.500 0.7050 330.900 1.916 229.600 608.60 441.30 146.30 967.00
DSCMET_COMPS 2018-07-16 12:15:00 32.700 33.080 33.380 33.670 33.710 31.870 13.800 33.693 260.400 260.700 259.300 33.010 27.770 11.946 36.348 124.700 261.900 260.700 0.6610 317.100 1.273 261.500 610.40 442.20 147.50 967.00
DSCMET_COMPS 2018-07-16 12:10:00 32.480 33.090 33.280 33.460 33.450 33.660 14.460 32.404 260.500 261.200 259.800 32.910 28.160 12.072 35.949 124.800 261.900 260.700 0.5990 357.600 0.990 231.900 607.50 441.10 146.30 966.00
DSCMET_COMPS 2018-07-16 12:05:00 32.430 32.930 33.080 33.250 33.040 33.140 14.170 32.566 260.500 261.200 259.800 32.690 28.440 12.035 35.369 124.900 261.800 260.600 0.6720 336.900 1.377 232.700 606.60 440.60 147.50 966.00
DSCMET_COMPS 2018-07-16 12:00:00 32.230 32.700 32.990 33.310 33.230 32.650 13.770 32.437 260.500 261.200 259.800 32.730 28.310 11.999 35.513 124.700 261.800 260.500   0.000 1.810 232.900 606.70 441.20 148.30 967.00
DSCMET_COMPS 2018-07-16 11:55:00 32.120 32.680 32.910 33.350 33.510 33.090 13.880 32.026 260.500 261.200 259.800 32.760 28.320 12.030 35.568 124.600 262.100 260.600 0.4840 313.400 0.970 255.800 604.50 439.60 147.00 965.00
DSCMET_COMPS 2018-07-16 11:50:00 32.020 32.660 32.870 33.210 32.900 33.080 13.790 31.850 260.500 261.200 259.800 32.280 28.410 11.669 34.576 124.600 261.900 260.400 0.5410 325.900 1.161 255.200 603.40 438.70 147.60 965.00
DSCMET_COMPS 2018-07-16 11:45:00 31.730 32.500 32.770 33.150 32.770 33.180 13.580 31.285 260.500 261.200 259.800 32.110 28.390 11.513 34.256 124.500 261.700 260.400 0.6750 316.500 1.791 244.900 602.20 438.00 147.40 963.00
DSCMET_COMPS 2018-07-16 11:40:00 31.570 32.320 32.470 32.750 32.930 32.230 13.000 31.444 260.500 261.200 259.800 32.640 27.610 11.544 35.679 124.600 261.700 260.400 0.4330 303.600 0.784 266.600 599.60 437.30 146.50 960.00
DSCMET_COMPS 2018-07-16 11:35:00 31.370 32.140 32.390 32.880 32.910 32.470 12.930 30.979 260.500 261.200 259.800 32.150 27.200 10.902 34.904 125.000 261.800 260.100 0.5280 314.100 1.226 257.800 601.30 437.00 146.80 962.00
DSCMET_COMPS 2018-07-16 11:30:00 31.320 32.050 32.260 32.690 32.670 33.240 13.250 30.539 260.700 261.200 259.800 32.000 26.530 10.401 34.928 124.700 261.700 260.200 0.6000 308.400 1.742 244.600 598.40 435.30 147.20 960.00
DSCMET_COMPS 2018-07-16 11:25:00 31.100 31.800 32.170 32.460 32.500 34.880 13.800 29.418 261.200 261.200 259.800 31.980 27.350 10.841 34.499 124.500 261.800 260.600 0.5780 312.000 1.550 246.000 597.20 434.60 146.80 957.00
DSCMET_COMPS 2018-07-16 11:20:00 30.560 31.450 31.720 32.160 32.320 37.850 14.560 27.226 261.200 261.400 260.100 31.890 27.960 11.096 34.036 124.500 261.900 260.400 0.4510 300.700 1.434 240.400 594.10 433.00 146.30 953.00
DSCMET_COMPS 2018-07-16 11:15:00 29.850 30.750 31.150 31.610 31.970 41.910 15.530 24.433 261.200 261.900 260.400 31.950 31.640 13.023 32.407 124.600 262.100 260.900 0.2410 303.800 0.525 248.200 593.20 433.10 146.90 951.00
DSCMET_COMPS 2018-07-16 11:10:00 29.540 30.600 31.010 31.480 31.980 43.760 15.930 23.237 261.200 261.900 260.200 32.060 31.270 12.939 32.786 124.700 262.100 260.800 0.1970 313.400 0.629 213.500 590.60 431.60 147.10 945.00
DSCMET_COMPS 2018-07-16 11:05:00 29.290 30.730 31.150 31.630 32.070 46.820 16.760 21.659 261.200 261.900 260.400 31.590 30.270 12.039 32.390 129.600 262.100 260.500 0.2580 272.100 1.274 214.500 587.40 429.70 147.30 940.00
DSCMET_COMPS 2018-07-16 11:00:00 29.310 30.420 30.810 31.270 31.670 42.910 15.380 23.278 261.600 261.900 260.400 31.450 30.900 12.231 31.843 132.000 262.100 260.800 0.3500 293.000 0.757 265.200 583.70 427.90 145.30 933.00
DSCMET_COMPS 2018-07-16 10:55:00 28.920 30.210 30.710 31.100 31.670 46.300 16.220 21.408 261.900 261.900 260.500 31.340 30.670 12.023 31.750 128.500 262.100 260.500   0.000 0.785 256.300 582.10 428.10 145.50 929.00
DSCMET_COMPS 2018-07-16 10:50:00 28.910 30.070 30.590 31.100 31.320 44.210 15.490 22.229 261.900 261.900 260.500 30.890 30.690 11.645 30.939 126.900 262.100 260.400 0.4340 308.100 1.048 260.800 579.90 427.30 144.20 925.00
DSCMET_COMPS 2018-07-16 10:45:00 28.540 29.730 30.080 30.740 31.040 44.590 15.300 21.609 261.900 261.900 260.500 30.910 31.120 11.873 30.782 125.800 262.100 260.400 0.4030 298.600 1.292 242.800 574.80 425.30 143.50 918.00
DSCMET_COMPS 2018-07-16 10:40:00 27.860 29.410 29.920 30.330 30.780 49.750 16.420 18.837 261.900 261.900 260.500 30.750 31.930 12.124 30.144 125.400 262.200 260.600 0.3000 272.700 0.855 253.300 572.10 423.80 143.00 912.00
DSCMET_COMPS 2018-07-16 10:35:00 28.330 29.390 29.820 30.180 30.510 44.960 15.250 21.205 261.900 261.900 260.500 30.350 32.960 12.259 29.017 125.200 262.300 260.800 0.4460 299.800 0.936 271.700 568.50 422.80 142.40 906.00
DSCMET_COMPS 2018-07-16 10:30:00 27.420 29.100 29.540 29.760 30.160 49.020 15.760 18.626 261.900 261.900 260.500 30.080 34.040 12.515 28.112 124.900 262.400 260.900 0.4310 307.900 0.963 254.600 566.10 421.20 141.10 898.00
DSCMET_COMPS 2018-07-16 10:25:00 26.890 28.640 29.100 29.400 29.770 52.310 16.310 16.891 262.000 261.900 260.500 29.920 35.310 12.934 27.319 124.900 262.500 261.100 0.3610 288.200 1.910 251.100 562.80 419.00 140.40 891.00
DSCMET_COMPS 2018-07-16 10:20:00 26.610 28.390 28.940 29.350 29.520 53.190 16.310 16.309 262.600 262.400 260.500 29.460 35.780 12.732 26.412 124.700 262.500 261.100 0.4450 315.100 1.205 290.300 560.00 418.70 139.70 884.00
DSCMET_COMPS 2018-07-16 10:15:00 26.150 28.050 28.710 29.040 29.380 53.790 16.060 15.669 262.600 262.600 260.700 29.350 35.550 12.537 26.340 124.500 262.500 261.100 0.2650 279.600 1.364 250.100 556.60 417.30 138.50 876.00
DSCMET_COMPS 2018-07-16 10:10:00 25.420 27.340 28.280 28.680 28.920 60.820 17.310 12.724 262.600 262.600 261.200 29.150 35.720 12.434 25.969 126.100 262.500 261.500 0.3090 296.400 0.873 275.100 553.20 415.60 137.40 865.00
DSCMET_COMPS 2018-07-16 10:05:00 25.160 27.070 27.930 28.510 28.760 61.670 17.290 12.257 262.600 262.600 261.200 28.980 36.540 12.630 25.387 130.500 262.600 261.600 0.3830 252.200 1.401 246.700 550.80 414.20 136.30 855.00
DSCMET_COMPS 2018-07-16 10:00:00 24.790 26.820 27.700 28.220 28.480 62.780 17.230 11.642 262.600 262.600 261.200 28.550 38.580 13.079 23.967 129.600 262.800 262.000 0.2860 278.900 1.263 247.900 543.80 411.90 133.90 846.00
DSCMET_COMPS 2018-07-16 09:55:00 24.480 26.460 27.350 27.950 28.280 62.400 16.840 11.545 262.600 262.700 261.200 28.170 39.920 13.264 22.932 129.100 262.800 261.900 0.4040 301.300 1.101 268.400 538.90 410.60 131.80 836.00
DSCMET_COMPS 2018-07-16 09:50:00 23.930 25.810 26.710 27.580 27.990 63.390 16.570 10.877 262.600 263.100 261.200 28.040 40.260 13.278 22.631 128.500 262.900 262.200 0.2680 266.100 1.173 258.600 535.30 409.00 130.70 826.00
DSCMET_COMPS 2018-07-16 09:45:00 23.370 25.180 26.160 26.960 27.620 66.060 16.690 9.750 262.600 263.200 261.200 27.830 41.170 13.434 22.015 130.300 262.900 262.400   0.000 1.080 266.400 531.40 407.30 129.10 815.00
DSCMET_COMPS 2018-07-16 09:40:00 23.060 24.990 25.960 26.940 27.340 66.980 16.620 9.309 262.700 263.200 261.600 27.310 42.110 13.314 21.015 130.900 262.900 262.500 0.1970 262.400 0.810 272.900 527.00 404.70 126.40 803.00
DSCMET_COMPS 2018-07-16 09:35:00 22.660 24.490 25.450 26.700 27.080 64.770 15.710 9.695 262.600 263.200 261.900 26.990 42.950 13.329 20.326 130.600 262.900 262.500 0.1320 305.800 0.961 250.100 522.40 402.50 125.50 792.50
DSCMET_COMPS 2018-07-16 09:30:00 22.350 23.950 24.990 26.220 26.720 65.960 15.700 9.193 262.600 263.200 261.900 26.810 43.410 13.331 19.950 130.300 262.900 262.500 0.1190 319.100 0.926 243.400 520.10 401.50 123.30 781.40
DSCMET_COMPS 2018-07-16 09:25:00 22.030 23.500 24.490 25.750 26.340 66.900 15.610 8.766 262.600 263.200 261.900 26.430 44.040 13.209 19.292 129.900 262.700 262.500 0.1640 34.380 0.991 244.800 516.10 399.80 122.20 769.70
DSCMET_COMPS 2018-07-16 09:20:00 21.770 23.100 24.000 25.420 26.000 66.660 15.310 8.691 262.800 263.200 261.900 26.050 44.540 13.038 18.695 129.700 262.700 262.500 0.1070 40.000 0.738 252.900 512.30 397.50 121.50 758.30
DSCMET_COMPS 2018-07-16 09:15:00 21.410 22.780 23.720 24.900 25.620 67.370 15.130 8.321 263.000 263.200 261.900 25.620 45.010 12.810 18.071 129.500 262.600 262.300 0.0920 49.790 0.892 243.700 507.50 395.20 118.70 746.90
DSCMET_COMPS 2018-07-16 09:10:00 21.090 22.450 23.320 24.430 25.320 68.850 15.170 7.789 263.200 263.200 261.900 25.390 45.300 12.700 17.732 129.200 262.500 262.300 0.0900 45.620 0.994 252.300 504.40 393.60 117.30 733.50
DSCMET_COMPS 2018-07-16 09:05:00 20.850 22.170 22.990 24.050 25.020 69.690 15.120 7.468 263.200 263.200 261.900 25.100 47.130 13.041 16.846 128.700 262.600 262.500 0.0890 43.020 0.907 244.400 501.50 392.70 116.20 721.70
DSCMET_COMPS 2018-07-16 09:00:00 20.570 21.810 22.550 23.680 24.620 70.310 15.000 7.190 263.200 263.200 261.900 24.930 48.210 13.233 16.336 128.400 262.900 262.600 0.0890 342.800 0.710 252.300 495.70 390.10 113.20 708.50
DSCMET_COMPS 2018-07-16 08:55:00 20.220 21.570 22.220 23.300 24.280 70.790 14.760 6.923 263.200 263.200 261.900 24.700 49.820 13.527 15.612 128.000 263.100 262.600 0.0820 6.974 0.468 253.400 491.20 388.60 111.60 695.40
DSCMET_COMPS 2018-07-16 08:50:00 19.870 21.260 21.970 23.010 23.930 75.250 15.380 5.740 263.200 263.200 261.900 24.450 49.980 13.347 15.332 127.800 263.200 262.600 0.1140 4.513 0.499 245.100 486.00 387.00 107.50 682.00
DSCMET_COMPS 2018-07-16 08:45:00 19.600 20.930 21.680 22.770 23.710 77.990 15.680 5.020 263.200 263.900 262.500 24.280 49.120 12.925 15.437 129.800 263.300 262.300 0.0980 43.000 0.757 234.500 481.10 385.40 104.60 667.80
DSCMET_COMPS 2018-07-16 08:40:00 19.390 20.530 21.270 22.350 23.230 79.040 15.680 4.718 263.200 263.900 262.600 24.020 51.000 13.261 14.637 129.700 263.500 262.400 0.1100 28.950 0.533 248.600 475.60 383.50 101.30 653.90
DSCMET_COMPS 2018-07-16 08:35:00 19.060 20.100 20.850 21.990 22.960 79.780 15.500 4.459 263.200 263.900 262.600 24.100 51.210 13.398 14.644 129.300 263.500 262.600   0.000 0.546 248.500 470.00 382.00 97.10 639.90
DSCMET_COMPS 2018-07-16 08:30:00 18.750 19.800 20.540 21.650 22.750 79.760 15.200 4.378 263.200 263.900 262.600 24.080 51.260 13.394 14.612 129.000 263.600 262.600 0.0880 60.900 0.570 257.200 463.90 380.10 92.50 625.10